<?xml version="1.0" encoding="UTF-8" standalone="no" ?>
<gpx xmlns="http://www.topografix.com/GPX/1/1" xmlns:xsi="http://www.w3.org/2001/XMLSchema-instance" xsi:schemaLocation="http://www.topografix.com/GPX/1/1 http://www.topografix.com/GPX/1/1/gpx.xsd" version="1.1" creator="VisuGPX - https://www.visugpx.com">
  <metadata>
    <name>Balade VTT en Cévennes</name>
    <desc><![CDATA[Plutot conseillée en randonnée, ce parcours est plutôt destiné aux VTTistes confirmés]]></desc>
  </metadata>
  <trk>
    <name><![CDATA[2012-08-09-01]]></name>
    <trkseg>
      <trkpt lat="44.16435" lon="4.07829">
        <ele>195.6</ele>
        <time>2012-08-09T06:08:57Z</time>
      </trkpt>
      <trkpt lat="44.16435" lon="4.07829">
        <ele>195.6</ele>
        <time>2012-08-09T06:08:58Z</time>
      </trkpt>
      <trkpt lat="44.16435" lon="4.07829">
        <ele>195.6</ele>
        <time>2012-08-09T06:09:06Z</time>
      </trkpt>
      <trkpt lat="44.16435" lon="4.07829">
        <ele>195.6</ele>
        <time>2012-08-09T06:09:11Z</time>
      </trkpt>
      <trkpt lat="44.16435" lon="4.07829">
        <ele>195.6</ele>
        <time>2012-08-09T06:09:16Z</time>
      </trkpt>
      <trkpt lat="44.16435" lon="4.07829">
        <ele>195.6</ele>
        <time>2012-08-09T06:09:21Z</time>
      </trkpt>
      <trkpt lat="44.16435" lon="4.07829">
        <ele>195.6</ele>
        <time>2012-08-09T06:09:26Z</time>
      </trkpt>
      <trkpt lat="44.16439" lon="4.0783">
        <ele>197.3</ele>
        <time>2012-08-09T06:09:31Z</time>
      </trkpt>
      <trkpt lat="44.16439" lon="4.0783">
        <ele>197.3</ele>
        <time>2012-08-09T06:09:36Z</time>
      </trkpt>
      <trkpt lat="44.1644" lon="4.07829">
        <ele>197.1</ele>
        <time>2012-08-09T06:09:41Z</time>
      </trkpt>
      <trkpt lat="44.1644" lon="4.07829">
        <ele>197.1</ele>
        <time>2012-08-09T06:09:46Z</time>
      </trkpt>
      <trkpt lat="44.1644" lon="4.07829">
        <ele>197.1</ele>
        <time>2012-08-09T06:09:51Z</time>
      </trkpt>
      <trkpt lat="44.1644" lon="4.07829">
        <ele>197.1</ele>
        <time>2012-08-09T06:09:56Z</time>
      </trkpt>
      <trkpt lat="44.1644" lon="4.07829">
        <ele>197.1</ele>
        <time>2012-08-09T06:10:00Z</time>
      </trkpt>
      <trkpt lat="44.1644" lon="4.07829">
        <ele>197.1</ele>
        <time>2012-08-09T06:10:01Z</time>
      </trkpt>
      <trkpt lat="44.16441" lon="4.07829">
        <ele>198.8</ele>
        <time>2012-08-09T06:10:10Z</time>
      </trkpt>
      <trkpt lat="44.16441" lon="4.07829">
        <ele>198.8</ele>
        <time>2012-08-09T06:10:15Z</time>
      </trkpt>
      <trkpt lat="44.16444" lon="4.07838">
        <ele>197.3</ele>
        <time>2012-08-09T06:10:20Z</time>
      </trkpt>
      <trkpt lat="44.16443" lon="4.07839">
        <ele>196.8</ele>
        <time>2012-08-09T06:10:25Z</time>
      </trkpt>
      <trkpt lat="44.16443" lon="4.07839">
        <ele>196.8</ele>
        <time>2012-08-09T06:10:30Z</time>
      </trkpt>
      <trkpt lat="44.16443" lon="4.07839">
        <ele>196.8</ele>
        <time>2012-08-09T06:10:35Z</time>
      </trkpt>
      <trkpt lat="44.16443" lon="4.07844">
        <ele>195.1</ele>
        <time>2012-08-09T06:10:40Z</time>
      </trkpt>
      <trkpt lat="44.1643" lon="4.07857">
        <ele>189.5</ele>
        <time>2012-08-09T06:10:45Z</time>
      </trkpt>
      <trkpt lat="44.1641" lon="4.07864">
        <ele>187.6</ele>
        <time>2012-08-09T06:10:50Z</time>
      </trkpt>
      <trkpt lat="44.16385" lon="4.07873">
        <ele>183.8</ele>
        <time>2012-08-09T06:10:55Z</time>
      </trkpt>
      <trkpt lat="44.16369" lon="4.07885">
        <ele>187.8</ele>
        <time>2012-08-09T06:10:59Z</time>
      </trkpt>
      <trkpt lat="44.16349" lon="4.07896">
        <ele>189.3</ele>
        <time>2012-08-09T06:11:03Z</time>
      </trkpt>
      <trkpt lat="44.16343" lon="4.07898">
        <ele>189</ele>
        <time>2012-08-09T06:11:04Z</time>
      </trkpt>
      <trkpt lat="44.16299" lon="4.07935">
        <ele>189.5</ele>
        <time>2012-08-09T06:11:13Z</time>
      </trkpt>
      <trkpt lat="44.16303" lon="4.07969">
        <ele>191.3</ele>
        <time>2012-08-09T06:11:18Z</time>
      </trkpt>
      <trkpt lat="44.1631" lon="4.08008">
        <ele>190.6</ele>
        <time>2012-08-09T06:11:23Z</time>
      </trkpt>
      <trkpt lat="44.16315" lon="4.08051">
        <ele>190.8</ele>
        <time>2012-08-09T06:11:28Z</time>
      </trkpt>
      <trkpt lat="44.16312" lon="4.08096">
        <ele>191.6</ele>
        <time>2012-08-09T06:11:33Z</time>
      </trkpt>
      <trkpt lat="44.16304" lon="4.08152">
        <ele>191.6</ele>
        <time>2012-08-09T06:11:38Z</time>
      </trkpt>
      <trkpt lat="44.16308" lon="4.08203">
        <ele>190</ele>
        <time>2012-08-09T06:11:43Z</time>
      </trkpt>
      <trkpt lat="44.16289" lon="4.08228">
        <ele>189.1</ele>
        <time>2012-08-09T06:11:48Z</time>
      </trkpt>
      <trkpt lat="44.16273" lon="4.08259">
        <ele>187.5</ele>
        <time>2012-08-09T06:11:53Z</time>
      </trkpt>
      <trkpt lat="44.1625" lon="4.08266">
        <ele>185.1</ele>
        <time>2012-08-09T06:11:58Z</time>
      </trkpt>
      <trkpt lat="44.1625" lon="4.08278">
        <ele>183.6</ele>
        <time>2012-08-09T06:12:02Z</time>
      </trkpt>
      <trkpt lat="44.16238" lon="4.08309">
        <ele>178.8</ele>
        <time>2012-08-09T06:12:07Z</time>
      </trkpt>
      <trkpt lat="44.16234" lon="4.08312">
        <ele>178.5</ele>
        <time>2012-08-09T06:12:08Z</time>
      </trkpt>
      <trkpt lat="44.16188" lon="4.08339">
        <ele>176.6</ele>
        <time>2012-08-09T06:12:17Z</time>
      </trkpt>
      <trkpt lat="44.16192" lon="4.08362">
        <ele>175.3</ele>
        <time>2012-08-09T06:12:22Z</time>
      </trkpt>
      <trkpt lat="44.16224" lon="4.08366">
        <ele>175.6</ele>
        <time>2012-08-09T06:12:27Z</time>
      </trkpt>
      <trkpt lat="44.16252" lon="4.08378">
        <ele>176.1</ele>
        <time>2012-08-09T06:12:32Z</time>
      </trkpt>
      <trkpt lat="44.16278" lon="4.08385">
        <ele>176.6</ele>
        <time>2012-08-09T06:12:37Z</time>
      </trkpt>
      <trkpt lat="44.16301" lon="4.0839">
        <ele>176.3</ele>
        <time>2012-08-09T06:12:42Z</time>
      </trkpt>
      <trkpt lat="44.16322" lon="4.08397">
        <ele>176.6</ele>
        <time>2012-08-09T06:12:47Z</time>
      </trkpt>
      <trkpt lat="44.16341" lon="4.08398">
        <ele>178.3</ele>
        <time>2012-08-09T06:12:52Z</time>
      </trkpt>
      <trkpt lat="44.16357" lon="4.08402">
        <ele>179.3</ele>
        <time>2012-08-09T06:12:57Z</time>
      </trkpt>
      <trkpt lat="44.16372" lon="4.08415">
        <ele>179.3</ele>
        <time>2012-08-09T06:13:01Z</time>
      </trkpt>
      <trkpt lat="44.16401" lon="4.08441">
        <ele>178.8</ele>
        <time>2012-08-09T06:13:06Z</time>
      </trkpt>
      <trkpt lat="44.16434" lon="4.08475">
        <ele>177.5</ele>
        <time>2012-08-09T06:13:11Z</time>
      </trkpt>
      <trkpt lat="44.16441" lon="4.08481">
        <ele>177.3</ele>
        <time>2012-08-09T06:13:12Z</time>
      </trkpt>
      <trkpt lat="44.16505" lon="4.08527">
        <ele>175.6</ele>
        <time>2012-08-09T06:13:21Z</time>
      </trkpt>
      <trkpt lat="44.16535" lon="4.08561">
        <ele>175.3</ele>
        <time>2012-08-09T06:13:26Z</time>
      </trkpt>
      <trkpt lat="44.16564" lon="4.08593">
        <ele>173.8</ele>
        <time>2012-08-09T06:13:31Z</time>
      </trkpt>
      <trkpt lat="44.16596" lon="4.08617">
        <ele>173.6</ele>
        <time>2012-08-09T06:13:36Z</time>
      </trkpt>
      <trkpt lat="44.16624" lon="4.08636">
        <ele>173.5</ele>
        <time>2012-08-09T06:13:41Z</time>
      </trkpt>
      <trkpt lat="44.16647" lon="4.08661">
        <ele>172.3</ele>
        <time>2012-08-09T06:13:46Z</time>
      </trkpt>
      <trkpt lat="44.16666" lon="4.08687">
        <ele>171</ele>
        <time>2012-08-09T06:13:51Z</time>
      </trkpt>
      <trkpt lat="44.16685" lon="4.08714">
        <ele>171.1</ele>
        <time>2012-08-09T06:13:56Z</time>
      </trkpt>
      <trkpt lat="44.16698" lon="4.08734">
        <ele>171.3</ele>
        <time>2012-08-09T06:14:00Z</time>
      </trkpt>
      <trkpt lat="44.16713" lon="4.08759">
        <ele>171</ele>
        <time>2012-08-09T06:14:05Z</time>
      </trkpt>
      <trkpt lat="44.1673" lon="4.08775">
        <ele>172.8</ele>
        <time>2012-08-09T06:14:10Z</time>
      </trkpt>
      <trkpt lat="44.16752" lon="4.08767">
        <ele>172.5</ele>
        <time>2012-08-09T06:14:15Z</time>
      </trkpt>
      <trkpt lat="44.16757" lon="4.08768">
        <ele>172.3</ele>
        <time>2012-08-09T06:14:16Z</time>
      </trkpt>
      <trkpt lat="44.16792" lon="4.08796">
        <ele>172.6</ele>
        <time>2012-08-09T06:14:25Z</time>
      </trkpt>
      <trkpt lat="44.16811" lon="4.08813">
        <ele>172.1</ele>
        <time>2012-08-09T06:14:30Z</time>
      </trkpt>
      <trkpt lat="44.1683" lon="4.08832">
        <ele>173</ele>
        <time>2012-08-09T06:14:35Z</time>
      </trkpt>
      <trkpt lat="44.16849" lon="4.0885">
        <ele>173.8</ele>
        <time>2012-08-09T06:14:40Z</time>
      </trkpt>
      <trkpt lat="44.16869" lon="4.08868">
        <ele>174.3</ele>
        <time>2012-08-09T06:14:45Z</time>
      </trkpt>
      <trkpt lat="44.16889" lon="4.08883">
        <ele>174</ele>
        <time>2012-08-09T06:14:50Z</time>
      </trkpt>
      <trkpt lat="44.16911" lon="4.08895">
        <ele>174.1</ele>
        <time>2012-08-09T06:14:55Z</time>
      </trkpt>
      <trkpt lat="44.16929" lon="4.08902">
        <ele>174.6</ele>
        <time>2012-08-09T06:14:59Z</time>
      </trkpt>
      <trkpt lat="44.1695" lon="4.08905">
        <ele>174.8</ele>
        <time>2012-08-09T06:15:03Z</time>
      </trkpt>
      <trkpt lat="44.16974" lon="4.08909">
        <ele>175</ele>
        <time>2012-08-09T06:15:08Z</time>
      </trkpt>
      <trkpt lat="44.16998" lon="4.08912">
        <ele>175.1</ele>
        <time>2012-08-09T06:15:13Z</time>
      </trkpt>
      <trkpt lat="44.1702" lon="4.08913">
        <ele>174.3</ele>
        <time>2012-08-09T06:15:18Z</time>
      </trkpt>
      <trkpt lat="44.17024" lon="4.08913">
        <ele>174</ele>
        <time>2012-08-09T06:15:19Z</time>
      </trkpt>
      <trkpt lat="44.17055" lon="4.08917">
        <ele>173.3</ele>
        <time>2012-08-09T06:15:28Z</time>
      </trkpt>
      <trkpt lat="44.17072" lon="4.08917">
        <ele>173.8</ele>
        <time>2012-08-09T06:15:33Z</time>
      </trkpt>
      <trkpt lat="44.17089" lon="4.08918">
        <ele>174</ele>
        <time>2012-08-09T06:15:38Z</time>
      </trkpt>
      <trkpt lat="44.17107" lon="4.08919">
        <ele>174.6</ele>
        <time>2012-08-09T06:15:43Z</time>
      </trkpt>
      <trkpt lat="44.17127" lon="4.08918">
        <ele>175.3</ele>
        <time>2012-08-09T06:15:48Z</time>
      </trkpt>
      <trkpt lat="44.17147" lon="4.08912">
        <ele>175.1</ele>
        <time>2012-08-09T06:15:53Z</time>
      </trkpt>
      <trkpt lat="44.17166" lon="4.08901">
        <ele>175.1</ele>
        <time>2012-08-09T06:15:58Z</time>
      </trkpt>
      <trkpt lat="44.17182" lon="4.08889">
        <ele>175.8</ele>
        <time>2012-08-09T06:16:02Z</time>
      </trkpt>
      <trkpt lat="44.172" lon="4.08874">
        <ele>176.5</ele>
        <time>2012-08-09T06:16:07Z</time>
      </trkpt>
      <trkpt lat="44.17219" lon="4.08861">
        <ele>177.1</ele>
        <time>2012-08-09T06:16:12Z</time>
      </trkpt>
      <trkpt lat="44.1724" lon="4.08852">
        <ele>177.3</ele>
        <time>2012-08-09T06:16:17Z</time>
      </trkpt>
      <trkpt lat="44.17262" lon="4.08844">
        <ele>177.1</ele>
        <time>2012-08-09T06:16:22Z</time>
      </trkpt>
      <trkpt lat="44.17267" lon="4.08842">
        <ele>177.1</ele>
        <time>2012-08-09T06:16:23Z</time>
      </trkpt>
      <trkpt lat="44.17308" lon="4.08826">
        <ele>176.8</ele>
        <time>2012-08-09T06:16:32Z</time>
      </trkpt>
      <trkpt lat="44.17331" lon="4.08822">
        <ele>177.6</ele>
        <time>2012-08-09T06:16:37Z</time>
      </trkpt>
      <trkpt lat="44.17353" lon="4.08824">
        <ele>177.6</ele>
        <time>2012-08-09T06:16:42Z</time>
      </trkpt>
      <trkpt lat="44.17376" lon="4.08829">
        <ele>178.1</ele>
        <time>2012-08-09T06:16:47Z</time>
      </trkpt>
      <trkpt lat="44.17399" lon="4.08834">
        <ele>178.8</ele>
        <time>2012-08-09T06:16:52Z</time>
      </trkpt>
      <trkpt lat="44.17421" lon="4.08845">
        <ele>179</ele>
        <time>2012-08-09T06:16:57Z</time>
      </trkpt>
      <trkpt lat="44.17435" lon="4.0886">
        <ele>178.3</ele>
        <time>2012-08-09T06:17:01Z</time>
      </trkpt>
      <trkpt lat="44.17455" lon="4.08879">
        <ele>178.3</ele>
        <time>2012-08-09T06:17:06Z</time>
      </trkpt>
      <trkpt lat="44.17473" lon="4.08898">
        <ele>178.1</ele>
        <time>2012-08-09T06:17:11Z</time>
      </trkpt>
      <trkpt lat="44.1749" lon="4.08916">
        <ele>179</ele>
        <time>2012-08-09T06:17:16Z</time>
      </trkpt>
      <trkpt lat="44.17508" lon="4.08931">
        <ele>179.3</ele>
        <time>2012-08-09T06:17:21Z</time>
      </trkpt>
      <trkpt lat="44.17529" lon="4.08942">
        <ele>179.3</ele>
        <time>2012-08-09T06:17:26Z</time>
      </trkpt>
      <trkpt lat="44.17533" lon="4.08945">
        <ele>179.3</ele>
        <time>2012-08-09T06:17:27Z</time>
      </trkpt>
      <trkpt lat="44.1757" lon="4.08968">
        <ele>180</ele>
        <time>2012-08-09T06:17:36Z</time>
      </trkpt>
      <trkpt lat="44.17588" lon="4.08981">
        <ele>180.3</ele>
        <time>2012-08-09T06:17:41Z</time>
      </trkpt>
      <trkpt lat="44.17603" lon="4.08997">
        <ele>180.1</ele>
        <time>2012-08-09T06:17:46Z</time>
      </trkpt>
      <trkpt lat="44.17618" lon="4.09014">
        <ele>180.5</ele>
        <time>2012-08-09T06:17:51Z</time>
      </trkpt>
      <trkpt lat="44.17634" lon="4.09027">
        <ele>181</ele>
        <time>2012-08-09T06:17:56Z</time>
      </trkpt>
      <trkpt lat="44.17648" lon="4.09035">
        <ele>181.1</ele>
        <time>2012-08-09T06:18:00Z</time>
      </trkpt>
      <trkpt lat="44.17667" lon="4.09041">
        <ele>182</ele>
        <time>2012-08-09T06:18:05Z</time>
      </trkpt>
      <trkpt lat="44.17685" lon="4.09048">
        <ele>182</ele>
        <time>2012-08-09T06:18:10Z</time>
      </trkpt>
      <trkpt lat="44.17703" lon="4.09056">
        <ele>182</ele>
        <time>2012-08-09T06:18:15Z</time>
      </trkpt>
      <trkpt lat="44.17719" lon="4.09064">
        <ele>182.6</ele>
        <time>2012-08-09T06:18:20Z</time>
      </trkpt>
      <trkpt lat="44.17735" lon="4.09071">
        <ele>183.3</ele>
        <time>2012-08-09T06:18:25Z</time>
      </trkpt>
      <trkpt lat="44.17751" lon="4.0907">
        <ele>183.6</ele>
        <time>2012-08-09T06:18:30Z</time>
      </trkpt>
      <trkpt lat="44.17755" lon="4.09069">
        <ele>183.5</ele>
        <time>2012-08-09T06:18:31Z</time>
      </trkpt>
      <trkpt lat="44.17783" lon="4.0906">
        <ele>185.1</ele>
        <time>2012-08-09T06:18:40Z</time>
      </trkpt>
      <trkpt lat="44.17796" lon="4.09055">
        <ele>185.8</ele>
        <time>2012-08-09T06:18:45Z</time>
      </trkpt>
      <trkpt lat="44.17808" lon="4.09053">
        <ele>186.6</ele>
        <time>2012-08-09T06:18:50Z</time>
      </trkpt>
      <trkpt lat="44.17819" lon="4.09063">
        <ele>186.8</ele>
        <time>2012-08-09T06:18:55Z</time>
      </trkpt>
      <trkpt lat="44.17825" lon="4.09072">
        <ele>187.6</ele>
        <time>2012-08-09T06:18:59Z</time>
      </trkpt>
      <trkpt lat="44.17832" lon="4.09081">
        <ele>188.1</ele>
        <time>2012-08-09T06:19:03Z</time>
      </trkpt>
      <trkpt lat="44.17842" lon="4.0909">
        <ele>188.6</ele>
        <time>2012-08-09T06:19:08Z</time>
      </trkpt>
      <trkpt lat="44.17853" lon="4.09097">
        <ele>189.6</ele>
        <time>2012-08-09T06:19:13Z</time>
      </trkpt>
      <trkpt lat="44.17864" lon="4.09106">
        <ele>190.1</ele>
        <time>2012-08-09T06:19:18Z</time>
      </trkpt>
      <trkpt lat="44.17872" lon="4.0912">
        <ele>190.3</ele>
        <time>2012-08-09T06:19:23Z</time>
      </trkpt>
      <trkpt lat="44.17884" lon="4.09134">
        <ele>190.3</ele>
        <time>2012-08-09T06:19:28Z</time>
      </trkpt>
      <trkpt lat="44.17895" lon="4.09146">
        <ele>190.6</ele>
        <time>2012-08-09T06:19:33Z</time>
      </trkpt>
      <trkpt lat="44.17897" lon="4.09147">
        <ele>191</ele>
        <time>2012-08-09T06:19:34Z</time>
      </trkpt>
      <trkpt lat="44.17921" lon="4.09168">
        <ele>191.3</ele>
        <time>2012-08-09T06:19:43Z</time>
      </trkpt>
      <trkpt lat="44.17943" lon="4.09167">
        <ele>191.6</ele>
        <time>2012-08-09T06:19:48Z</time>
      </trkpt>
      <trkpt lat="44.17959" lon="4.0916">
        <ele>192.6</ele>
        <time>2012-08-09T06:19:53Z</time>
      </trkpt>
      <trkpt lat="44.17973" lon="4.09168">
        <ele>193</ele>
        <time>2012-08-09T06:19:58Z</time>
      </trkpt>
      <trkpt lat="44.1798" lon="4.09187">
        <ele>194.1</ele>
        <time>2012-08-09T06:20:02Z</time>
      </trkpt>
      <trkpt lat="44.17992" lon="4.09209">
        <ele>195.1</ele>
        <time>2012-08-09T06:20:07Z</time>
      </trkpt>
      <trkpt lat="44.18004" lon="4.09226">
        <ele>195.3</ele>
        <time>2012-08-09T06:20:12Z</time>
      </trkpt>
      <trkpt lat="44.18018" lon="4.09241">
        <ele>196.5</ele>
        <time>2012-08-09T06:20:17Z</time>
      </trkpt>
      <trkpt lat="44.18034" lon="4.09254">
        <ele>197.8</ele>
        <time>2012-08-09T06:20:22Z</time>
      </trkpt>
      <trkpt lat="44.18049" lon="4.09262">
        <ele>199</ele>
        <time>2012-08-09T06:20:27Z</time>
      </trkpt>
      <trkpt lat="44.18064" lon="4.0927">
        <ele>199.3</ele>
        <time>2012-08-09T06:20:32Z</time>
      </trkpt>
      <trkpt lat="44.1808" lon="4.09277">
        <ele>200.3</ele>
        <time>2012-08-09T06:20:37Z</time>
      </trkpt>
      <trkpt lat="44.18084" lon="4.09279">
        <ele>200.1</ele>
        <time>2012-08-09T06:20:38Z</time>
      </trkpt>
      <trkpt lat="44.18118" lon="4.09307">
        <ele>200.3</ele>
        <time>2012-08-09T06:20:47Z</time>
      </trkpt>
      <trkpt lat="44.18141" lon="4.09325">
        <ele>200.6</ele>
        <time>2012-08-09T06:20:52Z</time>
      </trkpt>
      <trkpt lat="44.1816" lon="4.09339">
        <ele>201.8</ele>
        <time>2012-08-09T06:20:57Z</time>
      </trkpt>
      <trkpt lat="44.18172" lon="4.09349">
        <ele>202.3</ele>
        <time>2012-08-09T06:21:01Z</time>
      </trkpt>
      <trkpt lat="44.18188" lon="4.09361">
        <ele>203.8</ele>
        <time>2012-08-09T06:21:06Z</time>
      </trkpt>
      <trkpt lat="44.18204" lon="4.09374">
        <ele>204.5</ele>
        <time>2012-08-09T06:21:11Z</time>
      </trkpt>
      <trkpt lat="44.18224" lon="4.09389">
        <ele>205.3</ele>
        <time>2012-08-09T06:21:16Z</time>
      </trkpt>
      <trkpt lat="44.18243" lon="4.09407">
        <ele>206.5</ele>
        <time>2012-08-09T06:21:21Z</time>
      </trkpt>
      <trkpt lat="44.18261" lon="4.09427">
        <ele>207.6</ele>
        <time>2012-08-09T06:21:26Z</time>
      </trkpt>
      <trkpt lat="44.18278" lon="4.09445">
        <ele>208.1</ele>
        <time>2012-08-09T06:21:31Z</time>
      </trkpt>
      <trkpt lat="44.18294" lon="4.09462">
        <ele>209.1</ele>
        <time>2012-08-09T06:21:36Z</time>
      </trkpt>
      <trkpt lat="44.1831" lon="4.09479">
        <ele>209.6</ele>
        <time>2012-08-09T06:21:41Z</time>
      </trkpt>
      <trkpt lat="44.18313" lon="4.09482">
        <ele>209.8</ele>
        <time>2012-08-09T06:21:42Z</time>
      </trkpt>
      <trkpt lat="44.18346" lon="4.09509">
        <ele>210</ele>
        <time>2012-08-09T06:21:51Z</time>
      </trkpt>
      <trkpt lat="44.18366" lon="4.09528">
        <ele>210.5</ele>
        <time>2012-08-09T06:21:56Z</time>
      </trkpt>
      <trkpt lat="44.1838" lon="4.09542">
        <ele>210.5</ele>
        <time>2012-08-09T06:22:00Z</time>
      </trkpt>
      <trkpt lat="44.18396" lon="4.09559">
        <ele>210.6</ele>
        <time>2012-08-09T06:22:05Z</time>
      </trkpt>
      <trkpt lat="44.18412" lon="4.09571">
        <ele>211.5</ele>
        <time>2012-08-09T06:22:10Z</time>
      </trkpt>
      <trkpt lat="44.18424" lon="4.09584">
        <ele>212.1</ele>
        <time>2012-08-09T06:22:15Z</time>
      </trkpt>
      <trkpt lat="44.18436" lon="4.09594">
        <ele>213.1</ele>
        <time>2012-08-09T06:22:20Z</time>
      </trkpt>
      <trkpt lat="44.18447" lon="4.09606">
        <ele>213.1</ele>
        <time>2012-08-09T06:22:25Z</time>
      </trkpt>
      <trkpt lat="44.18459" lon="4.09619">
        <ele>213.6</ele>
        <time>2012-08-09T06:22:30Z</time>
      </trkpt>
      <trkpt lat="44.18465" lon="4.09634">
        <ele>214.8</ele>
        <time>2012-08-09T06:22:35Z</time>
      </trkpt>
      <trkpt lat="44.18466" lon="4.09636">
        <ele>214.6</ele>
        <time>2012-08-09T06:22:40Z</time>
      </trkpt>
      <trkpt lat="44.18466" lon="4.09636">
        <ele>214.6</ele>
        <time>2012-08-09T06:22:45Z</time>
      </trkpt>
      <trkpt lat="44.18466" lon="4.09636">
        <ele>214.6</ele>
        <time>2012-08-09T06:22:46Z</time>
      </trkpt>
      <trkpt lat="44.18466" lon="4.09636">
        <ele>214.6</ele>
        <time>2012-08-09T06:22:55Z</time>
      </trkpt>
      <trkpt lat="44.18466" lon="4.09636">
        <ele>214.6</ele>
        <time>2012-08-09T06:22:59Z</time>
      </trkpt>
      <trkpt lat="44.18466" lon="4.09636">
        <ele>214.6</ele>
        <time>2012-08-09T06:23:03Z</time>
      </trkpt>
      <trkpt lat="44.18466" lon="4.09636">
        <ele>214.6</ele>
        <time>2012-08-09T06:23:08Z</time>
      </trkpt>
      <trkpt lat="44.18466" lon="4.09636">
        <ele>214.6</ele>
        <time>2012-08-09T06:23:13Z</time>
      </trkpt>
      <trkpt lat="44.18466" lon="4.09636">
        <ele>214.6</ele>
        <time>2012-08-09T06:23:18Z</time>
      </trkpt>
      <trkpt lat="44.18466" lon="4.09636">
        <ele>214.6</ele>
        <time>2012-08-09T06:23:23Z</time>
      </trkpt>
      <trkpt lat="44.18466" lon="4.09636">
        <ele>214.6</ele>
        <time>2012-08-09T06:23:28Z</time>
      </trkpt>
      <trkpt lat="44.18466" lon="4.09636">
        <ele>214.6</ele>
        <time>2012-08-09T06:23:33Z</time>
      </trkpt>
      <trkpt lat="44.18466" lon="4.09636">
        <ele>214.6</ele>
        <time>2012-08-09T06:23:38Z</time>
      </trkpt>
      <trkpt lat="44.18466" lon="4.09636">
        <ele>214.6</ele>
        <time>2012-08-09T06:23:43Z</time>
      </trkpt>
      <trkpt lat="44.18466" lon="4.09636">
        <ele>215.1</ele>
        <time>2012-08-09T06:23:48Z</time>
      </trkpt>
      <trkpt lat="44.18466" lon="4.09636">
        <ele>215.1</ele>
        <time>2012-08-09T06:23:49Z</time>
      </trkpt>
      <trkpt lat="44.18466" lon="4.09636">
        <ele>217</ele>
        <time>2012-08-09T06:23:58Z</time>
      </trkpt>
      <trkpt lat="44.18466" lon="4.09636">
        <ele>217</ele>
        <time>2012-08-09T06:24:02Z</time>
      </trkpt>
      <trkpt lat="44.18466" lon="4.09636">
        <ele>217</ele>
        <time>2012-08-09T06:24:07Z</time>
      </trkpt>
      <trkpt lat="44.18466" lon="4.09636">
        <ele>217</ele>
        <time>2012-08-09T06:24:12Z</time>
      </trkpt>
      <trkpt lat="44.18466" lon="4.09636">
        <ele>217</ele>
        <time>2012-08-09T06:24:17Z</time>
      </trkpt>
      <trkpt lat="44.18466" lon="4.09636">
        <ele>217</ele>
        <time>2012-08-09T06:24:22Z</time>
      </trkpt>
      <trkpt lat="44.18465" lon="4.0964">
        <ele>216.5</ele>
        <time>2012-08-09T06:24:27Z</time>
      </trkpt>
      <trkpt lat="44.18453" lon="4.09645">
        <ele>215.6</ele>
        <time>2012-08-09T06:24:32Z</time>
      </trkpt>
      <trkpt lat="44.18431" lon="4.09659">
        <ele>215.5</ele>
        <time>2012-08-09T06:24:37Z</time>
      </trkpt>
      <trkpt lat="44.18407" lon="4.09673">
        <ele>214.5</ele>
        <time>2012-08-09T06:24:42Z</time>
      </trkpt>
      <trkpt lat="44.18386" lon="4.09686">
        <ele>214.6</ele>
        <time>2012-08-09T06:24:47Z</time>
      </trkpt>
      <trkpt lat="44.18375" lon="4.09693">
        <ele>215.1</ele>
        <time>2012-08-09T06:24:52Z</time>
      </trkpt>
      <trkpt lat="44.18375" lon="4.09693">
        <ele>214.6</ele>
        <time>2012-08-09T06:24:53Z</time>
      </trkpt>
      <trkpt lat="44.18375" lon="4.09693">
        <ele>214.6</ele>
        <time>2012-08-09T06:25:01Z</time>
      </trkpt>
      <trkpt lat="44.18374" lon="4.09693">
        <ele>214.3</ele>
        <time>2012-08-09T06:25:06Z</time>
      </trkpt>
      <trkpt lat="44.18374" lon="4.09693">
        <ele>214.1</ele>
        <time>2012-08-09T06:25:11Z</time>
      </trkpt>
      <trkpt lat="44.18374" lon="4.09693">
        <ele>214.1</ele>
        <time>2012-08-09T06:25:16Z</time>
      </trkpt>
      <trkpt lat="44.18374" lon="4.09693">
        <ele>214.1</ele>
        <time>2012-08-09T06:25:21Z</time>
      </trkpt>
      <trkpt lat="44.18373" lon="4.09695">
        <ele>214.3</ele>
        <time>2012-08-09T06:25:26Z</time>
      </trkpt>
      <trkpt lat="44.18363" lon="4.09703">
        <ele>214</ele>
        <time>2012-08-09T06:25:31Z</time>
      </trkpt>
      <trkpt lat="44.18344" lon="4.09716">
        <ele>214.1</ele>
        <time>2012-08-09T06:25:36Z</time>
      </trkpt>
      <trkpt lat="44.18324" lon="4.09739">
        <ele>212.8</ele>
        <time>2012-08-09T06:25:41Z</time>
      </trkpt>
      <trkpt lat="44.18306" lon="4.09767">
        <ele>212.1</ele>
        <time>2012-08-09T06:25:46Z</time>
      </trkpt>
      <trkpt lat="44.18288" lon="4.09802">
        <ele>210.5</ele>
        <time>2012-08-09T06:25:51Z</time>
      </trkpt>
      <trkpt lat="44.18266" lon="4.09836">
        <ele>209.6</ele>
        <time>2012-08-09T06:25:56Z</time>
      </trkpt>
      <trkpt lat="44.18261" lon="4.09843">
        <ele>209.3</ele>
        <time>2012-08-09T06:25:57Z</time>
      </trkpt>
      <trkpt lat="44.18225" lon="4.09897">
        <ele>209.3</ele>
        <time>2012-08-09T06:26:05Z</time>
      </trkpt>
      <trkpt lat="44.18201" lon="4.09927">
        <ele>208.8</ele>
        <time>2012-08-09T06:26:10Z</time>
      </trkpt>
      <trkpt lat="44.18163" lon="4.09944">
        <ele>208.3</ele>
        <time>2012-08-09T06:26:15Z</time>
      </trkpt>
      <trkpt lat="44.18119" lon="4.09956">
        <ele>207</ele>
        <time>2012-08-09T06:26:20Z</time>
      </trkpt>
      <trkpt lat="44.18075" lon="4.09967">
        <ele>205.1</ele>
        <time>2012-08-09T06:26:25Z</time>
      </trkpt>
      <trkpt lat="44.18038" lon="4.09982">
        <ele>203</ele>
        <time>2012-08-09T06:26:30Z</time>
      </trkpt>
      <trkpt lat="44.18039" lon="4.10028">
        <ele>201.3</ele>
        <time>2012-08-09T06:26:35Z</time>
      </trkpt>
      <trkpt lat="44.18049" lon="4.10074">
        <ele>199.6</ele>
        <time>2012-08-09T06:26:40Z</time>
      </trkpt>
      <trkpt lat="44.18058" lon="4.1012">
        <ele>197.8</ele>
        <time>2012-08-09T06:26:45Z</time>
      </trkpt>
      <trkpt lat="44.18064" lon="4.10164">
        <ele>196.5</ele>
        <time>2012-08-09T06:26:50Z</time>
      </trkpt>
      <trkpt lat="44.1807" lon="4.10201">
        <ele>196.1</ele>
        <time>2012-08-09T06:26:55Z</time>
      </trkpt>
      <trkpt lat="44.18075" lon="4.10229">
        <ele>196</ele>
        <time>2012-08-09T06:26:59Z</time>
      </trkpt>
      <trkpt lat="44.18076" lon="4.10237">
        <ele>196.1</ele>
        <time>2012-08-09T06:27:00Z</time>
      </trkpt>
      <trkpt lat="44.18085" lon="4.10291">
        <ele>196.8</ele>
        <time>2012-08-09T06:27:08Z</time>
      </trkpt>
      <trkpt lat="44.18091" lon="4.10324">
        <ele>197.3</ele>
        <time>2012-08-09T06:27:13Z</time>
      </trkpt>
      <trkpt lat="44.18097" lon="4.10358">
        <ele>197.8</ele>
        <time>2012-08-09T06:27:18Z</time>
      </trkpt>
      <trkpt lat="44.18102" lon="4.10389">
        <ele>198.8</ele>
        <time>2012-08-09T06:27:23Z</time>
      </trkpt>
      <trkpt lat="44.18107" lon="4.10418">
        <ele>199.8</ele>
        <time>2012-08-09T06:27:28Z</time>
      </trkpt>
      <trkpt lat="44.1811" lon="4.10441">
        <ele>201.8</ele>
        <time>2012-08-09T06:27:33Z</time>
      </trkpt>
      <trkpt lat="44.18124" lon="4.10451">
        <ele>203.3</ele>
        <time>2012-08-09T06:27:38Z</time>
      </trkpt>
      <trkpt lat="44.18144" lon="4.10445">
        <ele>204.1</ele>
        <time>2012-08-09T06:27:43Z</time>
      </trkpt>
      <trkpt lat="44.18164" lon="4.10441">
        <ele>204.6</ele>
        <time>2012-08-09T06:27:48Z</time>
      </trkpt>
      <trkpt lat="44.18185" lon="4.10441">
        <ele>204.1</ele>
        <time>2012-08-09T06:27:53Z</time>
      </trkpt>
      <trkpt lat="44.18206" lon="4.10444">
        <ele>204.5</ele>
        <time>2012-08-09T06:27:58Z</time>
      </trkpt>
      <trkpt lat="44.18222" lon="4.10444">
        <ele>205.6</ele>
        <time>2012-08-09T06:28:02Z</time>
      </trkpt>
      <trkpt lat="44.18226" lon="4.10444">
        <ele>205.6</ele>
        <time>2012-08-09T06:28:03Z</time>
      </trkpt>
      <trkpt lat="44.18263" lon="4.1044">
        <ele>205.5</ele>
        <time>2012-08-09T06:28:12Z</time>
      </trkpt>
      <trkpt lat="44.18287" lon="4.10437">
        <ele>205.6</ele>
        <time>2012-08-09T06:28:17Z</time>
      </trkpt>
      <trkpt lat="44.18312" lon="4.1044">
        <ele>205.8</ele>
        <time>2012-08-09T06:28:22Z</time>
      </trkpt>
      <trkpt lat="44.18337" lon="4.10448">
        <ele>206.1</ele>
        <time>2012-08-09T06:28:27Z</time>
      </trkpt>
      <trkpt lat="44.1836" lon="4.10461">
        <ele>205.5</ele>
        <time>2012-08-09T06:28:32Z</time>
      </trkpt>
      <trkpt lat="44.18381" lon="4.10473">
        <ele>205.8</ele>
        <time>2012-08-09T06:28:37Z</time>
      </trkpt>
      <trkpt lat="44.18393" lon="4.10449">
        <ele>204.8</ele>
        <time>2012-08-09T06:28:42Z</time>
      </trkpt>
      <trkpt lat="44.18407" lon="4.10429">
        <ele>204.8</ele>
        <time>2012-08-09T06:28:47Z</time>
      </trkpt>
      <trkpt lat="44.18426" lon="4.10431">
        <ele>205.1</ele>
        <time>2012-08-09T06:28:52Z</time>
      </trkpt>
      <trkpt lat="44.18447" lon="4.10434">
        <ele>206.1</ele>
        <time>2012-08-09T06:28:57Z</time>
      </trkpt>
      <trkpt lat="44.18463" lon="4.10431">
        <ele>206.1</ele>
        <time>2012-08-09T06:29:01Z</time>
      </trkpt>
      <trkpt lat="44.18485" lon="4.10426">
        <ele>206.5</ele>
        <time>2012-08-09T06:29:06Z</time>
      </trkpt>
      <trkpt lat="44.18489" lon="4.10426">
        <ele>206.3</ele>
        <time>2012-08-09T06:29:07Z</time>
      </trkpt>
      <trkpt lat="44.18528" lon="4.10427">
        <ele>206.1</ele>
        <time>2012-08-09T06:29:16Z</time>
      </trkpt>
      <trkpt lat="44.18548" lon="4.1043">
        <ele>206</ele>
        <time>2012-08-09T06:29:21Z</time>
      </trkpt>
      <trkpt lat="44.18567" lon="4.10442">
        <ele>205.3</ele>
        <time>2012-08-09T06:29:26Z</time>
      </trkpt>
      <trkpt lat="44.18587" lon="4.10459">
        <ele>205.1</ele>
        <time>2012-08-09T06:29:31Z</time>
      </trkpt>
      <trkpt lat="44.18607" lon="4.10478">
        <ele>205.3</ele>
        <time>2012-08-09T06:29:36Z</time>
      </trkpt>
      <trkpt lat="44.18625" lon="4.10498">
        <ele>205.3</ele>
        <time>2012-08-09T06:29:41Z</time>
      </trkpt>
      <trkpt lat="44.18642" lon="4.10515">
        <ele>205.3</ele>
        <time>2012-08-09T06:29:46Z</time>
      </trkpt>
      <trkpt lat="44.18644" lon="4.10517">
        <ele>205.6</ele>
        <time>2012-08-09T06:29:51Z</time>
      </trkpt>
      <trkpt lat="44.18644" lon="4.10517">
        <ele>205.6</ele>
        <time>2012-08-09T06:29:56Z</time>
      </trkpt>
      <trkpt lat="44.18644" lon="4.10517">
        <ele>205.6</ele>
        <time>2012-08-09T06:30:00Z</time>
      </trkpt>
      <trkpt lat="44.18644" lon="4.10517">
        <ele>205.6</ele>
        <time>2012-08-09T06:30:05Z</time>
      </trkpt>
      <trkpt lat="44.18644" lon="4.10517">
        <ele>205.6</ele>
        <time>2012-08-09T06:30:10Z</time>
      </trkpt>
      <trkpt lat="44.18644" lon="4.10517">
        <ele>205.6</ele>
        <time>2012-08-09T06:30:11Z</time>
      </trkpt>
      <trkpt lat="44.18664" lon="4.10534">
        <ele>205.3</ele>
        <time>2012-08-09T06:30:20Z</time>
      </trkpt>
      <trkpt lat="44.18681" lon="4.1055">
        <ele>206.1</ele>
        <time>2012-08-09T06:30:25Z</time>
      </trkpt>
      <trkpt lat="44.18699" lon="4.10568">
        <ele>205.6</ele>
        <time>2012-08-09T06:30:30Z</time>
      </trkpt>
      <trkpt lat="44.18719" lon="4.10585">
        <ele>206.1</ele>
        <time>2012-08-09T06:30:35Z</time>
      </trkpt>
      <trkpt lat="44.18739" lon="4.10604">
        <ele>206.5</ele>
        <time>2012-08-09T06:30:40Z</time>
      </trkpt>
      <trkpt lat="44.1876" lon="4.10621">
        <ele>207.1</ele>
        <time>2012-08-09T06:30:45Z</time>
      </trkpt>
      <trkpt lat="44.18777" lon="4.1064">
        <ele>207.3</ele>
        <time>2012-08-09T06:30:50Z</time>
      </trkpt>
      <trkpt lat="44.18794" lon="4.10659">
        <ele>207.5</ele>
        <time>2012-08-09T06:30:55Z</time>
      </trkpt>
      <trkpt lat="44.18811" lon="4.10668">
        <ele>208</ele>
        <time>2012-08-09T06:30:59Z</time>
      </trkpt>
      <trkpt lat="44.18829" lon="4.10677">
        <ele>207.8</ele>
        <time>2012-08-09T06:31:03Z</time>
      </trkpt>
      <trkpt lat="44.18854" lon="4.10689">
        <ele>208.8</ele>
        <time>2012-08-09T06:31:08Z</time>
      </trkpt>
      <trkpt lat="44.18876" lon="4.107">
        <ele>208.6</ele>
        <time>2012-08-09T06:31:13Z</time>
      </trkpt>
      <trkpt lat="44.18881" lon="4.10702">
        <ele>208.5</ele>
        <time>2012-08-09T06:31:14Z</time>
      </trkpt>
      <trkpt lat="44.18916" lon="4.10715">
        <ele>210.3</ele>
        <time>2012-08-09T06:31:23Z</time>
      </trkpt>
      <trkpt lat="44.18932" lon="4.10716">
        <ele>211.1</ele>
        <time>2012-08-09T06:31:28Z</time>
      </trkpt>
      <trkpt lat="44.18946" lon="4.10714">
        <ele>212.1</ele>
        <time>2012-08-09T06:31:33Z</time>
      </trkpt>
      <trkpt lat="44.18957" lon="4.10711">
        <ele>213.1</ele>
        <time>2012-08-09T06:31:38Z</time>
      </trkpt>
      <trkpt lat="44.18966" lon="4.10707">
        <ele>214.1</ele>
        <time>2012-08-09T06:31:43Z</time>
      </trkpt>
      <trkpt lat="44.18976" lon="4.10702">
        <ele>216</ele>
        <time>2012-08-09T06:31:48Z</time>
      </trkpt>
      <trkpt lat="44.18984" lon="4.10695">
        <ele>217</ele>
        <time>2012-08-09T06:31:53Z</time>
      </trkpt>
      <trkpt lat="44.18991" lon="4.10693">
        <ele>218</ele>
        <time>2012-08-09T06:31:58Z</time>
      </trkpt>
      <trkpt lat="44.18995" lon="4.10701">
        <ele>218.3</ele>
        <time>2012-08-09T06:32:02Z</time>
      </trkpt>
      <trkpt lat="44.18998" lon="4.10719">
        <ele>218.8</ele>
        <time>2012-08-09T06:32:07Z</time>
      </trkpt>
      <trkpt lat="44.1899" lon="4.10736">
        <ele>219.1</ele>
        <time>2012-08-09T06:32:12Z</time>
      </trkpt>
      <trkpt lat="44.18985" lon="4.10752">
        <ele>219</ele>
        <time>2012-08-09T06:32:17Z</time>
      </trkpt>
      <trkpt lat="44.18985" lon="4.10757">
        <ele>219</ele>
        <time>2012-08-09T06:32:18Z</time>
      </trkpt>
      <trkpt lat="44.1899" lon="4.10793">
        <ele>218.3</ele>
        <time>2012-08-09T06:32:27Z</time>
      </trkpt>
      <trkpt lat="44.18995" lon="4.10812">
        <ele>217.5</ele>
        <time>2012-08-09T06:32:32Z</time>
      </trkpt>
      <trkpt lat="44.18999" lon="4.10827">
        <ele>217.3</ele>
        <time>2012-08-09T06:32:37Z</time>
      </trkpt>
      <trkpt lat="44.18999" lon="4.10827">
        <ele>217.3</ele>
        <time>2012-08-09T06:32:42Z</time>
      </trkpt>
      <trkpt lat="44.18999" lon="4.10827">
        <ele>217.3</ele>
        <time>2012-08-09T06:32:47Z</time>
      </trkpt>
      <trkpt lat="44.18999" lon="4.10827">
        <ele>217.3</ele>
        <time>2012-08-09T06:32:52Z</time>
      </trkpt>
      <trkpt lat="44.18999" lon="4.10827">
        <ele>217.3</ele>
        <time>2012-08-09T06:32:57Z</time>
      </trkpt>
      <trkpt lat="44.18999" lon="4.10827">
        <ele>217.3</ele>
        <time>2012-08-09T06:33:01Z</time>
      </trkpt>
      <trkpt lat="44.19" lon="4.10831">
        <ele>217.8</ele>
        <time>2012-08-09T06:33:06Z</time>
      </trkpt>
      <trkpt lat="44.19003" lon="4.10851">
        <ele>217.5</ele>
        <time>2012-08-09T06:33:11Z</time>
      </trkpt>
      <trkpt lat="44.19013" lon="4.10875">
        <ele>218.1</ele>
        <time>2012-08-09T06:33:16Z</time>
      </trkpt>
      <trkpt lat="44.19027" lon="4.109">
        <ele>218.6</ele>
        <time>2012-08-09T06:33:21Z</time>
      </trkpt>
      <trkpt lat="44.1903" lon="4.10906">
        <ele>218.6</ele>
        <time>2012-08-09T06:33:22Z</time>
      </trkpt>
      <trkpt lat="44.19049" lon="4.10945">
        <ele>219</ele>
        <time>2012-08-09T06:33:31Z</time>
      </trkpt>
      <trkpt lat="44.19054" lon="4.10952">
        <ele>219.1</ele>
        <time>2012-08-09T06:33:36Z</time>
      </trkpt>
      <trkpt lat="44.19054" lon="4.10953">
        <ele>219.1</ele>
        <time>2012-08-09T06:33:41Z</time>
      </trkpt>
      <trkpt lat="44.19057" lon="4.10955">
        <ele>219.1</ele>
        <time>2012-08-09T06:33:46Z</time>
      </trkpt>
      <trkpt lat="44.19057" lon="4.10955">
        <ele>219.1</ele>
        <time>2012-08-09T06:33:51Z</time>
      </trkpt>
      <trkpt lat="44.19057" lon="4.10955">
        <ele>219.1</ele>
        <time>2012-08-09T06:33:56Z</time>
      </trkpt>
      <trkpt lat="44.19057" lon="4.10955">
        <ele>218.8</ele>
        <time>2012-08-09T06:34:00Z</time>
      </trkpt>
      <trkpt lat="44.19057" lon="4.10955">
        <ele>218.8</ele>
        <time>2012-08-09T06:34:05Z</time>
      </trkpt>
      <trkpt lat="44.19056" lon="4.10954">
        <ele>218.6</ele>
        <time>2012-08-09T06:34:10Z</time>
      </trkpt>
      <trkpt lat="44.19053" lon="4.1095">
        <ele>218.1</ele>
        <time>2012-08-09T06:34:15Z</time>
      </trkpt>
      <trkpt lat="44.19049" lon="4.10943">
        <ele>217.6</ele>
        <time>2012-08-09T06:34:20Z</time>
      </trkpt>
      <trkpt lat="44.19046" lon="4.10935">
        <ele>218.1</ele>
        <time>2012-08-09T06:34:25Z</time>
      </trkpt>
      <trkpt lat="44.19045" lon="4.10935">
        <ele>217.5</ele>
        <time>2012-08-09T06:34:26Z</time>
      </trkpt>
      <trkpt lat="44.19041" lon="4.10922">
        <ele>216.3</ele>
        <time>2012-08-09T06:34:35Z</time>
      </trkpt>
      <trkpt lat="44.19039" lon="4.1092">
        <ele>216.3</ele>
        <time>2012-08-09T06:34:40Z</time>
      </trkpt>
      <trkpt lat="44.19039" lon="4.10918">
        <ele>216.8</ele>
        <time>2012-08-09T06:34:45Z</time>
      </trkpt>
      <trkpt lat="44.19037" lon="4.10913">
        <ele>217.5</ele>
        <time>2012-08-09T06:34:50Z</time>
      </trkpt>
      <trkpt lat="44.19027" lon="4.10895">
        <ele>216.1</ele>
        <time>2012-08-09T06:34:55Z</time>
      </trkpt>
      <trkpt lat="44.19017" lon="4.10875">
        <ele>215.5</ele>
        <time>2012-08-09T06:34:59Z</time>
      </trkpt>
      <trkpt lat="44.19005" lon="4.10849">
        <ele>215.1</ele>
        <time>2012-08-09T06:35:03Z</time>
      </trkpt>
      <trkpt lat="44.18997" lon="4.10809">
        <ele>214.1</ele>
        <time>2012-08-09T06:35:08Z</time>
      </trkpt>
      <trkpt lat="44.1899" lon="4.10775">
        <ele>213.5</ele>
        <time>2012-08-09T06:35:13Z</time>
      </trkpt>
      <trkpt lat="44.18989" lon="4.10763">
        <ele>213.5</ele>
        <time>2012-08-09T06:35:18Z</time>
      </trkpt>
      <trkpt lat="44.18988" lon="4.10756">
        <ele>213.1</ele>
        <time>2012-08-09T06:35:23Z</time>
      </trkpt>
      <trkpt lat="44.18988" lon="4.10756">
        <ele>213.1</ele>
        <time>2012-08-09T06:35:28Z</time>
      </trkpt>
      <trkpt lat="44.18988" lon="4.10756">
        <ele>213.1</ele>
        <time>2012-08-09T06:35:29Z</time>
      </trkpt>
      <trkpt lat="44.1899" lon="4.10738">
        <ele>213.1</ele>
        <time>2012-08-09T06:35:38Z</time>
      </trkpt>
      <trkpt lat="44.18999" lon="4.10723">
        <ele>212.8</ele>
        <time>2012-08-09T06:35:43Z</time>
      </trkpt>
      <trkpt lat="44.18998" lon="4.10701">
        <ele>212.3</ele>
        <time>2012-08-09T06:35:48Z</time>
      </trkpt>
      <trkpt lat="44.19" lon="4.10686">
        <ele>213</ele>
        <time>2012-08-09T06:35:53Z</time>
      </trkpt>
      <trkpt lat="44.19011" lon="4.1068">
        <ele>214.6</ele>
        <time>2012-08-09T06:35:58Z</time>
      </trkpt>
      <trkpt lat="44.19018" lon="4.10675">
        <ele>215.5</ele>
        <time>2012-08-09T06:36:02Z</time>
      </trkpt>
      <trkpt lat="44.19028" lon="4.10666">
        <ele>216.6</ele>
        <time>2012-08-09T06:36:07Z</time>
      </trkpt>
      <trkpt lat="44.19038" lon="4.10658">
        <ele>217.3</ele>
        <time>2012-08-09T06:36:12Z</time>
      </trkpt>
      <trkpt lat="44.19049" lon="4.10648">
        <ele>218.3</ele>
        <time>2012-08-09T06:36:17Z</time>
      </trkpt>
      <trkpt lat="44.19061" lon="4.10641">
        <ele>219.8</ele>
        <time>2012-08-09T06:36:22Z</time>
      </trkpt>
      <trkpt lat="44.19065" lon="4.1064">
        <ele>220.1</ele>
        <time>2012-08-09T06:36:27Z</time>
      </trkpt>
      <trkpt lat="44.19065" lon="4.1064">
        <ele>220</ele>
        <time>2012-08-09T06:36:32Z</time>
      </trkpt>
      <trkpt lat="44.19065" lon="4.1064">
        <ele>220</ele>
        <time>2012-08-09T06:36:33Z</time>
      </trkpt>
      <trkpt lat="44.19066" lon="4.10639">
        <ele>220.1</ele>
        <time>2012-08-09T06:36:42Z</time>
      </trkpt>
      <trkpt lat="44.1908" lon="4.10637">
        <ele>220.6</ele>
        <time>2012-08-09T06:36:47Z</time>
      </trkpt>
      <trkpt lat="44.19095" lon="4.10629">
        <ele>221.6</ele>
        <time>2012-08-09T06:36:52Z</time>
      </trkpt>
      <trkpt lat="44.1911" lon="4.10622">
        <ele>223.6</ele>
        <time>2012-08-09T06:36:57Z</time>
      </trkpt>
      <trkpt lat="44.19122" lon="4.10617">
        <ele>224.3</ele>
        <time>2012-08-09T06:37:01Z</time>
      </trkpt>
      <trkpt lat="44.19137" lon="4.1061">
        <ele>225.3</ele>
        <time>2012-08-09T06:37:06Z</time>
      </trkpt>
      <trkpt lat="44.19151" lon="4.10606">
        <ele>226.5</ele>
        <time>2012-08-09T06:37:11Z</time>
      </trkpt>
      <trkpt lat="44.19166" lon="4.10609">
        <ele>226.8</ele>
        <time>2012-08-09T06:37:16Z</time>
      </trkpt>
      <trkpt lat="44.1918" lon="4.10613">
        <ele>227.6</ele>
        <time>2012-08-09T06:37:21Z</time>
      </trkpt>
      <trkpt lat="44.19192" lon="4.10616">
        <ele>228.3</ele>
        <time>2012-08-09T06:37:26Z</time>
      </trkpt>
      <trkpt lat="44.19202" lon="4.10616">
        <ele>229.3</ele>
        <time>2012-08-09T06:37:31Z</time>
      </trkpt>
      <trkpt lat="44.19214" lon="4.10618">
        <ele>229.8</ele>
        <time>2012-08-09T06:37:36Z</time>
      </trkpt>
      <trkpt lat="44.19216" lon="4.10619">
        <ele>230.1</ele>
        <time>2012-08-09T06:37:37Z</time>
      </trkpt>
      <trkpt lat="44.19237" lon="4.1062">
        <ele>231.8</ele>
        <time>2012-08-09T06:37:46Z</time>
      </trkpt>
      <trkpt lat="44.19249" lon="4.10616">
        <ele>232.6</ele>
        <time>2012-08-09T06:37:51Z</time>
      </trkpt>
      <trkpt lat="44.19261" lon="4.10609">
        <ele>233.3</ele>
        <time>2012-08-09T06:37:56Z</time>
      </trkpt>
      <trkpt lat="44.19269" lon="4.10597">
        <ele>233.3</ele>
        <time>2012-08-09T06:38:00Z</time>
      </trkpt>
      <trkpt lat="44.19281" lon="4.10583">
        <ele>234</ele>
        <time>2012-08-09T06:38:05Z</time>
      </trkpt>
      <trkpt lat="44.19293" lon="4.10571">
        <ele>235.3</ele>
        <time>2012-08-09T06:38:10Z</time>
      </trkpt>
      <trkpt lat="44.19307" lon="4.1057">
        <ele>237.1</ele>
        <time>2012-08-09T06:38:15Z</time>
      </trkpt>
      <trkpt lat="44.19318" lon="4.10571">
        <ele>237.5</ele>
        <time>2012-08-09T06:38:20Z</time>
      </trkpt>
      <trkpt lat="44.19333" lon="4.10569">
        <ele>237.8</ele>
        <time>2012-08-09T06:38:25Z</time>
      </trkpt>
      <trkpt lat="44.19343" lon="4.10562">
        <ele>238.3</ele>
        <time>2012-08-09T06:38:30Z</time>
      </trkpt>
      <trkpt lat="44.19353" lon="4.10555">
        <ele>239.6</ele>
        <time>2012-08-09T06:38:35Z</time>
      </trkpt>
      <trkpt lat="44.19364" lon="4.10553">
        <ele>240.1</ele>
        <time>2012-08-09T06:38:40Z</time>
      </trkpt>
      <trkpt lat="44.19366" lon="4.10553">
        <ele>239.6</ele>
        <time>2012-08-09T06:38:41Z</time>
      </trkpt>
      <trkpt lat="44.19386" lon="4.10553">
        <ele>240.1</ele>
        <time>2012-08-09T06:38:50Z</time>
      </trkpt>
      <trkpt lat="44.19397" lon="4.10558">
        <ele>239.8</ele>
        <time>2012-08-09T06:38:55Z</time>
      </trkpt>
      <trkpt lat="44.19405" lon="4.10561">
        <ele>239.8</ele>
        <time>2012-08-09T06:38:59Z</time>
      </trkpt>
      <trkpt lat="44.19414" lon="4.10561">
        <ele>239.3</ele>
        <time>2012-08-09T06:39:03Z</time>
      </trkpt>
      <trkpt lat="44.19425" lon="4.10564">
        <ele>240.1</ele>
        <time>2012-08-09T06:39:08Z</time>
      </trkpt>
      <trkpt lat="44.19436" lon="4.10569">
        <ele>240.8</ele>
        <time>2012-08-09T06:39:13Z</time>
      </trkpt>
      <trkpt lat="44.19447" lon="4.10572">
        <ele>240.6</ele>
        <time>2012-08-09T06:39:18Z</time>
      </trkpt>
      <trkpt lat="44.19457" lon="4.10572">
        <ele>242.1</ele>
        <time>2012-08-09T06:39:23Z</time>
      </trkpt>
      <trkpt lat="44.19466" lon="4.10571">
        <ele>243.8</ele>
        <time>2012-08-09T06:39:28Z</time>
      </trkpt>
      <trkpt lat="44.19475" lon="4.10568">
        <ele>244.1</ele>
        <time>2012-08-09T06:39:33Z</time>
      </trkpt>
      <trkpt lat="44.19484" lon="4.1056">
        <ele>245.1</ele>
        <time>2012-08-09T06:39:38Z</time>
      </trkpt>
      <trkpt lat="44.19491" lon="4.10553">
        <ele>245.8</ele>
        <time>2012-08-09T06:39:43Z</time>
      </trkpt>
      <trkpt lat="44.19493" lon="4.10551">
        <ele>245.8</ele>
        <time>2012-08-09T06:39:44Z</time>
      </trkpt>
      <trkpt lat="44.19505" lon="4.10528">
        <ele>247.1</ele>
        <time>2012-08-09T06:39:53Z</time>
      </trkpt>
      <trkpt lat="44.19509" lon="4.10512">
        <ele>247.6</ele>
        <time>2012-08-09T06:39:58Z</time>
      </trkpt>
      <trkpt lat="44.19513" lon="4.105">
        <ele>248.1</ele>
        <time>2012-08-09T06:40:02Z</time>
      </trkpt>
      <trkpt lat="44.19518" lon="4.1049">
        <ele>249.6</ele>
        <time>2012-08-09T06:40:07Z</time>
      </trkpt>
      <trkpt lat="44.19527" lon="4.10481">
        <ele>251</ele>
        <time>2012-08-09T06:40:12Z</time>
      </trkpt>
      <trkpt lat="44.19535" lon="4.10472">
        <ele>252.1</ele>
        <time>2012-08-09T06:40:17Z</time>
      </trkpt>
      <trkpt lat="44.19543" lon="4.10464">
        <ele>253.6</ele>
        <time>2012-08-09T06:40:22Z</time>
      </trkpt>
      <trkpt lat="44.19548" lon="4.10468">
        <ele>255.1</ele>
        <time>2012-08-09T06:40:27Z</time>
      </trkpt>
      <trkpt lat="44.19545" lon="4.10481">
        <ele>255.6</ele>
        <time>2012-08-09T06:40:32Z</time>
      </trkpt>
      <trkpt lat="44.19542" lon="4.10494">
        <ele>256.7</ele>
        <time>2012-08-09T06:40:37Z</time>
      </trkpt>
      <trkpt lat="44.19538" lon="4.10507">
        <ele>258.2</ele>
        <time>2012-08-09T06:40:42Z</time>
      </trkpt>
      <trkpt lat="44.19536" lon="4.10521">
        <ele>259.2</ele>
        <time>2012-08-09T06:40:47Z</time>
      </trkpt>
      <trkpt lat="44.19537" lon="4.10524">
        <ele>259.2</ele>
        <time>2012-08-09T06:40:48Z</time>
      </trkpt>
      <trkpt lat="44.19541" lon="4.10553">
        <ele>262</ele>
        <time>2012-08-09T06:40:57Z</time>
      </trkpt>
      <trkpt lat="44.19541" lon="4.10564">
        <ele>262.2</ele>
        <time>2012-08-09T06:41:01Z</time>
      </trkpt>
      <trkpt lat="44.19543" lon="4.10581">
        <ele>263.2</ele>
        <time>2012-08-09T06:41:06Z</time>
      </trkpt>
      <trkpt lat="44.1955" lon="4.10595">
        <ele>264.5</ele>
        <time>2012-08-09T06:41:11Z</time>
      </trkpt>
      <trkpt lat="44.19557" lon="4.10607">
        <ele>265.3</ele>
        <time>2012-08-09T06:41:16Z</time>
      </trkpt>
      <trkpt lat="44.19564" lon="4.1062">
        <ele>266.7</ele>
        <time>2012-08-09T06:41:21Z</time>
      </trkpt>
      <trkpt lat="44.19572" lon="4.10632">
        <ele>268.6</ele>
        <time>2012-08-09T06:41:26Z</time>
      </trkpt>
      <trkpt lat="44.19581" lon="4.10642">
        <ele>269.3</ele>
        <time>2012-08-09T06:41:31Z</time>
      </trkpt>
      <trkpt lat="44.1959" lon="4.10649">
        <ele>269.7</ele>
        <time>2012-08-09T06:41:36Z</time>
      </trkpt>
      <trkpt lat="44.196" lon="4.10656">
        <ele>270.7</ele>
        <time>2012-08-09T06:41:41Z</time>
      </trkpt>
      <trkpt lat="44.1961" lon="4.10661">
        <ele>271.3</ele>
        <time>2012-08-09T06:41:46Z</time>
      </trkpt>
      <trkpt lat="44.19619" lon="4.10669">
        <ele>272.2</ele>
        <time>2012-08-09T06:41:51Z</time>
      </trkpt>
      <trkpt lat="44.19621" lon="4.1067">
        <ele>272.3</ele>
        <time>2012-08-09T06:41:52Z</time>
      </trkpt>
      <trkpt lat="44.19635" lon="4.1068">
        <ele>274</ele>
        <time>2012-08-09T06:42:00Z</time>
      </trkpt>
      <trkpt lat="44.19645" lon="4.10686">
        <ele>274.2</ele>
        <time>2012-08-09T06:42:05Z</time>
      </trkpt>
      <trkpt lat="44.19653" lon="4.10693">
        <ele>275</ele>
        <time>2012-08-09T06:42:10Z</time>
      </trkpt>
      <trkpt lat="44.19661" lon="4.107">
        <ele>275.3</ele>
        <time>2012-08-09T06:42:15Z</time>
      </trkpt>
      <trkpt lat="44.19669" lon="4.10708">
        <ele>275.8</ele>
        <time>2012-08-09T06:42:20Z</time>
      </trkpt>
      <trkpt lat="44.19678" lon="4.10717">
        <ele>277</ele>
        <time>2012-08-09T06:42:25Z</time>
      </trkpt>
      <trkpt lat="44.19686" lon="4.10726">
        <ele>278.1</ele>
        <time>2012-08-09T06:42:30Z</time>
      </trkpt>
      <trkpt lat="44.19693" lon="4.10735">
        <ele>278.5</ele>
        <time>2012-08-09T06:42:35Z</time>
      </trkpt>
      <trkpt lat="44.19702" lon="4.10745">
        <ele>279.2</ele>
        <time>2012-08-09T06:42:40Z</time>
      </trkpt>
      <trkpt lat="44.1971" lon="4.10756">
        <ele>279.8</ele>
        <time>2012-08-09T06:42:45Z</time>
      </trkpt>
      <trkpt lat="44.19722" lon="4.10766">
        <ele>280.1</ele>
        <time>2012-08-09T06:42:50Z</time>
      </trkpt>
      <trkpt lat="44.19733" lon="4.10775">
        <ele>279.7</ele>
        <time>2012-08-09T06:42:55Z</time>
      </trkpt>
      <trkpt lat="44.19735" lon="4.10778">
        <ele>279.8</ele>
        <time>2012-08-09T06:42:56Z</time>
      </trkpt>
      <trkpt lat="44.19753" lon="4.10791">
        <ele>281</ele>
        <time>2012-08-09T06:43:03Z</time>
      </trkpt>
      <trkpt lat="44.19765" lon="4.10799">
        <ele>281.5</ele>
        <time>2012-08-09T06:43:08Z</time>
      </trkpt>
      <trkpt lat="44.19776" lon="4.10807">
        <ele>282.1</ele>
        <time>2012-08-09T06:43:13Z</time>
      </trkpt>
      <trkpt lat="44.19786" lon="4.10817">
        <ele>282.7</ele>
        <time>2012-08-09T06:43:18Z</time>
      </trkpt>
      <trkpt lat="44.19797" lon="4.10825">
        <ele>284</ele>
        <time>2012-08-09T06:43:23Z</time>
      </trkpt>
      <trkpt lat="44.19809" lon="4.10833">
        <ele>285</ele>
        <time>2012-08-09T06:43:28Z</time>
      </trkpt>
      <trkpt lat="44.19821" lon="4.10838">
        <ele>286.6</ele>
        <time>2012-08-09T06:43:33Z</time>
      </trkpt>
      <trkpt lat="44.19833" lon="4.10841">
        <ele>288</ele>
        <time>2012-08-09T06:43:38Z</time>
      </trkpt>
      <trkpt lat="44.19842" lon="4.10841">
        <ele>289.1</ele>
        <time>2012-08-09T06:43:43Z</time>
      </trkpt>
      <trkpt lat="44.19854" lon="4.10835">
        <ele>290.5</ele>
        <time>2012-08-09T06:43:48Z</time>
      </trkpt>
      <trkpt lat="44.19862" lon="4.10824">
        <ele>291.6</ele>
        <time>2012-08-09T06:43:53Z</time>
      </trkpt>
      <trkpt lat="44.19871" lon="4.10811">
        <ele>291.6</ele>
        <time>2012-08-09T06:43:58Z</time>
      </trkpt>
      <trkpt lat="44.19872" lon="4.10809">
        <ele>291.1</ele>
        <time>2012-08-09T06:43:59Z</time>
      </trkpt>
      <trkpt lat="44.19883" lon="4.10791">
        <ele>292.7</ele>
        <time>2012-08-09T06:44:07Z</time>
      </trkpt>
      <trkpt lat="44.19889" lon="4.1078">
        <ele>293.8</ele>
        <time>2012-08-09T06:44:12Z</time>
      </trkpt>
      <trkpt lat="44.19894" lon="4.10771">
        <ele>294.8</ele>
        <time>2012-08-09T06:44:17Z</time>
      </trkpt>
      <trkpt lat="44.19904" lon="4.10765">
        <ele>296.7</ele>
        <time>2012-08-09T06:44:22Z</time>
      </trkpt>
      <trkpt lat="44.19913" lon="4.1076">
        <ele>298.7</ele>
        <time>2012-08-09T06:44:27Z</time>
      </trkpt>
      <trkpt lat="44.19921" lon="4.10754">
        <ele>300.1</ele>
        <time>2012-08-09T06:44:32Z</time>
      </trkpt>
      <trkpt lat="44.19927" lon="4.10748">
        <ele>301.2</ele>
        <time>2012-08-09T06:44:37Z</time>
      </trkpt>
      <trkpt lat="44.19934" lon="4.10743">
        <ele>302.6</ele>
        <time>2012-08-09T06:44:42Z</time>
      </trkpt>
      <trkpt lat="44.19944" lon="4.10739">
        <ele>303.2</ele>
        <time>2012-08-09T06:44:47Z</time>
      </trkpt>
      <trkpt lat="44.19954" lon="4.10734">
        <ele>303.8</ele>
        <time>2012-08-09T06:44:52Z</time>
      </trkpt>
      <trkpt lat="44.19964" lon="4.10729">
        <ele>305.2</ele>
        <time>2012-08-09T06:44:57Z</time>
      </trkpt>
      <trkpt lat="44.19971" lon="4.10725">
        <ele>305.7</ele>
        <time>2012-08-09T06:45:01Z</time>
      </trkpt>
      <trkpt lat="44.19973" lon="4.10724">
        <ele>305.7</ele>
        <time>2012-08-09T06:45:02Z</time>
      </trkpt>
      <trkpt lat="44.19989" lon="4.10714">
        <ele>307</ele>
        <time>2012-08-09T06:45:11Z</time>
      </trkpt>
      <trkpt lat="44.19996" lon="4.10707">
        <ele>308</ele>
        <time>2012-08-09T06:45:16Z</time>
      </trkpt>
      <trkpt lat="44.20003" lon="4.10699">
        <ele>308.8</ele>
        <time>2012-08-09T06:45:21Z</time>
      </trkpt>
      <trkpt lat="44.20011" lon="4.10692">
        <ele>309.7</ele>
        <time>2012-08-09T06:45:26Z</time>
      </trkpt>
      <trkpt lat="44.2002" lon="4.10688">
        <ele>310.7</ele>
        <time>2012-08-09T06:45:31Z</time>
      </trkpt>
      <trkpt lat="44.20028" lon="4.10691">
        <ele>311.7</ele>
        <time>2012-08-09T06:45:36Z</time>
      </trkpt>
      <trkpt lat="44.20033" lon="4.10697">
        <ele>312.3</ele>
        <time>2012-08-09T06:45:41Z</time>
      </trkpt>
      <trkpt lat="44.2004" lon="4.10702">
        <ele>313.6</ele>
        <time>2012-08-09T06:45:46Z</time>
      </trkpt>
      <trkpt lat="44.20046" lon="4.10706">
        <ele>314.6</ele>
        <time>2012-08-09T06:45:51Z</time>
      </trkpt>
      <trkpt lat="44.20056" lon="4.10711">
        <ele>313.7</ele>
        <time>2012-08-09T06:45:56Z</time>
      </trkpt>
      <trkpt lat="44.20065" lon="4.10718">
        <ele>314.5</ele>
        <time>2012-08-09T06:46:00Z</time>
      </trkpt>
      <trkpt lat="44.20077" lon="4.10726">
        <ele>314.7</ele>
        <time>2012-08-09T06:46:05Z</time>
      </trkpt>
      <trkpt lat="44.20079" lon="4.10729">
        <ele>314.7</ele>
        <time>2012-08-09T06:46:06Z</time>
      </trkpt>
      <trkpt lat="44.20074" lon="4.10761">
        <ele>316.7</ele>
        <time>2012-08-09T06:46:15Z</time>
      </trkpt>
      <trkpt lat="44.20064" lon="4.10771">
        <ele>317</ele>
        <time>2012-08-09T06:46:20Z</time>
      </trkpt>
      <trkpt lat="44.20055" lon="4.10782">
        <ele>319.1</ele>
        <time>2012-08-09T06:46:25Z</time>
      </trkpt>
      <trkpt lat="44.20047" lon="4.10794">
        <ele>320.1</ele>
        <time>2012-08-09T06:46:30Z</time>
      </trkpt>
      <trkpt lat="44.20044" lon="4.10809">
        <ele>320.3</ele>
        <time>2012-08-09T06:46:35Z</time>
      </trkpt>
      <trkpt lat="44.20047" lon="4.10824">
        <ele>321.2</ele>
        <time>2012-08-09T06:46:40Z</time>
      </trkpt>
      <trkpt lat="44.20055" lon="4.10837">
        <ele>322.1</ele>
        <time>2012-08-09T06:46:45Z</time>
      </trkpt>
      <trkpt lat="44.20059" lon="4.10851">
        <ele>322.7</ele>
        <time>2012-08-09T06:46:50Z</time>
      </trkpt>
      <trkpt lat="44.20062" lon="4.10868">
        <ele>322.8</ele>
        <time>2012-08-09T06:46:55Z</time>
      </trkpt>
      <trkpt lat="44.20064" lon="4.10876">
        <ele>323.6</ele>
        <time>2012-08-09T06:46:59Z</time>
      </trkpt>
      <trkpt lat="44.20064" lon="4.10877">
        <ele>323.7</ele>
        <time>2012-08-09T06:47:03Z</time>
      </trkpt>
      <trkpt lat="44.20064" lon="4.10877">
        <ele>323.7</ele>
        <time>2012-08-09T06:47:08Z</time>
      </trkpt>
      <trkpt lat="44.20064" lon="4.10877">
        <ele>323.7</ele>
        <time>2012-08-09T06:47:09Z</time>
      </trkpt>
      <trkpt lat="44.20064" lon="4.10876">
        <ele>324</ele>
        <time>2012-08-09T06:47:18Z</time>
      </trkpt>
      <trkpt lat="44.20063" lon="4.10869">
        <ele>323.3</ele>
        <time>2012-08-09T06:47:23Z</time>
      </trkpt>
      <trkpt lat="44.2006" lon="4.10847">
        <ele>322</ele>
        <time>2012-08-09T06:47:28Z</time>
      </trkpt>
      <trkpt lat="44.20051" lon="4.10824">
        <ele>321</ele>
        <time>2012-08-09T06:47:33Z</time>
      </trkpt>
      <trkpt lat="44.20052" lon="4.10805">
        <ele>319.8</ele>
        <time>2012-08-09T06:47:38Z</time>
      </trkpt>
      <trkpt lat="44.20064" lon="4.10801">
        <ele>320.2</ele>
        <time>2012-08-09T06:47:43Z</time>
      </trkpt>
      <trkpt lat="44.20073" lon="4.10797">
        <ele>320.3</ele>
        <time>2012-08-09T06:47:48Z</time>
      </trkpt>
      <trkpt lat="44.20084" lon="4.10793">
        <ele>320.6</ele>
        <time>2012-08-09T06:47:53Z</time>
      </trkpt>
      <trkpt lat="44.20096" lon="4.10789">
        <ele>321</ele>
        <time>2012-08-09T06:47:58Z</time>
      </trkpt>
      <trkpt lat="44.20106" lon="4.10785">
        <ele>321.1</ele>
        <time>2012-08-09T06:48:02Z</time>
      </trkpt>
      <trkpt lat="44.20117" lon="4.10784">
        <ele>321.2</ele>
        <time>2012-08-09T06:48:07Z</time>
      </trkpt>
      <trkpt lat="44.20129" lon="4.10779">
        <ele>322.7</ele>
        <time>2012-08-09T06:48:12Z</time>
      </trkpt>
      <trkpt lat="44.20132" lon="4.10779">
        <ele>322.8</ele>
        <time>2012-08-09T06:48:13Z</time>
      </trkpt>
      <trkpt lat="44.20156" lon="4.10778">
        <ele>323.7</ele>
        <time>2012-08-09T06:48:22Z</time>
      </trkpt>
      <trkpt lat="44.20165" lon="4.10775">
        <ele>324.7</ele>
        <time>2012-08-09T06:48:27Z</time>
      </trkpt>
      <trkpt lat="44.20173" lon="4.10773">
        <ele>324.8</ele>
        <time>2012-08-09T06:48:32Z</time>
      </trkpt>
      <trkpt lat="44.20181" lon="4.10772">
        <ele>325.6</ele>
        <time>2012-08-09T06:48:37Z</time>
      </trkpt>
      <trkpt lat="44.20193" lon="4.1077">
        <ele>325.7</ele>
        <time>2012-08-09T06:48:42Z</time>
      </trkpt>
      <trkpt lat="44.20202" lon="4.10769">
        <ele>325.6</ele>
        <time>2012-08-09T06:48:47Z</time>
      </trkpt>
      <trkpt lat="44.20209" lon="4.10768">
        <ele>326.7</ele>
        <time>2012-08-09T06:48:52Z</time>
      </trkpt>
      <trkpt lat="44.20213" lon="4.10768">
        <ele>326.7</ele>
        <time>2012-08-09T06:48:57Z</time>
      </trkpt>
      <trkpt lat="44.20213" lon="4.10767">
        <ele>326.8</ele>
        <time>2012-08-09T06:49:01Z</time>
      </trkpt>
      <trkpt lat="44.20213" lon="4.10767">
        <ele>326.8</ele>
        <time>2012-08-09T06:49:06Z</time>
      </trkpt>
      <trkpt lat="44.20213" lon="4.10767">
        <ele>326.8</ele>
        <time>2012-08-09T06:49:11Z</time>
      </trkpt>
      <trkpt lat="44.20213" lon="4.10767">
        <ele>326.8</ele>
        <time>2012-08-09T06:49:16Z</time>
      </trkpt>
      <trkpt lat="44.20213" lon="4.10767">
        <ele>326.8</ele>
        <time>2012-08-09T06:49:17Z</time>
      </trkpt>
      <trkpt lat="44.20214" lon="4.10767">
        <ele>327.2</ele>
        <time>2012-08-09T06:49:26Z</time>
      </trkpt>
      <trkpt lat="44.20214" lon="4.10767">
        <ele>327.2</ele>
        <time>2012-08-09T06:49:31Z</time>
      </trkpt>
      <trkpt lat="44.20214" lon="4.10767">
        <ele>327.2</ele>
        <time>2012-08-09T06:49:36Z</time>
      </trkpt>
      <trkpt lat="44.20214" lon="4.10767">
        <ele>327.2</ele>
        <time>2012-08-09T06:49:41Z</time>
      </trkpt>
      <trkpt lat="44.20214" lon="4.10767">
        <ele>327.2</ele>
        <time>2012-08-09T06:49:46Z</time>
      </trkpt>
      <trkpt lat="44.2022" lon="4.10765">
        <ele>327.2</ele>
        <time>2012-08-09T06:49:51Z</time>
      </trkpt>
      <trkpt lat="44.20228" lon="4.10765">
        <ele>327.1</ele>
        <time>2012-08-09T06:49:56Z</time>
      </trkpt>
      <trkpt lat="44.20237" lon="4.10762">
        <ele>326.8</ele>
        <time>2012-08-09T06:50:00Z</time>
      </trkpt>
      <trkpt lat="44.20246" lon="4.1076">
        <ele>327.7</ele>
        <time>2012-08-09T06:50:05Z</time>
      </trkpt>
      <trkpt lat="44.20256" lon="4.10757">
        <ele>329</ele>
        <time>2012-08-09T06:50:10Z</time>
      </trkpt>
      <trkpt lat="44.20265" lon="4.10756">
        <ele>329.3</ele>
        <time>2012-08-09T06:50:15Z</time>
      </trkpt>
      <trkpt lat="44.20275" lon="4.10753">
        <ele>330.2</ele>
        <time>2012-08-09T06:50:20Z</time>
      </trkpt>
      <trkpt lat="44.20277" lon="4.10752">
        <ele>330.6</ele>
        <time>2012-08-09T06:50:21Z</time>
      </trkpt>
      <trkpt lat="44.20296" lon="4.10747">
        <ele>332.3</ele>
        <time>2012-08-09T06:50:30Z</time>
      </trkpt>
      <trkpt lat="44.20306" lon="4.10743">
        <ele>332.8</ele>
        <time>2012-08-09T06:50:35Z</time>
      </trkpt>
      <trkpt lat="44.20316" lon="4.1074">
        <ele>332.8</ele>
        <time>2012-08-09T06:50:40Z</time>
      </trkpt>
      <trkpt lat="44.20325" lon="4.10739">
        <ele>333.2</ele>
        <time>2012-08-09T06:50:45Z</time>
      </trkpt>
      <trkpt lat="44.20336" lon="4.10735">
        <ele>333.2</ele>
        <time>2012-08-09T06:50:50Z</time>
      </trkpt>
      <trkpt lat="44.20343" lon="4.10735">
        <ele>333.1</ele>
        <time>2012-08-09T06:50:55Z</time>
      </trkpt>
      <trkpt lat="44.20349" lon="4.10742">
        <ele>333.2</ele>
        <time>2012-08-09T06:50:59Z</time>
      </trkpt>
      <trkpt lat="44.20353" lon="4.10743">
        <ele>333.7</ele>
        <time>2012-08-09T06:51:03Z</time>
      </trkpt>
      <trkpt lat="44.20353" lon="4.10743">
        <ele>334</ele>
        <time>2012-08-09T06:51:08Z</time>
      </trkpt>
      <trkpt lat="44.20352" lon="4.10742">
        <ele>334.1</ele>
        <time>2012-08-09T06:51:13Z</time>
      </trkpt>
      <trkpt lat="44.20346" lon="4.10734">
        <ele>334.2</ele>
        <time>2012-08-09T06:51:18Z</time>
      </trkpt>
      <trkpt lat="44.20355" lon="4.1073">
        <ele>333.5</ele>
        <time>2012-08-09T06:51:23Z</time>
      </trkpt>
      <trkpt lat="44.20357" lon="4.1073">
        <ele>333.5</ele>
        <time>2012-08-09T06:51:24Z</time>
      </trkpt>
      <trkpt lat="44.20367" lon="4.10716">
        <ele>331.7</ele>
        <time>2012-08-09T06:51:33Z</time>
      </trkpt>
      <trkpt lat="44.20368" lon="4.10704">
        <ele>331.7</ele>
        <time>2012-08-09T06:51:38Z</time>
      </trkpt>
      <trkpt lat="44.20374" lon="4.10688">
        <ele>331.3</ele>
        <time>2012-08-09T06:51:43Z</time>
      </trkpt>
      <trkpt lat="44.20392" lon="4.10683">
        <ele>330.7</ele>
        <time>2012-08-09T06:51:48Z</time>
      </trkpt>
      <trkpt lat="44.20412" lon="4.1068">
        <ele>330</ele>
        <time>2012-08-09T06:51:53Z</time>
      </trkpt>
      <trkpt lat="44.20432" lon="4.10682">
        <ele>329.6</ele>
        <time>2012-08-09T06:51:58Z</time>
      </trkpt>
      <trkpt lat="44.20448" lon="4.10689">
        <ele>328.2</ele>
        <time>2012-08-09T06:52:02Z</time>
      </trkpt>
      <trkpt lat="44.20461" lon="4.10696">
        <ele>327.7</ele>
        <time>2012-08-09T06:52:07Z</time>
      </trkpt>
      <trkpt lat="44.20461" lon="4.10696">
        <ele>327.7</ele>
        <time>2012-08-09T06:52:12Z</time>
      </trkpt>
      <trkpt lat="44.20461" lon="4.10696">
        <ele>327.7</ele>
        <time>2012-08-09T06:52:17Z</time>
      </trkpt>
      <trkpt lat="44.20461" lon="4.10697">
        <ele>327.7</ele>
        <time>2012-08-09T06:52:22Z</time>
      </trkpt>
      <trkpt lat="44.20461" lon="4.10697">
        <ele>327.7</ele>
        <time>2012-08-09T06:52:27Z</time>
      </trkpt>
      <trkpt lat="44.20461" lon="4.10697">
        <ele>327.7</ele>
        <time>2012-08-09T06:52:28Z</time>
      </trkpt>
      <trkpt lat="44.20468" lon="4.10704">
        <ele>326.8</ele>
        <time>2012-08-09T06:52:37Z</time>
      </trkpt>
      <trkpt lat="44.20483" lon="4.10716">
        <ele>326</ele>
        <time>2012-08-09T06:52:42Z</time>
      </trkpt>
      <trkpt lat="44.20502" lon="4.1073">
        <ele>325.3</ele>
        <time>2012-08-09T06:52:47Z</time>
      </trkpt>
      <trkpt lat="44.20524" lon="4.10747">
        <ele>324.7</ele>
        <time>2012-08-09T06:52:52Z</time>
      </trkpt>
      <trkpt lat="44.20548" lon="4.10758">
        <ele>323.7</ele>
        <time>2012-08-09T06:52:57Z</time>
      </trkpt>
      <trkpt lat="44.20564" lon="4.10755">
        <ele>322.6</ele>
        <time>2012-08-09T06:53:01Z</time>
      </trkpt>
      <trkpt lat="44.20575" lon="4.10748">
        <ele>322.2</ele>
        <time>2012-08-09T06:53:06Z</time>
      </trkpt>
      <trkpt lat="44.20574" lon="4.10751">
        <ele>320.7</ele>
        <time>2012-08-09T06:53:11Z</time>
      </trkpt>
      <trkpt lat="44.20574" lon="4.10751">
        <ele>320.7</ele>
        <time>2012-08-09T06:53:16Z</time>
      </trkpt>
      <trkpt lat="44.20574" lon="4.10754">
        <ele>320.3</ele>
        <time>2012-08-09T06:53:21Z</time>
      </trkpt>
      <trkpt lat="44.20567" lon="4.10766">
        <ele>319.7</ele>
        <time>2012-08-09T06:53:26Z</time>
      </trkpt>
      <trkpt lat="44.20561" lon="4.10777">
        <ele>319.2</ele>
        <time>2012-08-09T06:53:31Z</time>
      </trkpt>
      <trkpt lat="44.20559" lon="4.10779">
        <ele>319.2</ele>
        <time>2012-08-09T06:53:32Z</time>
      </trkpt>
      <trkpt lat="44.20535" lon="4.10785">
        <ele>317.7</ele>
        <time>2012-08-09T06:53:41Z</time>
      </trkpt>
      <trkpt lat="44.20522" lon="4.10782">
        <ele>315.2</ele>
        <time>2012-08-09T06:53:46Z</time>
      </trkpt>
      <trkpt lat="44.20509" lon="4.10778">
        <ele>313.3</ele>
        <time>2012-08-09T06:53:51Z</time>
      </trkpt>
      <trkpt lat="44.20498" lon="4.10775">
        <ele>312.2</ele>
        <time>2012-08-09T06:53:56Z</time>
      </trkpt>
      <trkpt lat="44.2049" lon="4.10773">
        <ele>311.5</ele>
        <time>2012-08-09T06:54:00Z</time>
      </trkpt>
      <trkpt lat="44.20487" lon="4.10774">
        <ele>311.1</ele>
        <time>2012-08-09T06:54:05Z</time>
      </trkpt>
      <trkpt lat="44.20487" lon="4.10774">
        <ele>311.1</ele>
        <time>2012-08-09T06:54:10Z</time>
      </trkpt>
      <trkpt lat="44.20487" lon="4.10774">
        <ele>311.1</ele>
        <time>2012-08-09T06:54:15Z</time>
      </trkpt>
      <trkpt lat="44.20486" lon="4.10775">
        <ele>311.2</ele>
        <time>2012-08-09T06:54:20Z</time>
      </trkpt>
      <trkpt lat="44.20485" lon="4.10775">
        <ele>311.2</ele>
        <time>2012-08-09T06:54:25Z</time>
      </trkpt>
      <trkpt lat="44.20485" lon="4.10776">
        <ele>311.5</ele>
        <time>2012-08-09T06:54:30Z</time>
      </trkpt>
      <trkpt lat="44.20485" lon="4.10776">
        <ele>311.7</ele>
        <time>2012-08-09T06:54:35Z</time>
      </trkpt>
      <trkpt lat="44.20484" lon="4.10775">
        <ele>311.7</ele>
        <time>2012-08-09T06:54:36Z</time>
      </trkpt>
      <trkpt lat="44.2048" lon="4.10774">
        <ele>312.8</ele>
        <time>2012-08-09T06:54:45Z</time>
      </trkpt>
      <trkpt lat="44.20479" lon="4.10769">
        <ele>313.8</ele>
        <time>2012-08-09T06:54:50Z</time>
      </trkpt>
      <trkpt lat="44.20474" lon="4.10763">
        <ele>313.5</ele>
        <time>2012-08-09T06:54:55Z</time>
      </trkpt>
      <trkpt lat="44.20473" lon="4.10762">
        <ele>314.5</ele>
        <time>2012-08-09T06:54:59Z</time>
      </trkpt>
      <trkpt lat="44.20472" lon="4.10762">
        <ele>314.5</ele>
        <time>2012-08-09T06:55:03Z</time>
      </trkpt>
      <trkpt lat="44.20468" lon="4.10759">
        <ele>314.6</ele>
        <time>2012-08-09T06:55:08Z</time>
      </trkpt>
      <trkpt lat="44.20464" lon="4.10757">
        <ele>314.6</ele>
        <time>2012-08-09T06:55:13Z</time>
      </trkpt>
      <trkpt lat="44.2046" lon="4.10754">
        <ele>315.1</ele>
        <time>2012-08-09T06:55:18Z</time>
      </trkpt>
      <trkpt lat="44.20458" lon="4.10753">
        <ele>314.7</ele>
        <time>2012-08-09T06:55:23Z</time>
      </trkpt>
      <trkpt lat="44.20458" lon="4.10753">
        <ele>314.7</ele>
        <time>2012-08-09T06:55:28Z</time>
      </trkpt>
      <trkpt lat="44.20458" lon="4.10753">
        <ele>314.7</ele>
        <time>2012-08-09T06:55:33Z</time>
      </trkpt>
      <trkpt lat="44.20458" lon="4.10753">
        <ele>314.7</ele>
        <time>2012-08-09T06:55:38Z</time>
      </trkpt>
      <trkpt lat="44.20458" lon="4.10753">
        <ele>314.7</ele>
        <time>2012-08-09T06:55:39Z</time>
      </trkpt>
      <trkpt lat="44.20458" lon="4.10754">
        <ele>314.7</ele>
        <time>2012-08-09T06:55:48Z</time>
      </trkpt>
      <trkpt lat="44.20468" lon="4.10759">
        <ele>314.6</ele>
        <time>2012-08-09T06:55:53Z</time>
      </trkpt>
      <trkpt lat="44.20478" lon="4.10767">
        <ele>314</ele>
        <time>2012-08-09T06:55:58Z</time>
      </trkpt>
      <trkpt lat="44.2048" lon="4.10774">
        <ele>313.3</ele>
        <time>2012-08-09T06:56:02Z</time>
      </trkpt>
      <trkpt lat="44.20481" lon="4.10774">
        <ele>313.8</ele>
        <time>2012-08-09T06:56:07Z</time>
      </trkpt>
      <trkpt lat="44.20484" lon="4.10777">
        <ele>314.2</ele>
        <time>2012-08-09T06:56:12Z</time>
      </trkpt>
      <trkpt lat="44.20489" lon="4.10779">
        <ele>314.3</ele>
        <time>2012-08-09T06:56:17Z</time>
      </trkpt>
      <trkpt lat="44.20494" lon="4.10779">
        <ele>314.2</ele>
        <time>2012-08-09T06:56:22Z</time>
      </trkpt>
      <trkpt lat="44.20497" lon="4.10783">
        <ele>314.1</ele>
        <time>2012-08-09T06:56:27Z</time>
      </trkpt>
      <trkpt lat="44.20499" lon="4.10786">
        <ele>314.6</ele>
        <time>2012-08-09T06:56:32Z</time>
      </trkpt>
      <trkpt lat="44.20504" lon="4.1079">
        <ele>314.7</ele>
        <time>2012-08-09T06:56:37Z</time>
      </trkpt>
      <trkpt lat="44.20504" lon="4.10794">
        <ele>315</ele>
        <time>2012-08-09T06:56:42Z</time>
      </trkpt>
      <trkpt lat="44.20505" lon="4.10795">
        <ele>315.2</ele>
        <time>2012-08-09T06:56:43Z</time>
      </trkpt>
      <trkpt lat="44.20513" lon="4.10804">
        <ele>313.2</ele>
        <time>2012-08-09T06:56:52Z</time>
      </trkpt>
      <trkpt lat="44.20516" lon="4.10808">
        <ele>312.7</ele>
        <time>2012-08-09T06:56:57Z</time>
      </trkpt>
      <trkpt lat="44.20521" lon="4.10814">
        <ele>312</ele>
        <time>2012-08-09T06:57:01Z</time>
      </trkpt>
      <trkpt lat="44.20526" lon="4.10824">
        <ele>311.2</ele>
        <time>2012-08-09T06:57:06Z</time>
      </trkpt>
      <trkpt lat="44.20532" lon="4.10831">
        <ele>310.2</ele>
        <time>2012-08-09T06:57:11Z</time>
      </trkpt>
      <trkpt lat="44.20539" lon="4.10837">
        <ele>309.2</ele>
        <time>2012-08-09T06:57:16Z</time>
      </trkpt>
      <trkpt lat="44.20539" lon="4.10838">
        <ele>309</ele>
        <time>2012-08-09T06:57:21Z</time>
      </trkpt>
      <trkpt lat="44.20548" lon="4.10846">
        <ele>308.7</ele>
        <time>2012-08-09T06:57:26Z</time>
      </trkpt>
      <trkpt lat="44.20556" lon="4.10853">
        <ele>308.5</ele>
        <time>2012-08-09T06:57:31Z</time>
      </trkpt>
      <trkpt lat="44.2056" lon="4.10855">
        <ele>308.7</ele>
        <time>2012-08-09T06:57:36Z</time>
      </trkpt>
      <trkpt lat="44.2056" lon="4.10855">
        <ele>308.7</ele>
        <time>2012-08-09T06:57:41Z</time>
      </trkpt>
      <trkpt lat="44.20562" lon="4.10857">
        <ele>308.7</ele>
        <time>2012-08-09T06:57:46Z</time>
      </trkpt>
      <trkpt lat="44.20563" lon="4.10857">
        <ele>308.7</ele>
        <time>2012-08-09T06:57:47Z</time>
      </trkpt>
      <trkpt lat="44.20571" lon="4.10859">
        <ele>307.7</ele>
        <time>2012-08-09T06:57:56Z</time>
      </trkpt>
      <trkpt lat="44.20575" lon="4.10856">
        <ele>307.2</ele>
        <time>2012-08-09T06:58:00Z</time>
      </trkpt>
      <trkpt lat="44.2058" lon="4.1085">
        <ele>306.6</ele>
        <time>2012-08-09T06:58:05Z</time>
      </trkpt>
      <trkpt lat="44.20585" lon="4.10845">
        <ele>305.7</ele>
        <time>2012-08-09T06:58:10Z</time>
      </trkpt>
      <trkpt lat="44.2059" lon="4.1084">
        <ele>305.7</ele>
        <time>2012-08-09T06:58:15Z</time>
      </trkpt>
      <trkpt lat="44.20594" lon="4.10836">
        <ele>305.1</ele>
        <time>2012-08-09T06:58:20Z</time>
      </trkpt>
      <trkpt lat="44.20598" lon="4.10831">
        <ele>304.2</ele>
        <time>2012-08-09T06:58:25Z</time>
      </trkpt>
      <trkpt lat="44.20603" lon="4.10828">
        <ele>302.7</ele>
        <time>2012-08-09T06:58:30Z</time>
      </trkpt>
      <trkpt lat="44.20608" lon="4.10825">
        <ele>302.2</ele>
        <time>2012-08-09T06:58:35Z</time>
      </trkpt>
      <trkpt lat="44.20608" lon="4.10825">
        <ele>302.2</ele>
        <time>2012-08-09T06:58:40Z</time>
      </trkpt>
      <trkpt lat="44.20608" lon="4.10825">
        <ele>302.1</ele>
        <time>2012-08-09T06:58:45Z</time>
      </trkpt>
      <trkpt lat="44.20613" lon="4.10822">
        <ele>302.5</ele>
        <time>2012-08-09T06:58:50Z</time>
      </trkpt>
      <trkpt lat="44.20615" lon="4.10821">
        <ele>302.3</ele>
        <time>2012-08-09T06:58:51Z</time>
      </trkpt>
      <trkpt lat="44.20623" lon="4.10818">
        <ele>300.6</ele>
        <time>2012-08-09T06:58:59Z</time>
      </trkpt>
      <trkpt lat="44.20624" lon="4.10818">
        <ele>300.2</ele>
        <time>2012-08-09T06:59:03Z</time>
      </trkpt>
      <trkpt lat="44.20625" lon="4.10819">
        <ele>299.6</ele>
        <time>2012-08-09T06:59:08Z</time>
      </trkpt>
      <trkpt lat="44.20627" lon="4.1082">
        <ele>299.8</ele>
        <time>2012-08-09T06:59:13Z</time>
      </trkpt>
      <trkpt lat="44.20629" lon="4.10821">
        <ele>299.7</ele>
        <time>2012-08-09T06:59:18Z</time>
      </trkpt>
      <trkpt lat="44.20632" lon="4.10825">
        <ele>299.6</ele>
        <time>2012-08-09T06:59:23Z</time>
      </trkpt>
      <trkpt lat="44.20632" lon="4.10825">
        <ele>299.6</ele>
        <time>2012-08-09T06:59:28Z</time>
      </trkpt>
      <trkpt lat="44.20632" lon="4.10825">
        <ele>299.5</ele>
        <time>2012-08-09T06:59:33Z</time>
      </trkpt>
      <trkpt lat="44.20636" lon="4.10823">
        <ele>299.1</ele>
        <time>2012-08-09T06:59:38Z</time>
      </trkpt>
      <trkpt lat="44.20642" lon="4.1082">
        <ele>299.6</ele>
        <time>2012-08-09T06:59:43Z</time>
      </trkpt>
      <trkpt lat="44.20649" lon="4.10816">
        <ele>299.7</ele>
        <time>2012-08-09T06:59:48Z</time>
      </trkpt>
      <trkpt lat="44.20657" lon="4.10815">
        <ele>299.2</ele>
        <time>2012-08-09T06:59:53Z</time>
      </trkpt>
      <trkpt lat="44.20658" lon="4.10816">
        <ele>299</ele>
        <time>2012-08-09T06:59:54Z</time>
      </trkpt>
      <trkpt lat="44.20662" lon="4.10817">
        <ele>299.8</ele>
        <time>2012-08-09T07:00:02Z</time>
      </trkpt>
      <trkpt lat="44.20663" lon="4.10818">
        <ele>299.8</ele>
        <time>2012-08-09T07:00:07Z</time>
      </trkpt>
      <trkpt lat="44.20668" lon="4.1082">
        <ele>300.2</ele>
        <time>2012-08-09T07:00:12Z</time>
      </trkpt>
      <trkpt lat="44.20675" lon="4.10822">
        <ele>301.2</ele>
        <time>2012-08-09T07:00:17Z</time>
      </trkpt>
      <trkpt lat="44.20679" lon="4.10822">
        <ele>301.3</ele>
        <time>2012-08-09T07:00:22Z</time>
      </trkpt>
      <trkpt lat="44.20683" lon="4.10823">
        <ele>301.2</ele>
        <time>2012-08-09T07:00:27Z</time>
      </trkpt>
      <trkpt lat="44.20688" lon="4.10825">
        <ele>301.3</ele>
        <time>2012-08-09T07:00:32Z</time>
      </trkpt>
      <trkpt lat="44.20691" lon="4.10827">
        <ele>301.1</ele>
        <time>2012-08-09T07:00:37Z</time>
      </trkpt>
      <trkpt lat="44.20696" lon="4.1083">
        <ele>301.2</ele>
        <time>2012-08-09T07:00:42Z</time>
      </trkpt>
      <trkpt lat="44.20696" lon="4.1083">
        <ele>301.2</ele>
        <time>2012-08-09T07:00:47Z</time>
      </trkpt>
      <trkpt lat="44.20696" lon="4.1083">
        <ele>301.3</ele>
        <time>2012-08-09T07:00:52Z</time>
      </trkpt>
      <trkpt lat="44.20697" lon="4.10831">
        <ele>301.3</ele>
        <time>2012-08-09T07:00:57Z</time>
      </trkpt>
      <trkpt lat="44.20699" lon="4.10832">
        <ele>301.2</ele>
        <time>2012-08-09T07:00:58Z</time>
      </trkpt>
      <trkpt lat="44.20722" lon="4.10842">
        <ele>302.2</ele>
        <time>2012-08-09T07:01:06Z</time>
      </trkpt>
      <trkpt lat="44.20737" lon="4.10848">
        <ele>300.7</ele>
        <time>2012-08-09T07:01:11Z</time>
      </trkpt>
      <trkpt lat="44.20749" lon="4.10852">
        <ele>300.8</ele>
        <time>2012-08-09T07:01:16Z</time>
      </trkpt>
      <trkpt lat="44.20762" lon="4.10857">
        <ele>300.3</ele>
        <time>2012-08-09T07:01:21Z</time>
      </trkpt>
      <trkpt lat="44.20776" lon="4.10861">
        <ele>300.3</ele>
        <time>2012-08-09T07:01:26Z</time>
      </trkpt>
      <trkpt lat="44.20788" lon="4.10863">
        <ele>301.7</ele>
        <time>2012-08-09T07:01:31Z</time>
      </trkpt>
      <trkpt lat="44.20801" lon="4.10867">
        <ele>302.7</ele>
        <time>2012-08-09T07:01:36Z</time>
      </trkpt>
      <trkpt lat="44.20811" lon="4.10873">
        <ele>302.7</ele>
        <time>2012-08-09T07:01:41Z</time>
      </trkpt>
      <trkpt lat="44.20818" lon="4.10883">
        <ele>301.8</ele>
        <time>2012-08-09T07:01:46Z</time>
      </trkpt>
      <trkpt lat="44.20824" lon="4.10899">
        <ele>301.6</ele>
        <time>2012-08-09T07:01:51Z</time>
      </trkpt>
      <trkpt lat="44.20825" lon="4.10901">
        <ele>302.1</ele>
        <time>2012-08-09T07:01:56Z</time>
      </trkpt>
      <trkpt lat="44.20825" lon="4.10902">
        <ele>301.7</ele>
        <time>2012-08-09T07:02:00Z</time>
      </trkpt>
      <trkpt lat="44.20825" lon="4.10902">
        <ele>301.7</ele>
        <time>2012-08-09T07:02:01Z</time>
      </trkpt>
      <trkpt lat="44.20826" lon="4.10904">
        <ele>302</ele>
        <time>2012-08-09T07:02:10Z</time>
      </trkpt>
      <trkpt lat="44.20829" lon="4.10908">
        <ele>302</ele>
        <time>2012-08-09T07:02:15Z</time>
      </trkpt>
      <trkpt lat="44.20834" lon="4.10915">
        <ele>302.7</ele>
        <time>2012-08-09T07:02:20Z</time>
      </trkpt>
      <trkpt lat="44.2084" lon="4.10919">
        <ele>302.8</ele>
        <time>2012-08-09T07:02:25Z</time>
      </trkpt>
      <trkpt lat="44.20843" lon="4.10924">
        <ele>302.8</ele>
        <time>2012-08-09T07:02:30Z</time>
      </trkpt>
      <trkpt lat="44.20846" lon="4.10927">
        <ele>302.6</ele>
        <time>2012-08-09T07:02:35Z</time>
      </trkpt>
      <trkpt lat="44.20846" lon="4.10928">
        <ele>302.7</ele>
        <time>2012-08-09T07:02:40Z</time>
      </trkpt>
      <trkpt lat="44.20848" lon="4.10929">
        <ele>303.2</ele>
        <time>2012-08-09T07:02:45Z</time>
      </trkpt>
      <trkpt lat="44.20851" lon="4.10932">
        <ele>304.1</ele>
        <time>2012-08-09T07:02:50Z</time>
      </trkpt>
      <trkpt lat="44.20854" lon="4.10934">
        <ele>304</ele>
        <time>2012-08-09T07:02:55Z</time>
      </trkpt>
      <trkpt lat="44.20857" lon="4.10938">
        <ele>303.1</ele>
        <time>2012-08-09T07:02:59Z</time>
      </trkpt>
      <trkpt lat="44.20859" lon="4.10939">
        <ele>303.7</ele>
        <time>2012-08-09T07:03:03Z</time>
      </trkpt>
      <trkpt lat="44.20859" lon="4.10939">
        <ele>303.7</ele>
        <time>2012-08-09T07:03:04Z</time>
      </trkpt>
      <trkpt lat="44.20864" lon="4.10944">
        <ele>304.1</ele>
        <time>2012-08-09T07:03:13Z</time>
      </trkpt>
      <trkpt lat="44.20866" lon="4.10948">
        <ele>304.2</ele>
        <time>2012-08-09T07:03:18Z</time>
      </trkpt>
      <trkpt lat="44.20867" lon="4.10949">
        <ele>304.2</ele>
        <time>2012-08-09T07:03:23Z</time>
      </trkpt>
      <trkpt lat="44.20867" lon="4.10949">
        <ele>304.2</ele>
        <time>2012-08-09T07:03:28Z</time>
      </trkpt>
      <trkpt lat="44.20868" lon="4.1095">
        <ele>304.7</ele>
        <time>2012-08-09T07:03:33Z</time>
      </trkpt>
      <trkpt lat="44.20871" lon="4.10952">
        <ele>305.1</ele>
        <time>2012-08-09T07:03:38Z</time>
      </trkpt>
      <trkpt lat="44.20874" lon="4.10954">
        <ele>305.7</ele>
        <time>2012-08-09T07:03:43Z</time>
      </trkpt>
      <trkpt lat="44.20876" lon="4.10956">
        <ele>306.1</ele>
        <time>2012-08-09T07:03:48Z</time>
      </trkpt>
      <trkpt lat="44.20882" lon="4.1096">
        <ele>305.8</ele>
        <time>2012-08-09T07:03:53Z</time>
      </trkpt>
      <trkpt lat="44.20886" lon="4.10964">
        <ele>307</ele>
        <time>2012-08-09T07:03:58Z</time>
      </trkpt>
      <trkpt lat="44.2089" lon="4.1097">
        <ele>307.7</ele>
        <time>2012-08-09T07:04:02Z</time>
      </trkpt>
      <trkpt lat="44.20898" lon="4.10976">
        <ele>308.7</ele>
        <time>2012-08-09T07:04:07Z</time>
      </trkpt>
      <trkpt lat="44.20899" lon="4.10977">
        <ele>309</ele>
        <time>2012-08-09T07:04:08Z</time>
      </trkpt>
      <trkpt lat="44.20908" lon="4.10983">
        <ele>311.2</ele>
        <time>2012-08-09T07:04:17Z</time>
      </trkpt>
      <trkpt lat="44.20912" lon="4.10985">
        <ele>312</ele>
        <time>2012-08-09T07:04:22Z</time>
      </trkpt>
      <trkpt lat="44.20913" lon="4.10986">
        <ele>312.2</ele>
        <time>2012-08-09T07:04:27Z</time>
      </trkpt>
      <trkpt lat="44.20914" lon="4.10988">
        <ele>312.3</ele>
        <time>2012-08-09T07:04:32Z</time>
      </trkpt>
      <trkpt lat="44.20917" lon="4.1099">
        <ele>313.2</ele>
        <time>2012-08-09T07:04:37Z</time>
      </trkpt>
      <trkpt lat="44.20919" lon="4.10992">
        <ele>313.7</ele>
        <time>2012-08-09T07:04:42Z</time>
      </trkpt>
      <trkpt lat="44.20922" lon="4.10993">
        <ele>314</ele>
        <time>2012-08-09T07:04:47Z</time>
      </trkpt>
      <trkpt lat="44.20924" lon="4.10994">
        <ele>314.6</ele>
        <time>2012-08-09T07:04:52Z</time>
      </trkpt>
      <trkpt lat="44.20929" lon="4.10996">
        <ele>314.7</ele>
        <time>2012-08-09T07:04:57Z</time>
      </trkpt>
      <trkpt lat="44.20929" lon="4.10996">
        <ele>314.7</ele>
        <time>2012-08-09T07:05:01Z</time>
      </trkpt>
      <trkpt lat="44.20932" lon="4.10998">
        <ele>314.7</ele>
        <time>2012-08-09T07:05:06Z</time>
      </trkpt>
      <trkpt lat="44.20933" lon="4.10999">
        <ele>314.8</ele>
        <time>2012-08-09T07:05:11Z</time>
      </trkpt>
      <trkpt lat="44.20933" lon="4.10999">
        <ele>314.8</ele>
        <time>2012-08-09T07:05:12Z</time>
      </trkpt>
      <trkpt lat="44.2094" lon="4.11004">
        <ele>315.2</ele>
        <time>2012-08-09T07:05:21Z</time>
      </trkpt>
      <trkpt lat="44.2094" lon="4.11004">
        <ele>315.2</ele>
        <time>2012-08-09T07:05:26Z</time>
      </trkpt>
      <trkpt lat="44.2094" lon="4.11004">
        <ele>315.2</ele>
        <time>2012-08-09T07:05:31Z</time>
      </trkpt>
      <trkpt lat="44.2094" lon="4.11004">
        <ele>315.2</ele>
        <time>2012-08-09T07:05:36Z</time>
      </trkpt>
      <trkpt lat="44.2094" lon="4.11004">
        <ele>315.2</ele>
        <time>2012-08-09T07:05:41Z</time>
      </trkpt>
      <trkpt lat="44.2094" lon="4.11004">
        <ele>315.2</ele>
        <time>2012-08-09T07:05:46Z</time>
      </trkpt>
      <trkpt lat="44.2094" lon="4.11004">
        <ele>315.2</ele>
        <time>2012-08-09T07:05:51Z</time>
      </trkpt>
      <trkpt lat="44.2094" lon="4.11004">
        <ele>315.2</ele>
        <time>2012-08-09T07:05:56Z</time>
      </trkpt>
      <trkpt lat="44.2094" lon="4.11004">
        <ele>315.2</ele>
        <time>2012-08-09T07:06:00Z</time>
      </trkpt>
      <trkpt lat="44.20946" lon="4.11009">
        <ele>315</ele>
        <time>2012-08-09T07:06:05Z</time>
      </trkpt>
      <trkpt lat="44.2095" lon="4.11011">
        <ele>317.1</ele>
        <time>2012-08-09T07:06:10Z</time>
      </trkpt>
      <trkpt lat="44.20958" lon="4.11015">
        <ele>318.2</ele>
        <time>2012-08-09T07:06:15Z</time>
      </trkpt>
      <trkpt lat="44.20959" lon="4.11015">
        <ele>318.7</ele>
        <time>2012-08-09T07:06:16Z</time>
      </trkpt>
      <trkpt lat="44.20969" lon="4.1102">
        <ele>321.2</ele>
        <time>2012-08-09T07:06:25Z</time>
      </trkpt>
      <trkpt lat="44.20973" lon="4.11023">
        <ele>322.2</ele>
        <time>2012-08-09T07:06:30Z</time>
      </trkpt>
      <trkpt lat="44.20976" lon="4.11026">
        <ele>323.3</ele>
        <time>2012-08-09T07:06:35Z</time>
      </trkpt>
      <trkpt lat="44.20979" lon="4.11029">
        <ele>323.2</ele>
        <time>2012-08-09T07:06:40Z</time>
      </trkpt>
      <trkpt lat="44.20979" lon="4.11029">
        <ele>323.2</ele>
        <time>2012-08-09T07:06:45Z</time>
      </trkpt>
      <trkpt lat="44.20981" lon="4.1103">
        <ele>323.5</ele>
        <time>2012-08-09T07:06:50Z</time>
      </trkpt>
      <trkpt lat="44.20983" lon="4.11033">
        <ele>323.7</ele>
        <time>2012-08-09T07:06:55Z</time>
      </trkpt>
      <trkpt lat="44.20987" lon="4.11036">
        <ele>324.7</ele>
        <time>2012-08-09T07:06:59Z</time>
      </trkpt>
      <trkpt lat="44.20988" lon="4.11037">
        <ele>324.7</ele>
        <time>2012-08-09T07:07:03Z</time>
      </trkpt>
      <trkpt lat="44.20988" lon="4.11037">
        <ele>324.7</ele>
        <time>2012-08-09T07:07:08Z</time>
      </trkpt>
      <trkpt lat="44.20989" lon="4.11037">
        <ele>325.1</ele>
        <time>2012-08-09T07:07:13Z</time>
      </trkpt>
      <trkpt lat="44.20992" lon="4.11039">
        <ele>326</ele>
        <time>2012-08-09T07:07:18Z</time>
      </trkpt>
      <trkpt lat="44.20992" lon="4.11039">
        <ele>326</ele>
        <time>2012-08-09T07:07:19Z</time>
      </trkpt>
      <trkpt lat="44.20995" lon="4.11041">
        <ele>326.2</ele>
        <time>2012-08-09T07:07:28Z</time>
      </trkpt>
      <trkpt lat="44.20999" lon="4.11043">
        <ele>326.7</ele>
        <time>2012-08-09T07:07:33Z</time>
      </trkpt>
      <trkpt lat="44.21001" lon="4.11043">
        <ele>326.8</ele>
        <time>2012-08-09T07:07:38Z</time>
      </trkpt>
      <trkpt lat="44.21002" lon="4.11044">
        <ele>327.3</ele>
        <time>2012-08-09T07:07:43Z</time>
      </trkpt>
      <trkpt lat="44.21006" lon="4.11045">
        <ele>328.5</ele>
        <time>2012-08-09T07:07:48Z</time>
      </trkpt>
      <trkpt lat="44.21009" lon="4.11046">
        <ele>329.3</ele>
        <time>2012-08-09T07:07:53Z</time>
      </trkpt>
      <trkpt lat="44.21011" lon="4.11047">
        <ele>329.8</ele>
        <time>2012-08-09T07:07:58Z</time>
      </trkpt>
      <trkpt lat="44.21012" lon="4.11049">
        <ele>330.2</ele>
        <time>2012-08-09T07:08:02Z</time>
      </trkpt>
      <trkpt lat="44.21016" lon="4.11052">
        <ele>330.7</ele>
        <time>2012-08-09T07:08:07Z</time>
      </trkpt>
      <trkpt lat="44.21016" lon="4.11052">
        <ele>330.7</ele>
        <time>2012-08-09T07:08:12Z</time>
      </trkpt>
      <trkpt lat="44.21017" lon="4.11053">
        <ele>331.5</ele>
        <time>2012-08-09T07:08:17Z</time>
      </trkpt>
      <trkpt lat="44.21021" lon="4.11057">
        <ele>332.2</ele>
        <time>2012-08-09T07:08:22Z</time>
      </trkpt>
      <trkpt lat="44.21024" lon="4.11059">
        <ele>332.3</ele>
        <time>2012-08-09T07:08:23Z</time>
      </trkpt>
      <trkpt lat="44.21027" lon="4.11062">
        <ele>332.7</ele>
        <time>2012-08-09T07:08:32Z</time>
      </trkpt>
      <trkpt lat="44.2103" lon="4.11064">
        <ele>332.8</ele>
        <time>2012-08-09T07:08:37Z</time>
      </trkpt>
      <trkpt lat="44.2103" lon="4.11064">
        <ele>332.8</ele>
        <time>2012-08-09T07:08:42Z</time>
      </trkpt>
      <trkpt lat="44.21036" lon="4.11066">
        <ele>333.7</ele>
        <time>2012-08-09T07:08:47Z</time>
      </trkpt>
      <trkpt lat="44.2104" lon="4.11068">
        <ele>334.2</ele>
        <time>2012-08-09T07:08:52Z</time>
      </trkpt>
      <trkpt lat="44.21047" lon="4.11073">
        <ele>335.2</ele>
        <time>2012-08-09T07:08:57Z</time>
      </trkpt>
      <trkpt lat="44.21049" lon="4.11074">
        <ele>335.5</ele>
        <time>2012-08-09T07:09:01Z</time>
      </trkpt>
      <trkpt lat="44.21055" lon="4.11076">
        <ele>336.2</ele>
        <time>2012-08-09T07:09:06Z</time>
      </trkpt>
      <trkpt lat="44.21059" lon="4.11078">
        <ele>337</ele>
        <time>2012-08-09T07:09:11Z</time>
      </trkpt>
      <trkpt lat="44.21064" lon="4.11079">
        <ele>338</ele>
        <time>2012-08-09T07:09:16Z</time>
      </trkpt>
      <trkpt lat="44.21065" lon="4.11079">
        <ele>338.3</ele>
        <time>2012-08-09T07:09:21Z</time>
      </trkpt>
      <trkpt lat="44.21065" lon="4.11079">
        <ele>338.3</ele>
        <time>2012-08-09T07:09:26Z</time>
      </trkpt>
      <trkpt lat="44.21065" lon="4.11079">
        <ele>338.3</ele>
        <time>2012-08-09T07:09:27Z</time>
      </trkpt>
      <trkpt lat="44.21065" lon="4.11079">
        <ele>338.3</ele>
        <time>2012-08-09T07:09:36Z</time>
      </trkpt>
      <trkpt lat="44.21065" lon="4.11079">
        <ele>338.3</ele>
        <time>2012-08-09T07:09:41Z</time>
      </trkpt>
      <trkpt lat="44.21065" lon="4.11079">
        <ele>338.3</ele>
        <time>2012-08-09T07:09:46Z</time>
      </trkpt>
      <trkpt lat="44.21065" lon="4.11079">
        <ele>338.3</ele>
        <time>2012-08-09T07:09:51Z</time>
      </trkpt>
      <trkpt lat="44.21074" lon="4.11083">
        <ele>338.2</ele>
        <time>2012-08-09T07:09:56Z</time>
      </trkpt>
      <trkpt lat="44.21086" lon="4.11088">
        <ele>338</ele>
        <time>2012-08-09T07:10:00Z</time>
      </trkpt>
      <trkpt lat="44.211" lon="4.11093">
        <ele>338.5</ele>
        <time>2012-08-09T07:10:05Z</time>
      </trkpt>
      <trkpt lat="44.21115" lon="4.11101">
        <ele>339.1</ele>
        <time>2012-08-09T07:10:10Z</time>
      </trkpt>
      <trkpt lat="44.21124" lon="4.11105">
        <ele>339.3</ele>
        <time>2012-08-09T07:10:15Z</time>
      </trkpt>
      <trkpt lat="44.21138" lon="4.11113">
        <ele>340.3</ele>
        <time>2012-08-09T07:10:20Z</time>
      </trkpt>
      <trkpt lat="44.21152" lon="4.11121">
        <ele>341.6</ele>
        <time>2012-08-09T07:10:25Z</time>
      </trkpt>
      <trkpt lat="44.21165" lon="4.11125">
        <ele>342.3</ele>
        <time>2012-08-09T07:10:30Z</time>
      </trkpt>
      <trkpt lat="44.21167" lon="4.11123">
        <ele>342.7</ele>
        <time>2012-08-09T07:10:31Z</time>
      </trkpt>
      <trkpt lat="44.21185" lon="4.11109">
        <ele>346.6</ele>
        <time>2012-08-09T07:10:40Z</time>
      </trkpt>
      <trkpt lat="44.21194" lon="4.11106">
        <ele>347.7</ele>
        <time>2012-08-09T07:10:45Z</time>
      </trkpt>
      <trkpt lat="44.21203" lon="4.11098">
        <ele>349.1</ele>
        <time>2012-08-09T07:10:50Z</time>
      </trkpt>
      <trkpt lat="44.21213" lon="4.11094">
        <ele>350.2</ele>
        <time>2012-08-09T07:10:55Z</time>
      </trkpt>
      <trkpt lat="44.21221" lon="4.11089">
        <ele>351.3</ele>
        <time>2012-08-09T07:10:59Z</time>
      </trkpt>
      <trkpt lat="44.2123" lon="4.11085">
        <ele>352.7</ele>
        <time>2012-08-09T07:11:03Z</time>
      </trkpt>
      <trkpt lat="44.2124" lon="4.1108">
        <ele>353.3</ele>
        <time>2012-08-09T07:11:08Z</time>
      </trkpt>
      <trkpt lat="44.21251" lon="4.11075">
        <ele>355.2</ele>
        <time>2012-08-09T07:11:13Z</time>
      </trkpt>
      <trkpt lat="44.2126" lon="4.11072">
        <ele>356.8</ele>
        <time>2012-08-09T07:11:18Z</time>
      </trkpt>
      <trkpt lat="44.21269" lon="4.11068">
        <ele>357.2</ele>
        <time>2012-08-09T07:11:23Z</time>
      </trkpt>
      <trkpt lat="44.2128" lon="4.11064">
        <ele>358.1</ele>
        <time>2012-08-09T07:11:28Z</time>
      </trkpt>
      <trkpt lat="44.21287" lon="4.11061">
        <ele>359</ele>
        <time>2012-08-09T07:11:33Z</time>
      </trkpt>
      <trkpt lat="44.21289" lon="4.1106">
        <ele>359.2</ele>
        <time>2012-08-09T07:11:34Z</time>
      </trkpt>
      <trkpt lat="44.21306" lon="4.11053">
        <ele>361.3</ele>
        <time>2012-08-09T07:11:43Z</time>
      </trkpt>
      <trkpt lat="44.21318" lon="4.11049">
        <ele>362</ele>
        <time>2012-08-09T07:11:48Z</time>
      </trkpt>
      <trkpt lat="44.21328" lon="4.11046">
        <ele>362.8</ele>
        <time>2012-08-09T07:11:53Z</time>
      </trkpt>
      <trkpt lat="44.21338" lon="4.11043">
        <ele>364.2</ele>
        <time>2012-08-09T07:11:58Z</time>
      </trkpt>
      <trkpt lat="44.21347" lon="4.11041">
        <ele>365.3</ele>
        <time>2012-08-09T07:12:02Z</time>
      </trkpt>
      <trkpt lat="44.21357" lon="4.11039">
        <ele>367.3</ele>
        <time>2012-08-09T07:12:07Z</time>
      </trkpt>
      <trkpt lat="44.21366" lon="4.11036">
        <ele>368.2</ele>
        <time>2012-08-09T07:12:12Z</time>
      </trkpt>
      <trkpt lat="44.21375" lon="4.11031">
        <ele>369.8</ele>
        <time>2012-08-09T07:12:17Z</time>
      </trkpt>
      <trkpt lat="44.21382" lon="4.11023">
        <ele>371.7</ele>
        <time>2012-08-09T07:12:22Z</time>
      </trkpt>
      <trkpt lat="44.21388" lon="4.11016">
        <ele>373.7</ele>
        <time>2012-08-09T07:12:27Z</time>
      </trkpt>
      <trkpt lat="44.21394" lon="4.11006">
        <ele>376.2</ele>
        <time>2012-08-09T07:12:32Z</time>
      </trkpt>
      <trkpt lat="44.21397" lon="4.10994">
        <ele>378.8</ele>
        <time>2012-08-09T07:12:37Z</time>
      </trkpt>
      <trkpt lat="44.21397" lon="4.10992">
        <ele>379.2</ele>
        <time>2012-08-09T07:12:38Z</time>
      </trkpt>
      <trkpt lat="44.21403" lon="4.10972">
        <ele>381.5</ele>
        <time>2012-08-09T07:12:47Z</time>
      </trkpt>
      <trkpt lat="44.21406" lon="4.10961">
        <ele>383</ele>
        <time>2012-08-09T07:12:52Z</time>
      </trkpt>
      <trkpt lat="44.2141" lon="4.1095">
        <ele>385.1</ele>
        <time>2012-08-09T07:12:57Z</time>
      </trkpt>
      <trkpt lat="44.21412" lon="4.1094">
        <ele>386.2</ele>
        <time>2012-08-09T07:13:01Z</time>
      </trkpt>
      <trkpt lat="44.21416" lon="4.10927">
        <ele>387.7</ele>
        <time>2012-08-09T07:13:06Z</time>
      </trkpt>
      <trkpt lat="44.2142" lon="4.10915">
        <ele>388.7</ele>
        <time>2012-08-09T07:13:11Z</time>
      </trkpt>
      <trkpt lat="44.21422" lon="4.10901">
        <ele>389.8</ele>
        <time>2012-08-09T07:13:16Z</time>
      </trkpt>
      <trkpt lat="44.21425" lon="4.10887">
        <ele>390.2</ele>
        <time>2012-08-09T07:13:21Z</time>
      </trkpt>
      <trkpt lat="44.21424" lon="4.10869">
        <ele>390.7</ele>
        <time>2012-08-09T07:13:26Z</time>
      </trkpt>
      <trkpt lat="44.21421" lon="4.1085">
        <ele>390.7</ele>
        <time>2012-08-09T07:13:31Z</time>
      </trkpt>
      <trkpt lat="44.21419" lon="4.10831">
        <ele>391.2</ele>
        <time>2012-08-09T07:13:36Z</time>
      </trkpt>
      <trkpt lat="44.2142" lon="4.1081">
        <ele>391.3</ele>
        <time>2012-08-09T07:13:41Z</time>
      </trkpt>
      <trkpt lat="44.21422" lon="4.10805">
        <ele>391.7</ele>
        <time>2012-08-09T07:13:42Z</time>
      </trkpt>
      <trkpt lat="44.21432" lon="4.10765">
        <ele>393.2</ele>
        <time>2012-08-09T07:13:51Z</time>
      </trkpt>
      <trkpt lat="44.21438" lon="4.10749">
        <ele>394.2</ele>
        <time>2012-08-09T07:13:56Z</time>
      </trkpt>
      <trkpt lat="44.21443" lon="4.10738">
        <ele>395.5</ele>
        <time>2012-08-09T07:14:00Z</time>
      </trkpt>
      <trkpt lat="44.21449" lon="4.10722">
        <ele>397</ele>
        <time>2012-08-09T07:14:05Z</time>
      </trkpt>
      <trkpt lat="44.21451" lon="4.10707">
        <ele>398</ele>
        <time>2012-08-09T07:14:10Z</time>
      </trkpt>
      <trkpt lat="44.21452" lon="4.10702">
        <ele>398.5</ele>
        <time>2012-08-09T07:14:15Z</time>
      </trkpt>
      <trkpt lat="44.21452" lon="4.10702">
        <ele>398.5</ele>
        <time>2012-08-09T07:14:20Z</time>
      </trkpt>
      <trkpt lat="44.21452" lon="4.10702">
        <ele>398.5</ele>
        <time>2012-08-09T07:14:25Z</time>
      </trkpt>
      <trkpt lat="44.21452" lon="4.10702">
        <ele>398.5</ele>
        <time>2012-08-09T07:14:30Z</time>
      </trkpt>
      <trkpt lat="44.21452" lon="4.10702">
        <ele>398.5</ele>
        <time>2012-08-09T07:14:35Z</time>
      </trkpt>
      <trkpt lat="44.21452" lon="4.10702">
        <ele>398.5</ele>
        <time>2012-08-09T07:14:40Z</time>
      </trkpt>
      <trkpt lat="44.21452" lon="4.10702">
        <ele>398.5</ele>
        <time>2012-08-09T07:14:45Z</time>
      </trkpt>
      <trkpt lat="44.21452" lon="4.10702">
        <ele>398.5</ele>
        <time>2012-08-09T07:14:46Z</time>
      </trkpt>
      <trkpt lat="44.21452" lon="4.10702">
        <ele>398.5</ele>
        <time>2012-08-09T07:14:55Z</time>
      </trkpt>
      <trkpt lat="44.21452" lon="4.10702">
        <ele>398.5</ele>
        <time>2012-08-09T07:14:59Z</time>
      </trkpt>
      <trkpt lat="44.21452" lon="4.10702">
        <ele>398.5</ele>
        <time>2012-08-09T07:15:03Z</time>
      </trkpt>
      <trkpt lat="44.21452" lon="4.10702">
        <ele>398.5</ele>
        <time>2012-08-09T07:15:08Z</time>
      </trkpt>
      <trkpt lat="44.21452" lon="4.10702">
        <ele>398.5</ele>
        <time>2012-08-09T07:15:13Z</time>
      </trkpt>
      <trkpt lat="44.21452" lon="4.10702">
        <ele>398.5</ele>
        <time>2012-08-09T07:15:18Z</time>
      </trkpt>
      <trkpt lat="44.21452" lon="4.10702">
        <ele>398.5</ele>
        <time>2012-08-09T07:15:23Z</time>
      </trkpt>
      <trkpt lat="44.21452" lon="4.10702">
        <ele>398.5</ele>
        <time>2012-08-09T07:15:28Z</time>
      </trkpt>
      <trkpt lat="44.21452" lon="4.10702">
        <ele>398.5</ele>
        <time>2012-08-09T07:15:33Z</time>
      </trkpt>
      <trkpt lat="44.21452" lon="4.10702">
        <ele>398.5</ele>
        <time>2012-08-09T07:15:38Z</time>
      </trkpt>
      <trkpt lat="44.21452" lon="4.10702">
        <ele>398.5</ele>
        <time>2012-08-09T07:15:43Z</time>
      </trkpt>
      <trkpt lat="44.21452" lon="4.10702">
        <ele>398.5</ele>
        <time>2012-08-09T07:15:48Z</time>
      </trkpt>
      <trkpt lat="44.21452" lon="4.10702">
        <ele>398.5</ele>
        <time>2012-08-09T07:15:49Z</time>
      </trkpt>
      <trkpt lat="44.21452" lon="4.10702">
        <ele>398.5</ele>
        <time>2012-08-09T07:15:58Z</time>
      </trkpt>
      <trkpt lat="44.21452" lon="4.10702">
        <ele>398.5</ele>
        <time>2012-08-09T07:16:02Z</time>
      </trkpt>
      <trkpt lat="44.21452" lon="4.10702">
        <ele>398.5</ele>
        <time>2012-08-09T07:16:07Z</time>
      </trkpt>
      <trkpt lat="44.21452" lon="4.10702">
        <ele>398.5</ele>
        <time>2012-08-09T07:16:12Z</time>
      </trkpt>
      <trkpt lat="44.21452" lon="4.10702">
        <ele>398.5</ele>
        <time>2012-08-09T07:16:17Z</time>
      </trkpt>
      <trkpt lat="44.21452" lon="4.10702">
        <ele>398.5</ele>
        <time>2012-08-09T07:16:22Z</time>
      </trkpt>
      <trkpt lat="44.21452" lon="4.10702">
        <ele>398.5</ele>
        <time>2012-08-09T07:16:27Z</time>
      </trkpt>
      <trkpt lat="44.21452" lon="4.10702">
        <ele>398.5</ele>
        <time>2012-08-09T07:16:32Z</time>
      </trkpt>
      <trkpt lat="44.21452" lon="4.10702">
        <ele>398.5</ele>
        <time>2012-08-09T07:16:37Z</time>
      </trkpt>
      <trkpt lat="44.21452" lon="4.10702">
        <ele>398.5</ele>
        <time>2012-08-09T07:16:42Z</time>
      </trkpt>
      <trkpt lat="44.21452" lon="4.10702">
        <ele>398.2</ele>
        <time>2012-08-09T07:16:47Z</time>
      </trkpt>
      <trkpt lat="44.21452" lon="4.10703">
        <ele>398</ele>
        <time>2012-08-09T07:16:52Z</time>
      </trkpt>
      <trkpt lat="44.21452" lon="4.10703">
        <ele>398</ele>
        <time>2012-08-09T07:16:53Z</time>
      </trkpt>
      <trkpt lat="44.21454" lon="4.10701">
        <ele>398.5</ele>
        <time>2012-08-09T07:17:01Z</time>
      </trkpt>
      <trkpt lat="44.21462" lon="4.10692">
        <ele>399.2</ele>
        <time>2012-08-09T07:17:06Z</time>
      </trkpt>
      <trkpt lat="44.21469" lon="4.10683">
        <ele>400.3</ele>
        <time>2012-08-09T07:17:11Z</time>
      </trkpt>
      <trkpt lat="44.21477" lon="4.10675">
        <ele>401.2</ele>
        <time>2012-08-09T07:17:16Z</time>
      </trkpt>
      <trkpt lat="44.21485" lon="4.10667">
        <ele>402.7</ele>
        <time>2012-08-09T07:17:21Z</time>
      </trkpt>
      <trkpt lat="44.21493" lon="4.10659">
        <ele>403.7</ele>
        <time>2012-08-09T07:17:26Z</time>
      </trkpt>
      <trkpt lat="44.21503" lon="4.10651">
        <ele>404.7</ele>
        <time>2012-08-09T07:17:31Z</time>
      </trkpt>
      <trkpt lat="44.21511" lon="4.10642">
        <ele>405.6</ele>
        <time>2012-08-09T07:17:36Z</time>
      </trkpt>
      <trkpt lat="44.21516" lon="4.10632">
        <ele>406.3</ele>
        <time>2012-08-09T07:17:41Z</time>
      </trkpt>
      <trkpt lat="44.21523" lon="4.10621">
        <ele>407.5</ele>
        <time>2012-08-09T07:17:46Z</time>
      </trkpt>
      <trkpt lat="44.21529" lon="4.10613">
        <ele>408</ele>
        <time>2012-08-09T07:17:51Z</time>
      </trkpt>
      <trkpt lat="44.21535" lon="4.10605">
        <ele>409.5</ele>
        <time>2012-08-09T07:17:56Z</time>
      </trkpt>
      <trkpt lat="44.21537" lon="4.10603">
        <ele>409.7</ele>
        <time>2012-08-09T07:17:57Z</time>
      </trkpt>
      <trkpt lat="44.21548" lon="4.1059">
        <ele>411.2</ele>
        <time>2012-08-09T07:18:05Z</time>
      </trkpt>
      <trkpt lat="44.21555" lon="4.10583">
        <ele>412.2</ele>
        <time>2012-08-09T07:18:10Z</time>
      </trkpt>
      <trkpt lat="44.21562" lon="4.10579">
        <ele>413.1</ele>
        <time>2012-08-09T07:18:15Z</time>
      </trkpt>
      <trkpt lat="44.21571" lon="4.10577">
        <ele>413.5</ele>
        <time>2012-08-09T07:18:20Z</time>
      </trkpt>
      <trkpt lat="44.2158" lon="4.10572">
        <ele>414.2</ele>
        <time>2012-08-09T07:18:25Z</time>
      </trkpt>
      <trkpt lat="44.21589" lon="4.10565">
        <ele>414.2</ele>
        <time>2012-08-09T07:18:30Z</time>
      </trkpt>
      <trkpt lat="44.21598" lon="4.10557">
        <ele>415.1</ele>
        <time>2012-08-09T07:18:35Z</time>
      </trkpt>
      <trkpt lat="44.21607" lon="4.10549">
        <ele>414.8</ele>
        <time>2012-08-09T07:18:40Z</time>
      </trkpt>
      <trkpt lat="44.21615" lon="4.10541">
        <ele>416</ele>
        <time>2012-08-09T07:18:45Z</time>
      </trkpt>
      <trkpt lat="44.21623" lon="4.10535">
        <ele>416.1</ele>
        <time>2012-08-09T07:18:50Z</time>
      </trkpt>
      <trkpt lat="44.21632" lon="4.10529">
        <ele>416.7</ele>
        <time>2012-08-09T07:18:55Z</time>
      </trkpt>
      <trkpt lat="44.2164" lon="4.10524">
        <ele>417.5</ele>
        <time>2012-08-09T07:18:59Z</time>
      </trkpt>
      <trkpt lat="44.21641" lon="4.10522">
        <ele>417.5</ele>
        <time>2012-08-09T07:19:00Z</time>
      </trkpt>
      <trkpt lat="44.21653" lon="4.10511">
        <ele>419.7</ele>
        <time>2012-08-09T07:19:08Z</time>
      </trkpt>
      <trkpt lat="44.21659" lon="4.10503">
        <ele>421</ele>
        <time>2012-08-09T07:19:13Z</time>
      </trkpt>
      <trkpt lat="44.21665" lon="4.10495">
        <ele>422</ele>
        <time>2012-08-09T07:19:18Z</time>
      </trkpt>
      <trkpt lat="44.21671" lon="4.10487">
        <ele>422.7</ele>
        <time>2012-08-09T07:19:23Z</time>
      </trkpt>
      <trkpt lat="44.21678" lon="4.10479">
        <ele>423.5</ele>
        <time>2012-08-09T07:19:28Z</time>
      </trkpt>
      <trkpt lat="44.21684" lon="4.10472">
        <ele>424.3</ele>
        <time>2012-08-09T07:19:33Z</time>
      </trkpt>
      <trkpt lat="44.21692" lon="4.10466">
        <ele>424.8</ele>
        <time>2012-08-09T07:19:38Z</time>
      </trkpt>
      <trkpt lat="44.21701" lon="4.10459">
        <ele>424.7</ele>
        <time>2012-08-09T07:19:43Z</time>
      </trkpt>
      <trkpt lat="44.21716" lon="4.10452">
        <ele>424.8</ele>
        <time>2012-08-09T07:19:48Z</time>
      </trkpt>
      <trkpt lat="44.21739" lon="4.10442">
        <ele>424.7</ele>
        <time>2012-08-09T07:19:53Z</time>
      </trkpt>
      <trkpt lat="44.2176" lon="4.10429">
        <ele>425.2</ele>
        <time>2012-08-09T07:19:58Z</time>
      </trkpt>
      <trkpt lat="44.2177" lon="4.10424">
        <ele>424.7</ele>
        <time>2012-08-09T07:20:02Z</time>
      </trkpt>
      <trkpt lat="44.21772" lon="4.10423">
        <ele>424.6</ele>
        <time>2012-08-09T07:20:03Z</time>
      </trkpt>
      <trkpt lat="44.21772" lon="4.10423">
        <ele>424.6</ele>
        <time>2012-08-09T07:20:12Z</time>
      </trkpt>
      <trkpt lat="44.21772" lon="4.10422">
        <ele>425</ele>
        <time>2012-08-09T07:20:17Z</time>
      </trkpt>
      <trkpt lat="44.21772" lon="4.10422">
        <ele>425.1</ele>
        <time>2012-08-09T07:20:22Z</time>
      </trkpt>
      <trkpt lat="44.21772" lon="4.10422">
        <ele>425.1</ele>
        <time>2012-08-09T07:20:27Z</time>
      </trkpt>
      <trkpt lat="44.21772" lon="4.10422">
        <ele>425.2</ele>
        <time>2012-08-09T07:20:32Z</time>
      </trkpt>
      <trkpt lat="44.21772" lon="4.10422">
        <ele>425.2</ele>
        <time>2012-08-09T07:20:37Z</time>
      </trkpt>
      <trkpt lat="44.21772" lon="4.10422">
        <ele>425.2</ele>
        <time>2012-08-09T07:20:42Z</time>
      </trkpt>
      <trkpt lat="44.21772" lon="4.10422">
        <ele>425.2</ele>
        <time>2012-08-09T07:20:47Z</time>
      </trkpt>
      <trkpt lat="44.21772" lon="4.10422">
        <ele>425.2</ele>
        <time>2012-08-09T07:20:52Z</time>
      </trkpt>
      <trkpt lat="44.21772" lon="4.10422">
        <ele>425.2</ele>
        <time>2012-08-09T07:20:57Z</time>
      </trkpt>
      <trkpt lat="44.21772" lon="4.10422">
        <ele>425.2</ele>
        <time>2012-08-09T07:21:01Z</time>
      </trkpt>
      <trkpt lat="44.21772" lon="4.10422">
        <ele>425.2</ele>
        <time>2012-08-09T07:21:06Z</time>
      </trkpt>
      <trkpt lat="44.21772" lon="4.10422">
        <ele>425.2</ele>
        <time>2012-08-09T07:21:07Z</time>
      </trkpt>
      <trkpt lat="44.21772" lon="4.10422">
        <ele>425.2</ele>
        <time>2012-08-09T07:21:16Z</time>
      </trkpt>
      <trkpt lat="44.21772" lon="4.10422">
        <ele>425.2</ele>
        <time>2012-08-09T07:21:21Z</time>
      </trkpt>
      <trkpt lat="44.21772" lon="4.10422">
        <ele>425.2</ele>
        <time>2012-08-09T07:21:26Z</time>
      </trkpt>
      <trkpt lat="44.21772" lon="4.10422">
        <ele>425.2</ele>
        <time>2012-08-09T07:21:31Z</time>
      </trkpt>
      <trkpt lat="44.21772" lon="4.10422">
        <ele>425.2</ele>
        <time>2012-08-09T07:21:36Z</time>
      </trkpt>
      <trkpt lat="44.21772" lon="4.10422">
        <ele>425.2</ele>
        <time>2012-08-09T07:21:41Z</time>
      </trkpt>
      <trkpt lat="44.21772" lon="4.10422">
        <ele>425.2</ele>
        <time>2012-08-09T07:21:46Z</time>
      </trkpt>
      <trkpt lat="44.21772" lon="4.10422">
        <ele>425.2</ele>
        <time>2012-08-09T07:21:51Z</time>
      </trkpt>
      <trkpt lat="44.21772" lon="4.10422">
        <ele>425.2</ele>
        <time>2012-08-09T07:21:56Z</time>
      </trkpt>
      <trkpt lat="44.21772" lon="4.10422">
        <ele>425.2</ele>
        <time>2012-08-09T07:22:00Z</time>
      </trkpt>
      <trkpt lat="44.21772" lon="4.10422">
        <ele>425.2</ele>
        <time>2012-08-09T07:22:05Z</time>
      </trkpt>
      <trkpt lat="44.21772" lon="4.10422">
        <ele>425.2</ele>
        <time>2012-08-09T07:22:10Z</time>
      </trkpt>
      <trkpt lat="44.21772" lon="4.10422">
        <ele>425.2</ele>
        <time>2012-08-09T07:22:11Z</time>
      </trkpt>
      <trkpt lat="44.21772" lon="4.10422">
        <ele>425.2</ele>
        <time>2012-08-09T07:22:20Z</time>
      </trkpt>
      <trkpt lat="44.21772" lon="4.10422">
        <ele>425.2</ele>
        <time>2012-08-09T07:22:25Z</time>
      </trkpt>
      <trkpt lat="44.21773" lon="4.10423">
        <ele>425.2</ele>
        <time>2012-08-09T07:22:30Z</time>
      </trkpt>
      <trkpt lat="44.21776" lon="4.10432">
        <ele>424.7</ele>
        <time>2012-08-09T07:22:35Z</time>
      </trkpt>
      <trkpt lat="44.21797" lon="4.10442">
        <ele>424.2</ele>
        <time>2012-08-09T07:22:40Z</time>
      </trkpt>
      <trkpt lat="44.21818" lon="4.10465">
        <ele>424</ele>
        <time>2012-08-09T07:22:45Z</time>
      </trkpt>
      <trkpt lat="44.21837" lon="4.10489">
        <ele>423.5</ele>
        <time>2012-08-09T07:22:50Z</time>
      </trkpt>
      <trkpt lat="44.2186" lon="4.10503">
        <ele>423.7</ele>
        <time>2012-08-09T07:22:55Z</time>
      </trkpt>
      <trkpt lat="44.2188" lon="4.10516">
        <ele>422.7</ele>
        <time>2012-08-09T07:22:59Z</time>
      </trkpt>
      <trkpt lat="44.21903" lon="4.10535">
        <ele>421.1</ele>
        <time>2012-08-09T07:23:03Z</time>
      </trkpt>
      <trkpt lat="44.21924" lon="4.10551">
        <ele>419.2</ele>
        <time>2012-08-09T07:23:08Z</time>
      </trkpt>
      <trkpt lat="44.21924" lon="4.10551">
        <ele>419.2</ele>
        <time>2012-08-09T07:23:13Z</time>
      </trkpt>
      <trkpt lat="44.21924" lon="4.10551">
        <ele>419.2</ele>
        <time>2012-08-09T07:23:14Z</time>
      </trkpt>
      <trkpt lat="44.21924" lon="4.10551">
        <ele>419.2</ele>
        <time>2012-08-09T07:23:23Z</time>
      </trkpt>
      <trkpt lat="44.21924" lon="4.10551">
        <ele>419.2</ele>
        <time>2012-08-09T07:23:28Z</time>
      </trkpt>
      <trkpt lat="44.21924" lon="4.10551">
        <ele>419.2</ele>
        <time>2012-08-09T07:23:33Z</time>
      </trkpt>
      <trkpt lat="44.21924" lon="4.10551">
        <ele>419.2</ele>
        <time>2012-08-09T07:23:38Z</time>
      </trkpt>
      <trkpt lat="44.21924" lon="4.1055">
        <ele>419.2</ele>
        <time>2012-08-09T07:23:43Z</time>
      </trkpt>
      <trkpt lat="44.21919" lon="4.10545">
        <ele>419.8</ele>
        <time>2012-08-09T07:23:48Z</time>
      </trkpt>
      <trkpt lat="44.21908" lon="4.10535">
        <ele>421.5</ele>
        <time>2012-08-09T07:23:53Z</time>
      </trkpt>
      <trkpt lat="44.21888" lon="4.10518">
        <ele>422.8</ele>
        <time>2012-08-09T07:23:58Z</time>
      </trkpt>
      <trkpt lat="44.21871" lon="4.10506">
        <ele>424.8</ele>
        <time>2012-08-09T07:24:02Z</time>
      </trkpt>
      <trkpt lat="44.2185" lon="4.10493">
        <ele>425.6</ele>
        <time>2012-08-09T07:24:07Z</time>
      </trkpt>
      <trkpt lat="44.2183" lon="4.10472">
        <ele>425.1</ele>
        <time>2012-08-09T07:24:12Z</time>
      </trkpt>
      <trkpt lat="44.2181" lon="4.10447">
        <ele>424.3</ele>
        <time>2012-08-09T07:24:17Z</time>
      </trkpt>
      <trkpt lat="44.21806" lon="4.10444">
        <ele>424.3</ele>
        <time>2012-08-09T07:24:18Z</time>
      </trkpt>
      <trkpt lat="44.21775" lon="4.10419">
        <ele>424.5</ele>
        <time>2012-08-09T07:24:27Z</time>
      </trkpt>
      <trkpt lat="44.21776" lon="4.10401">
        <ele>423.6</ele>
        <time>2012-08-09T07:24:32Z</time>
      </trkpt>
      <trkpt lat="44.21771" lon="4.10376">
        <ele>423.1</ele>
        <time>2012-08-09T07:24:37Z</time>
      </trkpt>
      <trkpt lat="44.21769" lon="4.1035">
        <ele>422.8</ele>
        <time>2012-08-09T07:24:42Z</time>
      </trkpt>
      <trkpt lat="44.21765" lon="4.10328">
        <ele>420.7</ele>
        <time>2012-08-09T07:24:47Z</time>
      </trkpt>
      <trkpt lat="44.21762" lon="4.10306">
        <ele>420.5</ele>
        <time>2012-08-09T07:24:52Z</time>
      </trkpt>
      <trkpt lat="44.2176" lon="4.10275">
        <ele>418.8</ele>
        <time>2012-08-09T07:24:57Z</time>
      </trkpt>
      <trkpt lat="44.2176" lon="4.1024">
        <ele>416.6</ele>
        <time>2012-08-09T07:25:01Z</time>
      </trkpt>
      <trkpt lat="44.21765" lon="4.10193">
        <ele>414.3</ele>
        <time>2012-08-09T07:25:06Z</time>
      </trkpt>
      <trkpt lat="44.2177" lon="4.10168">
        <ele>413.5</ele>
        <time>2012-08-09T07:25:11Z</time>
      </trkpt>
      <trkpt lat="44.2177" lon="4.10168">
        <ele>413.5</ele>
        <time>2012-08-09T07:25:16Z</time>
      </trkpt>
      <trkpt lat="44.2177" lon="4.10168">
        <ele>413.5</ele>
        <time>2012-08-09T07:25:21Z</time>
      </trkpt>
      <trkpt lat="44.21771" lon="4.10168">
        <ele>413.5</ele>
        <time>2012-08-09T07:25:22Z</time>
      </trkpt>
      <trkpt lat="44.21792" lon="4.1016">
        <ele>412.7</ele>
        <time>2012-08-09T07:25:31Z</time>
      </trkpt>
      <trkpt lat="44.21805" lon="4.1015">
        <ele>411.5</ele>
        <time>2012-08-09T07:25:36Z</time>
      </trkpt>
      <trkpt lat="44.21805" lon="4.1015">
        <ele>411.5</ele>
        <time>2012-08-09T07:25:41Z</time>
      </trkpt>
      <trkpt lat="44.21805" lon="4.1015">
        <ele>411.5</ele>
        <time>2012-08-09T07:25:46Z</time>
      </trkpt>
      <trkpt lat="44.21805" lon="4.1015">
        <ele>411.5</ele>
        <time>2012-08-09T07:25:51Z</time>
      </trkpt>
      <trkpt lat="44.21805" lon="4.1015">
        <ele>411.5</ele>
        <time>2012-08-09T07:25:56Z</time>
      </trkpt>
      <trkpt lat="44.21805" lon="4.10151">
        <ele>411.7</ele>
        <time>2012-08-09T07:26:00Z</time>
      </trkpt>
      <trkpt lat="44.21796" lon="4.10159">
        <ele>411.7</ele>
        <time>2012-08-09T07:26:05Z</time>
      </trkpt>
      <trkpt lat="44.21781" lon="4.10168">
        <ele>411.3</ele>
        <time>2012-08-09T07:26:10Z</time>
      </trkpt>
      <trkpt lat="44.21769" lon="4.10165">
        <ele>412.2</ele>
        <time>2012-08-09T07:26:15Z</time>
      </trkpt>
      <trkpt lat="44.21764" lon="4.10149">
        <ele>410.8</ele>
        <time>2012-08-09T07:26:20Z</time>
      </trkpt>
      <trkpt lat="44.21753" lon="4.10126">
        <ele>409.6</ele>
        <time>2012-08-09T07:26:25Z</time>
      </trkpt>
      <trkpt lat="44.21751" lon="4.1012">
        <ele>409.2</ele>
        <time>2012-08-09T07:26:26Z</time>
      </trkpt>
      <trkpt lat="44.21743" lon="4.10054">
        <ele>409.1</ele>
        <time>2012-08-09T07:26:35Z</time>
      </trkpt>
      <trkpt lat="44.21746" lon="4.10031">
        <ele>409.3</ele>
        <time>2012-08-09T07:26:40Z</time>
      </trkpt>
      <trkpt lat="44.21748" lon="4.10014">
        <ele>409.2</ele>
        <time>2012-08-09T07:26:45Z</time>
      </trkpt>
      <trkpt lat="44.21753" lon="4.0999">
        <ele>408.2</ele>
        <time>2012-08-09T07:26:50Z</time>
      </trkpt>
      <trkpt lat="44.21769" lon="4.09966">
        <ele>406.7</ele>
        <time>2012-08-09T07:26:55Z</time>
      </trkpt>
      <trkpt lat="44.21787" lon="4.09963">
        <ele>405.7</ele>
        <time>2012-08-09T07:26:59Z</time>
      </trkpt>
      <trkpt lat="44.2179" lon="4.09964">
        <ele>405.5</ele>
        <time>2012-08-09T07:27:03Z</time>
      </trkpt>
      <trkpt lat="44.2179" lon="4.09964">
        <ele>405.5</ele>
        <time>2012-08-09T07:27:08Z</time>
      </trkpt>
      <trkpt lat="44.218" lon="4.09965">
        <ele>405</ele>
        <time>2012-08-09T07:27:13Z</time>
      </trkpt>
      <trkpt lat="44.21818" lon="4.09966">
        <ele>404</ele>
        <time>2012-08-09T07:27:18Z</time>
      </trkpt>
      <trkpt lat="44.21836" lon="4.09942">
        <ele>403.6</ele>
        <time>2012-08-09T07:27:23Z</time>
      </trkpt>
      <trkpt lat="44.21842" lon="4.09921">
        <ele>404.2</ele>
        <time>2012-08-09T07:27:28Z</time>
      </trkpt>
      <trkpt lat="44.21842" lon="4.09919">
        <ele>404.6</ele>
        <time>2012-08-09T07:27:29Z</time>
      </trkpt>
      <trkpt lat="44.21839" lon="4.09894">
        <ele>406.7</ele>
        <time>2012-08-09T07:27:38Z</time>
      </trkpt>
      <trkpt lat="44.21836" lon="4.09884">
        <ele>407.6</ele>
        <time>2012-08-09T07:27:43Z</time>
      </trkpt>
      <trkpt lat="44.21833" lon="4.09872">
        <ele>408.5</ele>
        <time>2012-08-09T07:27:48Z</time>
      </trkpt>
      <trkpt lat="44.21828" lon="4.09861">
        <ele>408.7</ele>
        <time>2012-08-09T07:27:53Z</time>
      </trkpt>
      <trkpt lat="44.21824" lon="4.09856">
        <ele>409.2</ele>
        <time>2012-08-09T07:27:58Z</time>
      </trkpt>
      <trkpt lat="44.21824" lon="4.09856">
        <ele>409.2</ele>
        <time>2012-08-09T07:28:02Z</time>
      </trkpt>
      <trkpt lat="44.21824" lon="4.09856">
        <ele>409.2</ele>
        <time>2012-08-09T07:28:07Z</time>
      </trkpt>
      <trkpt lat="44.21824" lon="4.09856">
        <ele>409.2</ele>
        <time>2012-08-09T07:28:12Z</time>
      </trkpt>
      <trkpt lat="44.21824" lon="4.09856">
        <ele>409.2</ele>
        <time>2012-08-09T07:28:17Z</time>
      </trkpt>
      <trkpt lat="44.21824" lon="4.09856">
        <ele>409.2</ele>
        <time>2012-08-09T07:28:22Z</time>
      </trkpt>
      <trkpt lat="44.21826" lon="4.09858">
        <ele>408.2</ele>
        <time>2012-08-09T07:28:27Z</time>
      </trkpt>
      <trkpt lat="44.21831" lon="4.09873">
        <ele>407.7</ele>
        <time>2012-08-09T07:28:32Z</time>
      </trkpt>
      <trkpt lat="44.21832" lon="4.09877">
        <ele>407.7</ele>
        <time>2012-08-09T07:28:33Z</time>
      </trkpt>
      <trkpt lat="44.21836" lon="4.09887">
        <ele>407.7</ele>
        <time>2012-08-09T07:28:42Z</time>
      </trkpt>
      <trkpt lat="44.21837" lon="4.0988">
        <ele>408.7</ele>
        <time>2012-08-09T07:28:47Z</time>
      </trkpt>
      <trkpt lat="44.21837" lon="4.09875">
        <ele>409.3</ele>
        <time>2012-08-09T07:28:52Z</time>
      </trkpt>
      <trkpt lat="44.21838" lon="4.0987">
        <ele>410.5</ele>
        <time>2012-08-09T07:28:57Z</time>
      </trkpt>
      <trkpt lat="44.21838" lon="4.09864">
        <ele>411.2</ele>
        <time>2012-08-09T07:29:01Z</time>
      </trkpt>
      <trkpt lat="44.21839" lon="4.09859">
        <ele>411.7</ele>
        <time>2012-08-09T07:29:06Z</time>
      </trkpt>
      <trkpt lat="44.2184" lon="4.09854">
        <ele>412.5</ele>
        <time>2012-08-09T07:29:11Z</time>
      </trkpt>
      <trkpt lat="44.21841" lon="4.09849">
        <ele>413.2</ele>
        <time>2012-08-09T07:29:16Z</time>
      </trkpt>
      <trkpt lat="44.21841" lon="4.09848">
        <ele>413.3</ele>
        <time>2012-08-09T07:29:21Z</time>
      </trkpt>
      <trkpt lat="44.21841" lon="4.09848">
        <ele>413.3</ele>
        <time>2012-08-09T07:29:26Z</time>
      </trkpt>
      <trkpt lat="44.21841" lon="4.09848">
        <ele>413.3</ele>
        <time>2012-08-09T07:29:31Z</time>
      </trkpt>
      <trkpt lat="44.21841" lon="4.09844">
        <ele>413.8</ele>
        <time>2012-08-09T07:29:36Z</time>
      </trkpt>
      <trkpt lat="44.21841" lon="4.09843">
        <ele>414</ele>
        <time>2012-08-09T07:29:37Z</time>
      </trkpt>
      <trkpt lat="44.21841" lon="4.09837">
        <ele>414.7</ele>
        <time>2012-08-09T07:29:46Z</time>
      </trkpt>
      <trkpt lat="44.2184" lon="4.09832">
        <ele>415.2</ele>
        <time>2012-08-09T07:29:51Z</time>
      </trkpt>
      <trkpt lat="44.21839" lon="4.09827">
        <ele>416.2</ele>
        <time>2012-08-09T07:29:56Z</time>
      </trkpt>
      <trkpt lat="44.21837" lon="4.09824">
        <ele>416.8</ele>
        <time>2012-08-09T07:30:00Z</time>
      </trkpt>
      <trkpt lat="44.21835" lon="4.0982">
        <ele>417.1</ele>
        <time>2012-08-09T07:30:05Z</time>
      </trkpt>
      <trkpt lat="44.21833" lon="4.09816">
        <ele>417.2</ele>
        <time>2012-08-09T07:30:10Z</time>
      </trkpt>
      <trkpt lat="44.21832" lon="4.09812">
        <ele>417.3</ele>
        <time>2012-08-09T07:30:15Z</time>
      </trkpt>
      <trkpt lat="44.21831" lon="4.09807">
        <ele>417.7</ele>
        <time>2012-08-09T07:30:20Z</time>
      </trkpt>
      <trkpt lat="44.2183" lon="4.09804">
        <ele>418.2</ele>
        <time>2012-08-09T07:30:25Z</time>
      </trkpt>
      <trkpt lat="44.21828" lon="4.09801">
        <ele>418.6</ele>
        <time>2012-08-09T07:30:30Z</time>
      </trkpt>
      <trkpt lat="44.21828" lon="4.098">
        <ele>418.7</ele>
        <time>2012-08-09T07:30:35Z</time>
      </trkpt>
      <trkpt lat="44.21826" lon="4.09796">
        <ele>419.2</ele>
        <time>2012-08-09T07:30:40Z</time>
      </trkpt>
      <trkpt lat="44.21826" lon="4.09796">
        <ele>419.2</ele>
        <time>2012-08-09T07:30:41Z</time>
      </trkpt>
      <trkpt lat="44.21826" lon="4.09796">
        <ele>419.2</ele>
        <time>2012-08-09T07:30:50Z</time>
      </trkpt>
      <trkpt lat="44.21826" lon="4.09796">
        <ele>419.2</ele>
        <time>2012-08-09T07:30:55Z</time>
      </trkpt>
      <trkpt lat="44.21826" lon="4.09796">
        <ele>419.2</ele>
        <time>2012-08-09T07:30:59Z</time>
      </trkpt>
      <trkpt lat="44.21826" lon="4.09796">
        <ele>419.2</ele>
        <time>2012-08-09T07:31:03Z</time>
      </trkpt>
      <trkpt lat="44.21826" lon="4.09796">
        <ele>419.2</ele>
        <time>2012-08-09T07:31:08Z</time>
      </trkpt>
      <trkpt lat="44.21826" lon="4.09796">
        <ele>419.2</ele>
        <time>2012-08-09T07:31:13Z</time>
      </trkpt>
      <trkpt lat="44.21826" lon="4.09796">
        <ele>419.2</ele>
        <time>2012-08-09T07:31:18Z</time>
      </trkpt>
      <trkpt lat="44.21826" lon="4.09796">
        <ele>419.2</ele>
        <time>2012-08-09T07:31:23Z</time>
      </trkpt>
      <trkpt lat="44.21826" lon="4.09796">
        <ele>419.2</ele>
        <time>2012-08-09T07:31:28Z</time>
      </trkpt>
      <trkpt lat="44.21826" lon="4.09796">
        <ele>419.2</ele>
        <time>2012-08-09T07:31:33Z</time>
      </trkpt>
      <trkpt lat="44.21826" lon="4.09796">
        <ele>419.2</ele>
        <time>2012-08-09T07:31:38Z</time>
      </trkpt>
      <trkpt lat="44.21826" lon="4.09796">
        <ele>419</ele>
        <time>2012-08-09T07:31:43Z</time>
      </trkpt>
      <trkpt lat="44.21826" lon="4.09796">
        <ele>419</ele>
        <time>2012-08-09T07:31:44Z</time>
      </trkpt>
      <trkpt lat="44.21828" lon="4.098">
        <ele>418.5</ele>
        <time>2012-08-09T07:31:53Z</time>
      </trkpt>
      <trkpt lat="44.21829" lon="4.09801">
        <ele>418.6</ele>
        <time>2012-08-09T07:31:58Z</time>
      </trkpt>
      <trkpt lat="44.21831" lon="4.09806">
        <ele>417</ele>
        <time>2012-08-09T07:32:02Z</time>
      </trkpt>
      <trkpt lat="44.21834" lon="4.09812">
        <ele>415.7</ele>
        <time>2012-08-09T07:32:07Z</time>
      </trkpt>
      <trkpt lat="44.21836" lon="4.09819">
        <ele>415</ele>
        <time>2012-08-09T07:32:12Z</time>
      </trkpt>
      <trkpt lat="44.21838" lon="4.09825">
        <ele>414.1</ele>
        <time>2012-08-09T07:32:17Z</time>
      </trkpt>
      <trkpt lat="44.21841" lon="4.09833">
        <ele>413.5</ele>
        <time>2012-08-09T07:32:22Z</time>
      </trkpt>
      <trkpt lat="44.21842" lon="4.09841">
        <ele>412.5</ele>
        <time>2012-08-09T07:32:27Z</time>
      </trkpt>
      <trkpt lat="44.21843" lon="4.09849">
        <ele>411.7</ele>
        <time>2012-08-09T07:32:32Z</time>
      </trkpt>
      <trkpt lat="44.21844" lon="4.0985">
        <ele>411.5</ele>
        <time>2012-08-09T07:32:37Z</time>
      </trkpt>
      <trkpt lat="44.21842" lon="4.09852">
        <ele>411.1</ele>
        <time>2012-08-09T07:32:42Z</time>
      </trkpt>
      <trkpt lat="44.2184" lon="4.09859">
        <ele>411.2</ele>
        <time>2012-08-09T07:32:47Z</time>
      </trkpt>
      <trkpt lat="44.2184" lon="4.0986">
        <ele>411.2</ele>
        <time>2012-08-09T07:32:48Z</time>
      </trkpt>
      <trkpt lat="44.21839" lon="4.09875">
        <ele>410.6</ele>
        <time>2012-08-09T07:32:57Z</time>
      </trkpt>
      <trkpt lat="44.21839" lon="4.09878">
        <ele>410</ele>
        <time>2012-08-09T07:33:01Z</time>
      </trkpt>
      <trkpt lat="44.21839" lon="4.09878">
        <ele>410</ele>
        <time>2012-08-09T07:33:06Z</time>
      </trkpt>
      <trkpt lat="44.21839" lon="4.09878">
        <ele>410</ele>
        <time>2012-08-09T07:33:11Z</time>
      </trkpt>
      <trkpt lat="44.21839" lon="4.09878">
        <ele>410</ele>
        <time>2012-08-09T07:33:16Z</time>
      </trkpt>
      <trkpt lat="44.21839" lon="4.09878">
        <ele>410</ele>
        <time>2012-08-09T07:33:21Z</time>
      </trkpt>
      <trkpt lat="44.21839" lon="4.09878">
        <ele>410</ele>
        <time>2012-08-09T07:33:26Z</time>
      </trkpt>
      <trkpt lat="44.21839" lon="4.09878">
        <ele>410</ele>
        <time>2012-08-09T07:33:31Z</time>
      </trkpt>
      <trkpt lat="44.21839" lon="4.09878">
        <ele>410</ele>
        <time>2012-08-09T07:33:36Z</time>
      </trkpt>
      <trkpt lat="44.21839" lon="4.09878">
        <ele>410</ele>
        <time>2012-08-09T07:33:41Z</time>
      </trkpt>
      <trkpt lat="44.21839" lon="4.09881">
        <ele>409.7</ele>
        <time>2012-08-09T07:33:46Z</time>
      </trkpt>
      <trkpt lat="44.21838" lon="4.09884">
        <ele>409.6</ele>
        <time>2012-08-09T07:33:51Z</time>
      </trkpt>
      <trkpt lat="44.21838" lon="4.09884">
        <ele>409.6</ele>
        <time>2012-08-09T07:33:52Z</time>
      </trkpt>
      <trkpt lat="44.21838" lon="4.09882">
        <ele>409.3</ele>
        <time>2012-08-09T07:34:00Z</time>
      </trkpt>
      <trkpt lat="44.21837" lon="4.0988">
        <ele>409.3</ele>
        <time>2012-08-09T07:34:05Z</time>
      </trkpt>
      <trkpt lat="44.21837" lon="4.0988">
        <ele>409.3</ele>
        <time>2012-08-09T07:34:10Z</time>
      </trkpt>
      <trkpt lat="44.21837" lon="4.0988">
        <ele>409.3</ele>
        <time>2012-08-09T07:34:15Z</time>
      </trkpt>
      <trkpt lat="44.21837" lon="4.0988">
        <ele>409.3</ele>
        <time>2012-08-09T07:34:20Z</time>
      </trkpt>
      <trkpt lat="44.21837" lon="4.0988">
        <ele>409.3</ele>
        <time>2012-08-09T07:34:25Z</time>
      </trkpt>
      <trkpt lat="44.21838" lon="4.09883">
        <ele>408.5</ele>
        <time>2012-08-09T07:34:30Z</time>
      </trkpt>
      <trkpt lat="44.21839" lon="4.09888">
        <ele>407.7</ele>
        <time>2012-08-09T07:34:35Z</time>
      </trkpt>
      <trkpt lat="44.21842" lon="4.09896">
        <ele>406.8</ele>
        <time>2012-08-09T07:34:40Z</time>
      </trkpt>
      <trkpt lat="44.21845" lon="4.09916">
        <ele>405.1</ele>
        <time>2012-08-09T07:34:45Z</time>
      </trkpt>
      <trkpt lat="44.21845" lon="4.09928">
        <ele>403.8</ele>
        <time>2012-08-09T07:34:50Z</time>
      </trkpt>
      <trkpt lat="44.21848" lon="4.09928">
        <ele>403.2</ele>
        <time>2012-08-09T07:34:55Z</time>
      </trkpt>
      <trkpt lat="44.21848" lon="4.09928">
        <ele>403.2</ele>
        <time>2012-08-09T07:34:56Z</time>
      </trkpt>
      <trkpt lat="44.21859" lon="4.09927">
        <ele>403.2</ele>
        <time>2012-08-09T07:35:03Z</time>
      </trkpt>
      <trkpt lat="44.2187" lon="4.09924">
        <ele>402.7</ele>
        <time>2012-08-09T07:35:08Z</time>
      </trkpt>
      <trkpt lat="44.21886" lon="4.0992">
        <ele>402.5</ele>
        <time>2012-08-09T07:35:13Z</time>
      </trkpt>
      <trkpt lat="44.21904" lon="4.09916">
        <ele>401.3</ele>
        <time>2012-08-09T07:35:18Z</time>
      </trkpt>
      <trkpt lat="44.21924" lon="4.09912">
        <ele>400.5</ele>
        <time>2012-08-09T07:35:23Z</time>
      </trkpt>
      <trkpt lat="44.21946" lon="4.09906">
        <ele>398.7</ele>
        <time>2012-08-09T07:35:28Z</time>
      </trkpt>
      <trkpt lat="44.2196" lon="4.099">
        <ele>397.3</ele>
        <time>2012-08-09T07:35:33Z</time>
      </trkpt>
      <trkpt lat="44.2196" lon="4.099">
        <ele>397.3</ele>
        <time>2012-08-09T07:35:38Z</time>
      </trkpt>
      <trkpt lat="44.2196" lon="4.099">
        <ele>397.3</ele>
        <time>2012-08-09T07:35:43Z</time>
      </trkpt>
      <trkpt lat="44.2196" lon="4.099">
        <ele>397.3</ele>
        <time>2012-08-09T07:35:48Z</time>
      </trkpt>
      <trkpt lat="44.2196" lon="4.099">
        <ele>397.3</ele>
        <time>2012-08-09T07:35:53Z</time>
      </trkpt>
      <trkpt lat="44.2196" lon="4.099">
        <ele>397.3</ele>
        <time>2012-08-09T07:35:58Z</time>
      </trkpt>
      <trkpt lat="44.2196" lon="4.099">
        <ele>397.3</ele>
        <time>2012-08-09T07:35:59Z</time>
      </trkpt>
      <trkpt lat="44.2196" lon="4.099">
        <ele>397.3</ele>
        <time>2012-08-09T07:36:07Z</time>
      </trkpt>
      <trkpt lat="44.2196" lon="4.099">
        <ele>397.1</ele>
        <time>2012-08-09T07:36:12Z</time>
      </trkpt>
      <trkpt lat="44.2196" lon="4.099">
        <ele>397.1</ele>
        <time>2012-08-09T07:36:17Z</time>
      </trkpt>
      <trkpt lat="44.2196" lon="4.099">
        <ele>397.1</ele>
        <time>2012-08-09T07:36:22Z</time>
      </trkpt>
      <trkpt lat="44.2196" lon="4.099">
        <ele>397.1</ele>
        <time>2012-08-09T07:36:27Z</time>
      </trkpt>
      <trkpt lat="44.2196" lon="4.099">
        <ele>397.1</ele>
        <time>2012-08-09T07:36:32Z</time>
      </trkpt>
      <trkpt lat="44.2196" lon="4.099">
        <ele>397.1</ele>
        <time>2012-08-09T07:36:37Z</time>
      </trkpt>
      <trkpt lat="44.2196" lon="4.099">
        <ele>397.1</ele>
        <time>2012-08-09T07:36:42Z</time>
      </trkpt>
      <trkpt lat="44.21965" lon="4.09896">
        <ele>396.5</ele>
        <time>2012-08-09T07:36:47Z</time>
      </trkpt>
      <trkpt lat="44.21975" lon="4.09892">
        <ele>394.6</ele>
        <time>2012-08-09T07:36:52Z</time>
      </trkpt>
      <trkpt lat="44.21981" lon="4.09889">
        <ele>393.5</ele>
        <time>2012-08-09T07:36:57Z</time>
      </trkpt>
      <trkpt lat="44.21988" lon="4.09885">
        <ele>392</ele>
        <time>2012-08-09T07:37:01Z</time>
      </trkpt>
      <trkpt lat="44.21989" lon="4.09883">
        <ele>391.7</ele>
        <time>2012-08-09T07:37:02Z</time>
      </trkpt>
      <trkpt lat="44.21985" lon="4.0984">
        <ele>388.8</ele>
        <time>2012-08-09T07:37:11Z</time>
      </trkpt>
      <trkpt lat="44.21983" lon="4.09833">
        <ele>388.2</ele>
        <time>2012-08-09T07:37:16Z</time>
      </trkpt>
      <trkpt lat="44.21983" lon="4.09833">
        <ele>388.2</ele>
        <time>2012-08-09T07:37:21Z</time>
      </trkpt>
      <trkpt lat="44.21982" lon="4.0983">
        <ele>387.7</ele>
        <time>2012-08-09T07:37:26Z</time>
      </trkpt>
      <trkpt lat="44.21979" lon="4.09823">
        <ele>387.1</ele>
        <time>2012-08-09T07:37:31Z</time>
      </trkpt>
      <trkpt lat="44.21978" lon="4.09819">
        <ele>386.6</ele>
        <time>2012-08-09T07:37:36Z</time>
      </trkpt>
      <trkpt lat="44.21976" lon="4.09811">
        <ele>385.1</ele>
        <time>2012-08-09T07:37:41Z</time>
      </trkpt>
      <trkpt lat="44.21973" lon="4.09794">
        <ele>383.7</ele>
        <time>2012-08-09T07:37:46Z</time>
      </trkpt>
      <trkpt lat="44.21978" lon="4.09776">
        <ele>383.6</ele>
        <time>2012-08-09T07:37:51Z</time>
      </trkpt>
      <trkpt lat="44.21989" lon="4.09778">
        <ele>383.1</ele>
        <time>2012-08-09T07:37:56Z</time>
      </trkpt>
      <trkpt lat="44.21999" lon="4.09785">
        <ele>381.2</ele>
        <time>2012-08-09T07:38:00Z</time>
      </trkpt>
      <trkpt lat="44.22008" lon="4.09786">
        <ele>381.7</ele>
        <time>2012-08-09T07:38:05Z</time>
      </trkpt>
      <trkpt lat="44.22008" lon="4.09786">
        <ele>381.7</ele>
        <time>2012-08-09T07:38:06Z</time>
      </trkpt>
      <trkpt lat="44.22015" lon="4.09783">
        <ele>380.6</ele>
        <time>2012-08-09T07:38:15Z</time>
      </trkpt>
      <trkpt lat="44.22032" lon="4.09787">
        <ele>379.3</ele>
        <time>2012-08-09T07:38:20Z</time>
      </trkpt>
      <trkpt lat="44.22048" lon="4.09794">
        <ele>378.5</ele>
        <time>2012-08-09T07:38:25Z</time>
      </trkpt>
      <trkpt lat="44.22057" lon="4.09799">
        <ele>378.6</ele>
        <time>2012-08-09T07:38:30Z</time>
      </trkpt>
      <trkpt lat="44.22066" lon="4.09802">
        <ele>377.1</ele>
        <time>2012-08-09T07:38:35Z</time>
      </trkpt>
      <trkpt lat="44.22076" lon="4.09805">
        <ele>375.7</ele>
        <time>2012-08-09T07:38:40Z</time>
      </trkpt>
      <trkpt lat="44.22087" lon="4.09805">
        <ele>375</ele>
        <time>2012-08-09T07:38:45Z</time>
      </trkpt>
      <trkpt lat="44.22098" lon="4.09805">
        <ele>374.5</ele>
        <time>2012-08-09T07:38:50Z</time>
      </trkpt>
      <trkpt lat="44.22113" lon="4.09805">
        <ele>373.2</ele>
        <time>2012-08-09T07:38:55Z</time>
      </trkpt>
      <trkpt lat="44.22121" lon="4.0981">
        <ele>372.2</ele>
        <time>2012-08-09T07:38:59Z</time>
      </trkpt>
      <trkpt lat="44.22126" lon="4.09818">
        <ele>370.8</ele>
        <time>2012-08-09T07:39:03Z</time>
      </trkpt>
      <trkpt lat="44.22135" lon="4.09828">
        <ele>369.5</ele>
        <time>2012-08-09T07:39:08Z</time>
      </trkpt>
      <trkpt lat="44.22136" lon="4.0983">
        <ele>369.3</ele>
        <time>2012-08-09T07:39:09Z</time>
      </trkpt>
      <trkpt lat="44.22153" lon="4.09843">
        <ele>370.6</ele>
        <time>2012-08-09T07:39:18Z</time>
      </trkpt>
      <trkpt lat="44.22161" lon="4.09848">
        <ele>371.2</ele>
        <time>2012-08-09T07:39:23Z</time>
      </trkpt>
      <trkpt lat="44.22161" lon="4.09848">
        <ele>371.2</ele>
        <time>2012-08-09T07:39:28Z</time>
      </trkpt>
      <trkpt lat="44.22165" lon="4.09853">
        <ele>371.2</ele>
        <time>2012-08-09T07:39:33Z</time>
      </trkpt>
      <trkpt lat="44.22168" lon="4.09856">
        <ele>370.8</ele>
        <time>2012-08-09T07:39:38Z</time>
      </trkpt>
      <trkpt lat="44.2217" lon="4.09857">
        <ele>370.7</ele>
        <time>2012-08-09T07:39:43Z</time>
      </trkpt>
      <trkpt lat="44.22173" lon="4.09859">
        <ele>369.3</ele>
        <time>2012-08-09T07:39:48Z</time>
      </trkpt>
      <trkpt lat="44.22177" lon="4.09862">
        <ele>369.7</ele>
        <time>2012-08-09T07:39:53Z</time>
      </trkpt>
      <trkpt lat="44.22179" lon="4.09862">
        <ele>368.7</ele>
        <time>2012-08-09T07:39:58Z</time>
      </trkpt>
      <trkpt lat="44.22181" lon="4.09863">
        <ele>368.5</ele>
        <time>2012-08-09T07:40:02Z</time>
      </trkpt>
      <trkpt lat="44.22183" lon="4.09867">
        <ele>368</ele>
        <time>2012-08-09T07:40:07Z</time>
      </trkpt>
      <trkpt lat="44.22185" lon="4.09869">
        <ele>368.2</ele>
        <time>2012-08-09T07:40:12Z</time>
      </trkpt>
      <trkpt lat="44.22185" lon="4.09869">
        <ele>368.2</ele>
        <time>2012-08-09T07:40:13Z</time>
      </trkpt>
      <trkpt lat="44.22186" lon="4.0987">
        <ele>368.7</ele>
        <time>2012-08-09T07:40:22Z</time>
      </trkpt>
      <trkpt lat="44.22188" lon="4.09872">
        <ele>369.7</ele>
        <time>2012-08-09T07:40:27Z</time>
      </trkpt>
      <trkpt lat="44.22193" lon="4.09875">
        <ele>369.6</ele>
        <time>2012-08-09T07:40:32Z</time>
      </trkpt>
      <trkpt lat="44.22198" lon="4.09879">
        <ele>369.7</ele>
        <time>2012-08-09T07:40:37Z</time>
      </trkpt>
      <trkpt lat="44.22202" lon="4.09882">
        <ele>370.3</ele>
        <time>2012-08-09T07:40:42Z</time>
      </trkpt>
      <trkpt lat="44.22205" lon="4.09885">
        <ele>369.8</ele>
        <time>2012-08-09T07:40:47Z</time>
      </trkpt>
      <trkpt lat="44.22211" lon="4.09887">
        <ele>370.2</ele>
        <time>2012-08-09T07:40:52Z</time>
      </trkpt>
      <trkpt lat="44.22215" lon="4.09889">
        <ele>371.2</ele>
        <time>2012-08-09T07:40:57Z</time>
      </trkpt>
      <trkpt lat="44.22217" lon="4.09891">
        <ele>371.6</ele>
        <time>2012-08-09T07:41:01Z</time>
      </trkpt>
      <trkpt lat="44.22217" lon="4.09891">
        <ele>371.6</ele>
        <time>2012-08-09T07:41:06Z</time>
      </trkpt>
      <trkpt lat="44.22217" lon="4.09891">
        <ele>371.6</ele>
        <time>2012-08-09T07:41:11Z</time>
      </trkpt>
      <trkpt lat="44.22217" lon="4.09891">
        <ele>371.6</ele>
        <time>2012-08-09T07:41:16Z</time>
      </trkpt>
      <trkpt lat="44.22217" lon="4.09891">
        <ele>371.6</ele>
        <time>2012-08-09T07:41:17Z</time>
      </trkpt>
      <trkpt lat="44.22218" lon="4.09892">
        <ele>371.7</ele>
        <time>2012-08-09T07:41:26Z</time>
      </trkpt>
      <trkpt lat="44.22221" lon="4.09893">
        <ele>371.2</ele>
        <time>2012-08-09T07:41:31Z</time>
      </trkpt>
      <trkpt lat="44.22225" lon="4.09896">
        <ele>372.1</ele>
        <time>2012-08-09T07:41:36Z</time>
      </trkpt>
      <trkpt lat="44.22227" lon="4.09898">
        <ele>372</ele>
        <time>2012-08-09T07:41:41Z</time>
      </trkpt>
      <trkpt lat="44.22232" lon="4.099">
        <ele>372.7</ele>
        <time>2012-08-09T07:41:46Z</time>
      </trkpt>
      <trkpt lat="44.22235" lon="4.09901">
        <ele>373.1</ele>
        <time>2012-08-09T07:41:51Z</time>
      </trkpt>
      <trkpt lat="44.22236" lon="4.09902">
        <ele>373.3</ele>
        <time>2012-08-09T07:41:56Z</time>
      </trkpt>
      <trkpt lat="44.22236" lon="4.09902">
        <ele>372.8</ele>
        <time>2012-08-09T07:42:00Z</time>
      </trkpt>
      <trkpt lat="44.22243" lon="4.09912">
        <ele>372.2</ele>
        <time>2012-08-09T07:42:05Z</time>
      </trkpt>
      <trkpt lat="44.22251" lon="4.09921">
        <ele>372.7</ele>
        <time>2012-08-09T07:42:10Z</time>
      </trkpt>
      <trkpt lat="44.22257" lon="4.09926">
        <ele>372.5</ele>
        <time>2012-08-09T07:42:15Z</time>
      </trkpt>
      <trkpt lat="44.22257" lon="4.09927">
        <ele>372.1</ele>
        <time>2012-08-09T07:42:20Z</time>
      </trkpt>
      <trkpt lat="44.22258" lon="4.09928">
        <ele>372.1</ele>
        <time>2012-08-09T07:42:21Z</time>
      </trkpt>
      <trkpt lat="44.22277" lon="4.09941">
        <ele>373.6</ele>
        <time>2012-08-09T07:42:30Z</time>
      </trkpt>
      <trkpt lat="44.22289" lon="4.09946">
        <ele>374.2</ele>
        <time>2012-08-09T07:42:35Z</time>
      </trkpt>
      <trkpt lat="44.22299" lon="4.09952">
        <ele>375.1</ele>
        <time>2012-08-09T07:42:40Z</time>
      </trkpt>
      <trkpt lat="44.2231" lon="4.09957">
        <ele>375.5</ele>
        <time>2012-08-09T07:42:45Z</time>
      </trkpt>
      <trkpt lat="44.22319" lon="4.09963">
        <ele>375.2</ele>
        <time>2012-08-09T07:42:50Z</time>
      </trkpt>
      <trkpt lat="44.22327" lon="4.09967">
        <ele>374.6</ele>
        <time>2012-08-09T07:42:55Z</time>
      </trkpt>
      <trkpt lat="44.22335" lon="4.09969">
        <ele>375.8</ele>
        <time>2012-08-09T07:42:59Z</time>
      </trkpt>
      <trkpt lat="44.22341" lon="4.09963">
        <ele>376.6</ele>
        <time>2012-08-09T07:43:03Z</time>
      </trkpt>
      <trkpt lat="44.22349" lon="4.09961">
        <ele>376.6</ele>
        <time>2012-08-09T07:43:08Z</time>
      </trkpt>
      <trkpt lat="44.22359" lon="4.09957">
        <ele>377.5</ele>
        <time>2012-08-09T07:43:13Z</time>
      </trkpt>
      <trkpt lat="44.22369" lon="4.09949">
        <ele>377.3</ele>
        <time>2012-08-09T07:43:18Z</time>
      </trkpt>
      <trkpt lat="44.22383" lon="4.09941">
        <ele>376.6</ele>
        <time>2012-08-09T07:43:23Z</time>
      </trkpt>
      <trkpt lat="44.22386" lon="4.09939">
        <ele>376.2</ele>
        <time>2012-08-09T07:43:24Z</time>
      </trkpt>
      <trkpt lat="44.22412" lon="4.09908">
        <ele>372.5</ele>
        <time>2012-08-09T07:43:33Z</time>
      </trkpt>
      <trkpt lat="44.22426" lon="4.09895">
        <ele>370.1</ele>
        <time>2012-08-09T07:43:38Z</time>
      </trkpt>
      <trkpt lat="44.22444" lon="4.09876">
        <ele>368.3</ele>
        <time>2012-08-09T07:43:43Z</time>
      </trkpt>
      <trkpt lat="44.22461" lon="4.09853">
        <ele>365.6</ele>
        <time>2012-08-09T07:43:48Z</time>
      </trkpt>
      <trkpt lat="44.22476" lon="4.09834">
        <ele>363.6</ele>
        <time>2012-08-09T07:43:53Z</time>
      </trkpt>
      <trkpt lat="44.2249" lon="4.09809">
        <ele>360.6</ele>
        <time>2012-08-09T07:43:58Z</time>
      </trkpt>
      <trkpt lat="44.22491" lon="4.09797">
        <ele>359</ele>
        <time>2012-08-09T07:44:02Z</time>
      </trkpt>
      <trkpt lat="44.22491" lon="4.09797">
        <ele>358.3</ele>
        <time>2012-08-09T07:44:07Z</time>
      </trkpt>
      <trkpt lat="44.22492" lon="4.098">
        <ele>359.2</ele>
        <time>2012-08-09T07:44:12Z</time>
      </trkpt>
      <trkpt lat="44.22492" lon="4.098">
        <ele>359.2</ele>
        <time>2012-08-09T07:44:17Z</time>
      </trkpt>
      <trkpt lat="44.22492" lon="4.098">
        <ele>359.2</ele>
        <time>2012-08-09T07:44:22Z</time>
      </trkpt>
      <trkpt lat="44.22495" lon="4.09794">
        <ele>358.2</ele>
        <time>2012-08-09T07:44:27Z</time>
      </trkpt>
      <trkpt lat="44.22498" lon="4.09792">
        <ele>357.7</ele>
        <time>2012-08-09T07:44:28Z</time>
      </trkpt>
      <trkpt lat="44.22521" lon="4.09773">
        <ele>352.7</ele>
        <time>2012-08-09T07:44:37Z</time>
      </trkpt>
      <trkpt lat="44.22534" lon="4.09758">
        <ele>350.3</ele>
        <time>2012-08-09T07:44:42Z</time>
      </trkpt>
      <trkpt lat="44.22538" lon="4.09755">
        <ele>349.7</ele>
        <time>2012-08-09T07:44:47Z</time>
      </trkpt>
      <trkpt lat="44.22538" lon="4.09755">
        <ele>349.7</ele>
        <time>2012-08-09T07:44:52Z</time>
      </trkpt>
      <trkpt lat="44.22538" lon="4.09754">
        <ele>349.7</ele>
        <time>2012-08-09T07:44:57Z</time>
      </trkpt>
      <trkpt lat="44.22541" lon="4.09755">
        <ele>349.5</ele>
        <time>2012-08-09T07:45:01Z</time>
      </trkpt>
      <trkpt lat="44.22543" lon="4.09758">
        <ele>348.5</ele>
        <time>2012-08-09T07:45:06Z</time>
      </trkpt>
      <trkpt lat="44.22543" lon="4.09757">
        <ele>348</ele>
        <time>2012-08-09T07:45:11Z</time>
      </trkpt>
      <trkpt lat="44.22545" lon="4.09753">
        <ele>348.1</ele>
        <time>2012-08-09T07:45:16Z</time>
      </trkpt>
      <trkpt lat="44.22548" lon="4.09749">
        <ele>347.2</ele>
        <time>2012-08-09T07:45:21Z</time>
      </trkpt>
      <trkpt lat="44.22553" lon="4.09749">
        <ele>346.6</ele>
        <time>2012-08-09T07:45:26Z</time>
      </trkpt>
      <trkpt lat="44.22554" lon="4.09749">
        <ele>345.2</ele>
        <time>2012-08-09T07:45:31Z</time>
      </trkpt>
      <trkpt lat="44.22555" lon="4.09749">
        <ele>345.1</ele>
        <time>2012-08-09T07:45:32Z</time>
      </trkpt>
      <trkpt lat="44.22561" lon="4.09745">
        <ele>343.8</ele>
        <time>2012-08-09T07:45:41Z</time>
      </trkpt>
      <trkpt lat="44.22567" lon="4.09746">
        <ele>341.8</ele>
        <time>2012-08-09T07:45:46Z</time>
      </trkpt>
      <trkpt lat="44.22571" lon="4.09743">
        <ele>339.3</ele>
        <time>2012-08-09T07:45:51Z</time>
      </trkpt>
      <trkpt lat="44.22578" lon="4.09742">
        <ele>337.3</ele>
        <time>2012-08-09T07:45:56Z</time>
      </trkpt>
      <trkpt lat="44.22584" lon="4.09742">
        <ele>334.3</ele>
        <time>2012-08-09T07:46:00Z</time>
      </trkpt>
      <trkpt lat="44.22587" lon="4.09739">
        <ele>333</ele>
        <time>2012-08-09T07:46:05Z</time>
      </trkpt>
      <trkpt lat="44.2259" lon="4.09737">
        <ele>332.7</ele>
        <time>2012-08-09T07:46:10Z</time>
      </trkpt>
      <trkpt lat="44.22593" lon="4.09732">
        <ele>330.2</ele>
        <time>2012-08-09T07:46:15Z</time>
      </trkpt>
      <trkpt lat="44.22596" lon="4.09728">
        <ele>330</ele>
        <time>2012-08-09T07:46:20Z</time>
      </trkpt>
      <trkpt lat="44.22601" lon="4.09729">
        <ele>328</ele>
        <time>2012-08-09T07:46:25Z</time>
      </trkpt>
      <trkpt lat="44.22605" lon="4.09728">
        <ele>326.2</ele>
        <time>2012-08-09T07:46:30Z</time>
      </trkpt>
      <trkpt lat="44.2261" lon="4.09729">
        <ele>324.2</ele>
        <time>2012-08-09T07:46:35Z</time>
      </trkpt>
      <trkpt lat="44.22611" lon="4.09729">
        <ele>324.2</ele>
        <time>2012-08-09T07:46:36Z</time>
      </trkpt>
      <trkpt lat="44.22619" lon="4.09734">
        <ele>322.6</ele>
        <time>2012-08-09T07:46:45Z</time>
      </trkpt>
      <trkpt lat="44.22623" lon="4.09733">
        <ele>322</ele>
        <time>2012-08-09T07:46:50Z</time>
      </trkpt>
      <trkpt lat="44.22628" lon="4.09735">
        <ele>320.3</ele>
        <time>2012-08-09T07:46:55Z</time>
      </trkpt>
      <trkpt lat="44.22633" lon="4.09738">
        <ele>320</ele>
        <time>2012-08-09T07:46:59Z</time>
      </trkpt>
      <trkpt lat="44.22639" lon="4.09736">
        <ele>318.3</ele>
        <time>2012-08-09T07:47:03Z</time>
      </trkpt>
      <trkpt lat="44.22645" lon="4.09736">
        <ele>317.1</ele>
        <time>2012-08-09T07:47:08Z</time>
      </trkpt>
      <trkpt lat="44.22647" lon="4.09742">
        <ele>316.2</ele>
        <time>2012-08-09T07:47:13Z</time>
      </trkpt>
      <trkpt lat="44.22648" lon="4.09745">
        <ele>315.8</ele>
        <time>2012-08-09T07:47:18Z</time>
      </trkpt>
      <trkpt lat="44.22648" lon="4.09745">
        <ele>315.8</ele>
        <time>2012-08-09T07:47:23Z</time>
      </trkpt>
      <trkpt lat="44.22648" lon="4.09746">
        <ele>315.7</ele>
        <time>2012-08-09T07:47:28Z</time>
      </trkpt>
      <trkpt lat="44.22646" lon="4.09755">
        <ele>315.2</ele>
        <time>2012-08-09T07:47:33Z</time>
      </trkpt>
      <trkpt lat="44.22648" lon="4.09759">
        <ele>314.7</ele>
        <time>2012-08-09T07:47:38Z</time>
      </trkpt>
      <trkpt lat="44.22648" lon="4.09759">
        <ele>314.7</ele>
        <time>2012-08-09T07:47:39Z</time>
      </trkpt>
      <trkpt lat="44.22649" lon="4.09758">
        <ele>314.2</ele>
        <time>2012-08-09T07:47:48Z</time>
      </trkpt>
      <trkpt lat="44.22655" lon="4.09758">
        <ele>314</ele>
        <time>2012-08-09T07:47:53Z</time>
      </trkpt>
      <trkpt lat="44.22661" lon="4.0976">
        <ele>314.2</ele>
        <time>2012-08-09T07:47:58Z</time>
      </trkpt>
      <trkpt lat="44.22665" lon="4.09758">
        <ele>312.8</ele>
        <time>2012-08-09T07:48:03Z</time>
      </trkpt>
      <trkpt lat="44.22666" lon="4.09757">
        <ele>312.8</ele>
        <time>2012-08-09T07:48:08Z</time>
      </trkpt>
      <trkpt lat="44.22668" lon="4.09758">
        <ele>312.6</ele>
        <time>2012-08-09T07:48:13Z</time>
      </trkpt>
      <trkpt lat="44.22672" lon="4.09757">
        <ele>312.7</ele>
        <time>2012-08-09T07:48:18Z</time>
      </trkpt>
      <trkpt lat="44.22676" lon="4.09756">
        <ele>312.8</ele>
        <time>2012-08-09T07:48:23Z</time>
      </trkpt>
      <trkpt lat="44.2268" lon="4.09755">
        <ele>312.7</ele>
        <time>2012-08-09T07:48:28Z</time>
      </trkpt>
      <trkpt lat="44.22686" lon="4.09754">
        <ele>311.6</ele>
        <time>2012-08-09T07:48:33Z</time>
      </trkpt>
      <trkpt lat="44.2269" lon="4.09752">
        <ele>310.2</ele>
        <time>2012-08-09T07:48:38Z</time>
      </trkpt>
      <trkpt lat="44.22696" lon="4.0975">
        <ele>308.8</ele>
        <time>2012-08-09T07:48:43Z</time>
      </trkpt>
      <trkpt lat="44.22697" lon="4.09751">
        <ele>308.7</ele>
        <time>2012-08-09T07:48:44Z</time>
      </trkpt>
      <trkpt lat="44.22703" lon="4.09753">
        <ele>308.7</ele>
        <time>2012-08-09T07:48:53Z</time>
      </trkpt>
      <trkpt lat="44.22704" lon="4.09756">
        <ele>308.7</ele>
        <time>2012-08-09T07:48:58Z</time>
      </trkpt>
      <trkpt lat="44.22704" lon="4.09756">
        <ele>308.7</ele>
        <time>2012-08-09T07:49:03Z</time>
      </trkpt>
      <trkpt lat="44.22704" lon="4.09756">
        <ele>308.7</ele>
        <time>2012-08-09T07:49:08Z</time>
      </trkpt>
      <trkpt lat="44.22704" lon="4.09756">
        <ele>309.1</ele>
        <time>2012-08-09T07:49:13Z</time>
      </trkpt>
      <trkpt lat="44.22704" lon="4.09756">
        <ele>309.1</ele>
        <time>2012-08-09T07:49:18Z</time>
      </trkpt>
      <trkpt lat="44.22705" lon="4.09756">
        <ele>308.7</ele>
        <time>2012-08-09T07:49:23Z</time>
      </trkpt>
      <trkpt lat="44.22705" lon="4.09756">
        <ele>308.7</ele>
        <time>2012-08-09T07:49:28Z</time>
      </trkpt>
      <trkpt lat="44.22705" lon="4.09756">
        <ele>308.7</ele>
        <time>2012-08-09T07:49:33Z</time>
      </trkpt>
      <trkpt lat="44.22705" lon="4.09756">
        <ele>308.7</ele>
        <time>2012-08-09T07:49:38Z</time>
      </trkpt>
      <trkpt lat="44.22705" lon="4.09756">
        <ele>308.7</ele>
        <time>2012-08-09T07:49:43Z</time>
      </trkpt>
      <trkpt lat="44.22705" lon="4.09756">
        <ele>308.7</ele>
        <time>2012-08-09T07:49:48Z</time>
      </trkpt>
      <trkpt lat="44.22705" lon="4.09756">
        <ele>308.7</ele>
        <time>2012-08-09T07:49:49Z</time>
      </trkpt>
      <trkpt lat="44.22705" lon="4.09756">
        <ele>308.7</ele>
        <time>2012-08-09T07:49:58Z</time>
      </trkpt>
      <trkpt lat="44.22707" lon="4.09757">
        <ele>308.2</ele>
        <time>2012-08-09T07:50:03Z</time>
      </trkpt>
      <trkpt lat="44.22714" lon="4.09762">
        <ele>307.3</ele>
        <time>2012-08-09T07:50:08Z</time>
      </trkpt>
      <trkpt lat="44.22715" lon="4.09763">
        <ele>307.2</ele>
        <time>2012-08-09T07:50:13Z</time>
      </trkpt>
      <trkpt lat="44.22715" lon="4.09763">
        <ele>307.2</ele>
        <time>2012-08-09T07:50:18Z</time>
      </trkpt>
      <trkpt lat="44.22715" lon="4.09763">
        <ele>307.2</ele>
        <time>2012-08-09T07:50:23Z</time>
      </trkpt>
      <trkpt lat="44.22717" lon="4.09764">
        <ele>307.6</ele>
        <time>2012-08-09T07:50:28Z</time>
      </trkpt>
      <trkpt lat="44.2273" lon="4.09768">
        <ele>308.2</ele>
        <time>2012-08-09T07:50:33Z</time>
      </trkpt>
      <trkpt lat="44.22745" lon="4.09766">
        <ele>309.3</ele>
        <time>2012-08-09T07:50:38Z</time>
      </trkpt>
      <trkpt lat="44.22756" lon="4.09764">
        <ele>310.1</ele>
        <time>2012-08-09T07:50:43Z</time>
      </trkpt>
      <trkpt lat="44.2277" lon="4.09766">
        <ele>310.8</ele>
        <time>2012-08-09T07:50:48Z</time>
      </trkpt>
      <trkpt lat="44.22783" lon="4.09767">
        <ele>311.5</ele>
        <time>2012-08-09T07:50:53Z</time>
      </trkpt>
      <trkpt lat="44.22786" lon="4.09767">
        <ele>311.3</ele>
        <time>2012-08-09T07:50:54Z</time>
      </trkpt>
      <trkpt lat="44.22807" lon="4.0976">
        <ele>312.8</ele>
        <time>2012-08-09T07:51:03Z</time>
      </trkpt>
      <trkpt lat="44.22817" lon="4.09757">
        <ele>313.3</ele>
        <time>2012-08-09T07:51:08Z</time>
      </trkpt>
      <trkpt lat="44.22818" lon="4.09757">
        <ele>313.1</ele>
        <time>2012-08-09T07:51:13Z</time>
      </trkpt>
      <trkpt lat="44.22821" lon="4.09755">
        <ele>314.5</ele>
        <time>2012-08-09T07:51:18Z</time>
      </trkpt>
      <trkpt lat="44.22833" lon="4.09746">
        <ele>314.7</ele>
        <time>2012-08-09T07:51:23Z</time>
      </trkpt>
      <trkpt lat="44.22844" lon="4.09739">
        <ele>315.2</ele>
        <time>2012-08-09T07:51:28Z</time>
      </trkpt>
      <trkpt lat="44.22854" lon="4.09735">
        <ele>315.2</ele>
        <time>2012-08-09T07:51:33Z</time>
      </trkpt>
      <trkpt lat="44.22864" lon="4.0973">
        <ele>315.7</ele>
        <time>2012-08-09T07:51:38Z</time>
      </trkpt>
      <trkpt lat="44.22872" lon="4.09723">
        <ele>316.6</ele>
        <time>2012-08-09T07:51:43Z</time>
      </trkpt>
      <trkpt lat="44.22874" lon="4.09723">
        <ele>316.5</ele>
        <time>2012-08-09T07:51:48Z</time>
      </trkpt>
      <trkpt lat="44.22876" lon="4.09722">
        <ele>317.2</ele>
        <time>2012-08-09T07:51:53Z</time>
      </trkpt>
      <trkpt lat="44.22878" lon="4.09721">
        <ele>316.7</ele>
        <time>2012-08-09T07:51:58Z</time>
      </trkpt>
      <trkpt lat="44.22879" lon="4.09721">
        <ele>317.2</ele>
        <time>2012-08-09T07:51:59Z</time>
      </trkpt>
      <trkpt lat="44.22884" lon="4.0972">
        <ele>318</ele>
        <time>2012-08-09T07:52:08Z</time>
      </trkpt>
      <trkpt lat="44.22893" lon="4.09722">
        <ele>319.7</ele>
        <time>2012-08-09T07:52:13Z</time>
      </trkpt>
      <trkpt lat="44.22901" lon="4.09723">
        <ele>319.5</ele>
        <time>2012-08-09T07:52:18Z</time>
      </trkpt>
      <trkpt lat="44.22909" lon="4.09724">
        <ele>320.6</ele>
        <time>2012-08-09T07:52:23Z</time>
      </trkpt>
      <trkpt lat="44.22917" lon="4.09725">
        <ele>321.3</ele>
        <time>2012-08-09T07:52:28Z</time>
      </trkpt>
      <trkpt lat="44.22925" lon="4.09727">
        <ele>322.1</ele>
        <time>2012-08-09T07:52:33Z</time>
      </trkpt>
      <trkpt lat="44.22932" lon="4.0973">
        <ele>323.2</ele>
        <time>2012-08-09T07:52:38Z</time>
      </trkpt>
      <trkpt lat="44.2294" lon="4.09733">
        <ele>324.6</ele>
        <time>2012-08-09T07:52:43Z</time>
      </trkpt>
      <trkpt lat="44.22949" lon="4.09736">
        <ele>325.1</ele>
        <time>2012-08-09T07:52:48Z</time>
      </trkpt>
      <trkpt lat="44.2296" lon="4.09736">
        <ele>326.2</ele>
        <time>2012-08-09T07:52:53Z</time>
      </trkpt>
      <trkpt lat="44.22969" lon="4.09735">
        <ele>327.6</ele>
        <time>2012-08-09T07:52:58Z</time>
      </trkpt>
      <trkpt lat="44.22979" lon="4.09736">
        <ele>328.2</ele>
        <time>2012-08-09T07:53:03Z</time>
      </trkpt>
      <trkpt lat="44.22982" lon="4.09737">
        <ele>327.8</ele>
        <time>2012-08-09T07:53:04Z</time>
      </trkpt>
      <trkpt lat="44.22999" lon="4.09745">
        <ele>329.7</ele>
        <time>2012-08-09T07:53:13Z</time>
      </trkpt>
      <trkpt lat="44.23007" lon="4.09749">
        <ele>331</ele>
        <time>2012-08-09T07:53:18Z</time>
      </trkpt>
      <trkpt lat="44.23014" lon="4.09753">
        <ele>332.1</ele>
        <time>2012-08-09T07:53:23Z</time>
      </trkpt>
      <trkpt lat="44.23023" lon="4.09758">
        <ele>333.7</ele>
        <time>2012-08-09T07:53:28Z</time>
      </trkpt>
      <trkpt lat="44.23031" lon="4.0976">
        <ele>334.5</ele>
        <time>2012-08-09T07:53:33Z</time>
      </trkpt>
      <trkpt lat="44.23039" lon="4.09761">
        <ele>335.3</ele>
        <time>2012-08-09T07:53:38Z</time>
      </trkpt>
      <trkpt lat="44.23046" lon="4.09763">
        <ele>336.7</ele>
        <time>2012-08-09T07:53:43Z</time>
      </trkpt>
      <trkpt lat="44.23053" lon="4.09765">
        <ele>337.2</ele>
        <time>2012-08-09T07:53:48Z</time>
      </trkpt>
      <trkpt lat="44.23061" lon="4.09767">
        <ele>338.5</ele>
        <time>2012-08-09T07:53:53Z</time>
      </trkpt>
      <trkpt lat="44.23068" lon="4.09768">
        <ele>339.2</ele>
        <time>2012-08-09T07:53:58Z</time>
      </trkpt>
      <trkpt lat="44.23076" lon="4.09771">
        <ele>340.6</ele>
        <time>2012-08-09T07:54:03Z</time>
      </trkpt>
      <trkpt lat="44.23084" lon="4.09769">
        <ele>341.3</ele>
        <time>2012-08-09T07:54:08Z</time>
      </trkpt>
      <trkpt lat="44.23086" lon="4.09768">
        <ele>341.7</ele>
        <time>2012-08-09T07:54:09Z</time>
      </trkpt>
      <trkpt lat="44.23104" lon="4.09761">
        <ele>341.2</ele>
        <time>2012-08-09T07:54:18Z</time>
      </trkpt>
      <trkpt lat="44.23096" lon="4.09741">
        <ele>341.8</ele>
        <time>2012-08-09T07:54:23Z</time>
      </trkpt>
      <trkpt lat="44.23076" lon="4.09729">
        <ele>341.1</ele>
        <time>2012-08-09T07:54:28Z</time>
      </trkpt>
      <trkpt lat="44.23059" lon="4.09718">
        <ele>341.2</ele>
        <time>2012-08-09T07:54:33Z</time>
      </trkpt>
      <trkpt lat="44.23045" lon="4.09711">
        <ele>340.8</ele>
        <time>2012-08-09T07:54:38Z</time>
      </trkpt>
      <trkpt lat="44.23028" lon="4.09703">
        <ele>340.5</ele>
        <time>2012-08-09T07:54:43Z</time>
      </trkpt>
      <trkpt lat="44.23016" lon="4.09697">
        <ele>340.1</ele>
        <time>2012-08-09T07:54:48Z</time>
      </trkpt>
      <trkpt lat="44.23007" lon="4.0969">
        <ele>340.2</ele>
        <time>2012-08-09T07:54:53Z</time>
      </trkpt>
      <trkpt lat="44.22995" lon="4.09676">
        <ele>340.1</ele>
        <time>2012-08-09T07:54:58Z</time>
      </trkpt>
      <trkpt lat="44.22982" lon="4.0967">
        <ele>340.5</ele>
        <time>2012-08-09T07:55:03Z</time>
      </trkpt>
      <trkpt lat="44.22969" lon="4.09664">
        <ele>340.7</ele>
        <time>2012-08-09T07:55:08Z</time>
      </trkpt>
      <trkpt lat="44.22957" lon="4.09657">
        <ele>341.6</ele>
        <time>2012-08-09T07:55:13Z</time>
      </trkpt>
      <trkpt lat="44.22955" lon="4.09655">
        <ele>341.6</ele>
        <time>2012-08-09T07:55:14Z</time>
      </trkpt>
      <trkpt lat="44.22933" lon="4.0964">
        <ele>341.2</ele>
        <time>2012-08-09T07:55:23Z</time>
      </trkpt>
      <trkpt lat="44.22919" lon="4.09633">
        <ele>341.7</ele>
        <time>2012-08-09T07:55:28Z</time>
      </trkpt>
      <trkpt lat="44.22906" lon="4.09626">
        <ele>341.2</ele>
        <time>2012-08-09T07:55:33Z</time>
      </trkpt>
      <trkpt lat="44.22892" lon="4.09619">
        <ele>342.2</ele>
        <time>2012-08-09T07:55:38Z</time>
      </trkpt>
      <trkpt lat="44.2288" lon="4.09609">
        <ele>344.1</ele>
        <time>2012-08-09T07:55:43Z</time>
      </trkpt>
      <trkpt lat="44.22867" lon="4.09595">
        <ele>343.7</ele>
        <time>2012-08-09T07:55:48Z</time>
      </trkpt>
      <trkpt lat="44.22854" lon="4.09573">
        <ele>344</ele>
        <time>2012-08-09T07:55:53Z</time>
      </trkpt>
      <trkpt lat="44.22842" lon="4.09549">
        <ele>344.2</ele>
        <time>2012-08-09T07:55:58Z</time>
      </trkpt>
      <trkpt lat="44.22837" lon="4.09518">
        <ele>344.5</ele>
        <time>2012-08-09T07:56:03Z</time>
      </trkpt>
      <trkpt lat="44.22833" lon="4.09486">
        <ele>344.8</ele>
        <time>2012-08-09T07:56:08Z</time>
      </trkpt>
      <trkpt lat="44.22815" lon="4.09477">
        <ele>345.2</ele>
        <time>2012-08-09T07:56:13Z</time>
      </trkpt>
      <trkpt lat="44.22801" lon="4.09471">
        <ele>346</ele>
        <time>2012-08-09T07:56:18Z</time>
      </trkpt>
      <trkpt lat="44.22798" lon="4.0947">
        <ele>346</ele>
        <time>2012-08-09T07:56:19Z</time>
      </trkpt>
      <trkpt lat="44.22771" lon="4.09448">
        <ele>346.7</ele>
        <time>2012-08-09T07:56:28Z</time>
      </trkpt>
      <trkpt lat="44.22761" lon="4.09428">
        <ele>346.7</ele>
        <time>2012-08-09T07:56:33Z</time>
      </trkpt>
      <trkpt lat="44.2275" lon="4.09408">
        <ele>346.8</ele>
        <time>2012-08-09T07:56:38Z</time>
      </trkpt>
      <trkpt lat="44.22741" lon="4.09383">
        <ele>347.5</ele>
        <time>2012-08-09T07:56:43Z</time>
      </trkpt>
      <trkpt lat="44.22735" lon="4.09362">
        <ele>347.5</ele>
        <time>2012-08-09T07:56:48Z</time>
      </trkpt>
      <trkpt lat="44.22726" lon="4.09341">
        <ele>347.3</ele>
        <time>2012-08-09T07:56:53Z</time>
      </trkpt>
      <trkpt lat="44.22712" lon="4.09319">
        <ele>348.1</ele>
        <time>2012-08-09T07:56:58Z</time>
      </trkpt>
      <trkpt lat="44.22701" lon="4.09296">
        <ele>348.1</ele>
        <time>2012-08-09T07:57:03Z</time>
      </trkpt>
      <trkpt lat="44.22695" lon="4.09266">
        <ele>347.6</ele>
        <time>2012-08-09T07:57:08Z</time>
      </trkpt>
      <trkpt lat="44.2269" lon="4.09232">
        <ele>348.2</ele>
        <time>2012-08-09T07:57:13Z</time>
      </trkpt>
      <trkpt lat="44.22691" lon="4.09206">
        <ele>349</ele>
        <time>2012-08-09T07:57:18Z</time>
      </trkpt>
      <trkpt lat="44.22686" lon="4.09187">
        <ele>349.2</ele>
        <time>2012-08-09T07:57:23Z</time>
      </trkpt>
      <trkpt lat="44.22684" lon="4.09186">
        <ele>349.5</ele>
        <time>2012-08-09T07:57:24Z</time>
      </trkpt>
      <trkpt lat="44.22682" lon="4.09114">
        <ele>350.3</ele>
        <time>2012-08-09T07:57:33Z</time>
      </trkpt>
      <trkpt lat="44.22695" lon="4.09077">
        <ele>350.1</ele>
        <time>2012-08-09T07:57:38Z</time>
      </trkpt>
      <trkpt lat="44.22716" lon="4.09066">
        <ele>350.7</ele>
        <time>2012-08-09T07:57:43Z</time>
      </trkpt>
      <trkpt lat="44.22736" lon="4.09061">
        <ele>351.2</ele>
        <time>2012-08-09T07:57:48Z</time>
      </trkpt>
      <trkpt lat="44.22754" lon="4.09057">
        <ele>350.7</ele>
        <time>2012-08-09T07:57:53Z</time>
      </trkpt>
      <trkpt lat="44.22774" lon="4.09053">
        <ele>350.6</ele>
        <time>2012-08-09T07:57:58Z</time>
      </trkpt>
      <trkpt lat="44.22795" lon="4.09049">
        <ele>350.5</ele>
        <time>2012-08-09T07:58:03Z</time>
      </trkpt>
      <trkpt lat="44.22814" lon="4.09043">
        <ele>351</ele>
        <time>2012-08-09T07:58:08Z</time>
      </trkpt>
      <trkpt lat="44.22833" lon="4.09037">
        <ele>351.7</ele>
        <time>2012-08-09T07:58:13Z</time>
      </trkpt>
      <trkpt lat="44.22853" lon="4.09038">
        <ele>352.2</ele>
        <time>2012-08-09T07:58:18Z</time>
      </trkpt>
      <trkpt lat="44.2287" lon="4.09035">
        <ele>352.3</ele>
        <time>2012-08-09T07:58:23Z</time>
      </trkpt>
      <trkpt lat="44.22886" lon="4.09033">
        <ele>353</ele>
        <time>2012-08-09T07:58:28Z</time>
      </trkpt>
      <trkpt lat="44.22889" lon="4.09033">
        <ele>352.8</ele>
        <time>2012-08-09T07:58:29Z</time>
      </trkpt>
      <trkpt lat="44.22919" lon="4.09039">
        <ele>354.3</ele>
        <time>2012-08-09T07:58:38Z</time>
      </trkpt>
      <trkpt lat="44.22934" lon="4.09041">
        <ele>355.6</ele>
        <time>2012-08-09T07:58:43Z</time>
      </trkpt>
      <trkpt lat="44.2295" lon="4.09039">
        <ele>356.2</ele>
        <time>2012-08-09T07:58:48Z</time>
      </trkpt>
      <trkpt lat="44.22965" lon="4.09036">
        <ele>356.2</ele>
        <time>2012-08-09T07:58:53Z</time>
      </trkpt>
      <trkpt lat="44.22983" lon="4.09037">
        <ele>355.7</ele>
        <time>2012-08-09T07:58:58Z</time>
      </trkpt>
      <trkpt lat="44.22999" lon="4.09042">
        <ele>356.1</ele>
        <time>2012-08-09T07:59:03Z</time>
      </trkpt>
      <trkpt lat="44.23014" lon="4.09046">
        <ele>355.7</ele>
        <time>2012-08-09T07:59:08Z</time>
      </trkpt>
      <trkpt lat="44.23026" lon="4.09031">
        <ele>356</ele>
        <time>2012-08-09T07:59:13Z</time>
      </trkpt>
      <trkpt lat="44.23023" lon="4.09008">
        <ele>356</ele>
        <time>2012-08-09T07:59:18Z</time>
      </trkpt>
      <trkpt lat="44.23018" lon="4.08988">
        <ele>356.7</ele>
        <time>2012-08-09T07:59:23Z</time>
      </trkpt>
      <trkpt lat="44.23013" lon="4.08968">
        <ele>357.3</ele>
        <time>2012-08-09T07:59:28Z</time>
      </trkpt>
      <trkpt lat="44.23025" lon="4.08948">
        <ele>357.7</ele>
        <time>2012-08-09T07:59:33Z</time>
      </trkpt>
      <trkpt lat="44.23029" lon="4.08945">
        <ele>357.8</ele>
        <time>2012-08-09T07:59:34Z</time>
      </trkpt>
      <trkpt lat="44.23067" lon="4.08934">
        <ele>357.2</ele>
        <time>2012-08-09T07:59:43Z</time>
      </trkpt>
      <trkpt lat="44.23089" lon="4.08923">
        <ele>358</ele>
        <time>2012-08-09T07:59:48Z</time>
      </trkpt>
      <trkpt lat="44.23105" lon="4.08903">
        <ele>358.2</ele>
        <time>2012-08-09T07:59:53Z</time>
      </trkpt>
      <trkpt lat="44.23117" lon="4.08876">
        <ele>358.2</ele>
        <time>2012-08-09T07:59:58Z</time>
      </trkpt>
      <trkpt lat="44.23106" lon="4.08848">
        <ele>359.2</ele>
        <time>2012-08-09T08:00:03Z</time>
      </trkpt>
      <trkpt lat="44.23079" lon="4.08839">
        <ele>358.5</ele>
        <time>2012-08-09T08:00:08Z</time>
      </trkpt>
      <trkpt lat="44.23054" lon="4.08819">
        <ele>358.7</ele>
        <time>2012-08-09T08:00:13Z</time>
      </trkpt>
      <trkpt lat="44.23046" lon="4.0878">
        <ele>359.7</ele>
        <time>2012-08-09T08:00:18Z</time>
      </trkpt>
      <trkpt lat="44.23034" lon="4.0874">
        <ele>360.1</ele>
        <time>2012-08-09T08:00:23Z</time>
      </trkpt>
      <trkpt lat="44.23016" lon="4.08722">
        <ele>360.8</ele>
        <time>2012-08-09T08:00:28Z</time>
      </trkpt>
      <trkpt lat="44.23003" lon="4.0876">
        <ele>360.2</ele>
        <time>2012-08-09T08:00:33Z</time>
      </trkpt>
      <trkpt lat="44.22997" lon="4.08798">
        <ele>358.8</ele>
        <time>2012-08-09T08:00:38Z</time>
      </trkpt>
      <trkpt lat="44.22993" lon="4.08804">
        <ele>359</ele>
        <time>2012-08-09T08:00:39Z</time>
      </trkpt>
      <trkpt lat="44.22942" lon="4.08832">
        <ele>356.7</ele>
        <time>2012-08-09T08:00:48Z</time>
      </trkpt>
      <trkpt lat="44.22913" lon="4.08819">
        <ele>355.3</ele>
        <time>2012-08-09T08:00:53Z</time>
      </trkpt>
      <trkpt lat="44.22888" lon="4.08788">
        <ele>352.7</ele>
        <time>2012-08-09T08:00:58Z</time>
      </trkpt>
      <trkpt lat="44.22858" lon="4.08783">
        <ele>351.7</ele>
        <time>2012-08-09T08:01:03Z</time>
      </trkpt>
      <trkpt lat="44.22837" lon="4.08759">
        <ele>351.2</ele>
        <time>2012-08-09T08:01:08Z</time>
      </trkpt>
      <trkpt lat="44.22817" lon="4.0874">
        <ele>349.8</ele>
        <time>2012-08-09T08:01:13Z</time>
      </trkpt>
      <trkpt lat="44.22795" lon="4.08734">
        <ele>349.5</ele>
        <time>2012-08-09T08:01:18Z</time>
      </trkpt>
      <trkpt lat="44.22774" lon="4.08723">
        <ele>348.7</ele>
        <time>2012-08-09T08:01:23Z</time>
      </trkpt>
      <trkpt lat="44.2275" lon="4.08717">
        <ele>349.1</ele>
        <time>2012-08-09T08:01:28Z</time>
      </trkpt>
      <trkpt lat="44.22726" lon="4.08727">
        <ele>348</ele>
        <time>2012-08-09T08:01:33Z</time>
      </trkpt>
      <trkpt lat="44.22709" lon="4.08753">
        <ele>346.5</ele>
        <time>2012-08-09T08:01:38Z</time>
      </trkpt>
      <trkpt lat="44.22694" lon="4.08789">
        <ele>344.2</ele>
        <time>2012-08-09T08:01:43Z</time>
      </trkpt>
      <trkpt lat="44.22688" lon="4.08792">
        <ele>343.6</ele>
        <time>2012-08-09T08:01:44Z</time>
      </trkpt>
      <trkpt lat="44.22635" lon="4.08809">
        <ele>344.7</ele>
        <time>2012-08-09T08:01:53Z</time>
      </trkpt>
      <trkpt lat="44.2261" lon="4.08805">
        <ele>344.6</ele>
        <time>2012-08-09T08:01:58Z</time>
      </trkpt>
      <trkpt lat="44.22593" lon="4.08787">
        <ele>343.2</ele>
        <time>2012-08-09T08:02:03Z</time>
      </trkpt>
      <trkpt lat="44.22589" lon="4.08767">
        <ele>342.6</ele>
        <time>2012-08-09T08:02:08Z</time>
      </trkpt>
      <trkpt lat="44.22588" lon="4.08739">
        <ele>341.1</ele>
        <time>2012-08-09T08:02:13Z</time>
      </trkpt>
      <trkpt lat="44.2259" lon="4.087">
        <ele>339.6</ele>
        <time>2012-08-09T08:02:18Z</time>
      </trkpt>
      <trkpt lat="44.22598" lon="4.08654">
        <ele>338.6</ele>
        <time>2012-08-09T08:02:23Z</time>
      </trkpt>
      <trkpt lat="44.22616" lon="4.08627">
        <ele>337.5</ele>
        <time>2012-08-09T08:02:28Z</time>
      </trkpt>
      <trkpt lat="44.22618" lon="4.08623">
        <ele>337.5</ele>
        <time>2012-08-09T08:02:33Z</time>
      </trkpt>
      <trkpt lat="44.22618" lon="4.08623">
        <ele>337.5</ele>
        <time>2012-08-09T08:02:38Z</time>
      </trkpt>
      <trkpt lat="44.22618" lon="4.08623">
        <ele>337.5</ele>
        <time>2012-08-09T08:02:43Z</time>
      </trkpt>
      <trkpt lat="44.22618" lon="4.08623">
        <ele>337.5</ele>
        <time>2012-08-09T08:02:48Z</time>
      </trkpt>
      <trkpt lat="44.22618" lon="4.08623">
        <ele>337.5</ele>
        <time>2012-08-09T08:02:49Z</time>
      </trkpt>
      <trkpt lat="44.22618" lon="4.08623">
        <ele>337.5</ele>
        <time>2012-08-09T08:02:58Z</time>
      </trkpt>
      <trkpt lat="44.22618" lon="4.08623">
        <ele>337.5</ele>
        <time>2012-08-09T08:03:03Z</time>
      </trkpt>
      <trkpt lat="44.22618" lon="4.08623">
        <ele>337.5</ele>
        <time>2012-08-09T08:03:08Z</time>
      </trkpt>
      <trkpt lat="44.22618" lon="4.08623">
        <ele>337.5</ele>
        <time>2012-08-09T08:03:13Z</time>
      </trkpt>
      <trkpt lat="44.22618" lon="4.08623">
        <ele>337.5</ele>
        <time>2012-08-09T08:03:18Z</time>
      </trkpt>
      <trkpt lat="44.22618" lon="4.08623">
        <ele>337.5</ele>
        <time>2012-08-09T08:03:23Z</time>
      </trkpt>
      <trkpt lat="44.22618" lon="4.08623">
        <ele>337.5</ele>
        <time>2012-08-09T08:03:28Z</time>
      </trkpt>
      <trkpt lat="44.22618" lon="4.08623">
        <ele>337.5</ele>
        <time>2012-08-09T08:03:33Z</time>
      </trkpt>
      <trkpt lat="44.22618" lon="4.08623">
        <ele>337.5</ele>
        <time>2012-08-09T08:03:38Z</time>
      </trkpt>
      <trkpt lat="44.22618" lon="4.08622">
        <ele>337.7</ele>
        <time>2012-08-09T08:03:43Z</time>
      </trkpt>
      <trkpt lat="44.22618" lon="4.08622">
        <ele>337.7</ele>
        <time>2012-08-09T08:03:48Z</time>
      </trkpt>
      <trkpt lat="44.22618" lon="4.08622">
        <ele>337.7</ele>
        <time>2012-08-09T08:03:53Z</time>
      </trkpt>
      <trkpt lat="44.22618" lon="4.08622">
        <ele>337.7</ele>
        <time>2012-08-09T08:03:54Z</time>
      </trkpt>
      <trkpt lat="44.22618" lon="4.08622">
        <ele>337.7</ele>
        <time>2012-08-09T08:04:03Z</time>
      </trkpt>
      <trkpt lat="44.22618" lon="4.08622">
        <ele>337.7</ele>
        <time>2012-08-09T08:04:08Z</time>
      </trkpt>
      <trkpt lat="44.22618" lon="4.08622">
        <ele>337.7</ele>
        <time>2012-08-09T08:04:13Z</time>
      </trkpt>
      <trkpt lat="44.22618" lon="4.08622">
        <ele>337.7</ele>
        <time>2012-08-09T08:04:18Z</time>
      </trkpt>
      <trkpt lat="44.22617" lon="4.08618">
        <ele>339</ele>
        <time>2012-08-09T08:04:23Z</time>
      </trkpt>
      <trkpt lat="44.22617" lon="4.08602">
        <ele>339.3</ele>
        <time>2012-08-09T08:04:28Z</time>
      </trkpt>
      <trkpt lat="44.22611" lon="4.08585">
        <ele>340.7</ele>
        <time>2012-08-09T08:04:33Z</time>
      </trkpt>
      <trkpt lat="44.22602" lon="4.08571">
        <ele>340.6</ele>
        <time>2012-08-09T08:04:38Z</time>
      </trkpt>
      <trkpt lat="44.22587" lon="4.08565">
        <ele>340.2</ele>
        <time>2012-08-09T08:04:43Z</time>
      </trkpt>
      <trkpt lat="44.22573" lon="4.08566">
        <ele>341.2</ele>
        <time>2012-08-09T08:04:48Z</time>
      </trkpt>
      <trkpt lat="44.22559" lon="4.08563">
        <ele>340.8</ele>
        <time>2012-08-09T08:04:53Z</time>
      </trkpt>
      <trkpt lat="44.22547" lon="4.08548">
        <ele>339.8</ele>
        <time>2012-08-09T08:04:58Z</time>
      </trkpt>
      <trkpt lat="44.22545" lon="4.08544">
        <ele>340.1</ele>
        <time>2012-08-09T08:04:59Z</time>
      </trkpt>
      <trkpt lat="44.22514" lon="4.08517">
        <ele>339.5</ele>
        <time>2012-08-09T08:05:08Z</time>
      </trkpt>
      <trkpt lat="44.22496" lon="4.08492">
        <ele>338.7</ele>
        <time>2012-08-09T08:05:13Z</time>
      </trkpt>
      <trkpt lat="44.2248" lon="4.0847">
        <ele>338.7</ele>
        <time>2012-08-09T08:05:18Z</time>
      </trkpt>
      <trkpt lat="44.22468" lon="4.08447">
        <ele>337.6</ele>
        <time>2012-08-09T08:05:23Z</time>
      </trkpt>
      <trkpt lat="44.22455" lon="4.08411">
        <ele>337.5</ele>
        <time>2012-08-09T08:05:28Z</time>
      </trkpt>
      <trkpt lat="44.2244" lon="4.08372">
        <ele>337.8</ele>
        <time>2012-08-09T08:05:33Z</time>
      </trkpt>
      <trkpt lat="44.22426" lon="4.08332">
        <ele>336.5</ele>
        <time>2012-08-09T08:05:38Z</time>
      </trkpt>
      <trkpt lat="44.22409" lon="4.08294">
        <ele>333.5</ele>
        <time>2012-08-09T08:05:43Z</time>
      </trkpt>
      <trkpt lat="44.22394" lon="4.08271">
        <ele>331.6</ele>
        <time>2012-08-09T08:05:48Z</time>
      </trkpt>
      <trkpt lat="44.22391" lon="4.08288">
        <ele>331.2</ele>
        <time>2012-08-09T08:05:53Z</time>
      </trkpt>
      <trkpt lat="44.22399" lon="4.08284">
        <ele>330.2</ele>
        <time>2012-08-09T08:05:58Z</time>
      </trkpt>
      <trkpt lat="44.22395" lon="4.08261">
        <ele>332.3</ele>
        <time>2012-08-09T08:06:03Z</time>
      </trkpt>
      <trkpt lat="44.22394" lon="4.08257">
        <ele>332.2</ele>
        <time>2012-08-09T08:06:04Z</time>
      </trkpt>
      <trkpt lat="44.22384" lon="4.08218">
        <ele>331.8</ele>
        <time>2012-08-09T08:06:13Z</time>
      </trkpt>
      <trkpt lat="44.22385" lon="4.08199">
        <ele>332.6</ele>
        <time>2012-08-09T08:06:18Z</time>
      </trkpt>
      <trkpt lat="44.22391" lon="4.08186">
        <ele>333.7</ele>
        <time>2012-08-09T08:06:23Z</time>
      </trkpt>
      <trkpt lat="44.22398" lon="4.08173">
        <ele>334.8</ele>
        <time>2012-08-09T08:06:28Z</time>
      </trkpt>
      <trkpt lat="44.22403" lon="4.08161">
        <ele>336.1</ele>
        <time>2012-08-09T08:06:33Z</time>
      </trkpt>
      <trkpt lat="44.22408" lon="4.08148">
        <ele>337.3</ele>
        <time>2012-08-09T08:06:38Z</time>
      </trkpt>
      <trkpt lat="44.22414" lon="4.08136">
        <ele>338.3</ele>
        <time>2012-08-09T08:06:43Z</time>
      </trkpt>
      <trkpt lat="44.22418" lon="4.08125">
        <ele>339.1</ele>
        <time>2012-08-09T08:06:48Z</time>
      </trkpt>
      <trkpt lat="44.2242" lon="4.08111">
        <ele>340</ele>
        <time>2012-08-09T08:06:53Z</time>
      </trkpt>
      <trkpt lat="44.22419" lon="4.08096">
        <ele>340.5</ele>
        <time>2012-08-09T08:06:58Z</time>
      </trkpt>
      <trkpt lat="44.22414" lon="4.08084">
        <ele>341</ele>
        <time>2012-08-09T08:07:03Z</time>
      </trkpt>
      <trkpt lat="44.22407" lon="4.08076">
        <ele>340.5</ele>
        <time>2012-08-09T08:07:08Z</time>
      </trkpt>
      <trkpt lat="44.22406" lon="4.08074">
        <ele>340.7</ele>
        <time>2012-08-09T08:07:09Z</time>
      </trkpt>
      <trkpt lat="44.22399" lon="4.08091">
        <ele>340.7</ele>
        <time>2012-08-09T08:07:18Z</time>
      </trkpt>
      <trkpt lat="44.22385" lon="4.08111">
        <ele>340.2</ele>
        <time>2012-08-09T08:07:23Z</time>
      </trkpt>
      <trkpt lat="44.22374" lon="4.08152">
        <ele>339.3</ele>
        <time>2012-08-09T08:07:28Z</time>
      </trkpt>
      <trkpt lat="44.22361" lon="4.08194">
        <ele>338.3</ele>
        <time>2012-08-09T08:07:33Z</time>
      </trkpt>
      <trkpt lat="44.22349" lon="4.08234">
        <ele>337.8</ele>
        <time>2012-08-09T08:07:38Z</time>
      </trkpt>
      <trkpt lat="44.22339" lon="4.08262">
        <ele>338.7</ele>
        <time>2012-08-09T08:07:43Z</time>
      </trkpt>
      <trkpt lat="44.22331" lon="4.08283">
        <ele>339.7</ele>
        <time>2012-08-09T08:07:48Z</time>
      </trkpt>
      <trkpt lat="44.22322" lon="4.08302">
        <ele>341</ele>
        <time>2012-08-09T08:07:53Z</time>
      </trkpt>
      <trkpt lat="44.22313" lon="4.08318">
        <ele>341.7</ele>
        <time>2012-08-09T08:07:58Z</time>
      </trkpt>
      <trkpt lat="44.22305" lon="4.08332">
        <ele>343.1</ele>
        <time>2012-08-09T08:08:03Z</time>
      </trkpt>
      <trkpt lat="44.22297" lon="4.08345">
        <ele>343.3</ele>
        <time>2012-08-09T08:08:08Z</time>
      </trkpt>
      <trkpt lat="44.22289" lon="4.08357">
        <ele>344.6</ele>
        <time>2012-08-09T08:08:13Z</time>
      </trkpt>
      <trkpt lat="44.22287" lon="4.08359">
        <ele>344.6</ele>
        <time>2012-08-09T08:08:14Z</time>
      </trkpt>
      <trkpt lat="44.22273" lon="4.08374">
        <ele>346.3</ele>
        <time>2012-08-09T08:08:23Z</time>
      </trkpt>
      <trkpt lat="44.22264" lon="4.08382">
        <ele>347.5</ele>
        <time>2012-08-09T08:08:28Z</time>
      </trkpt>
      <trkpt lat="44.22255" lon="4.0839">
        <ele>348.5</ele>
        <time>2012-08-09T08:08:33Z</time>
      </trkpt>
      <trkpt lat="44.22246" lon="4.08395">
        <ele>349.7</ele>
        <time>2012-08-09T08:08:38Z</time>
      </trkpt>
      <trkpt lat="44.22236" lon="4.08402">
        <ele>350.7</ele>
        <time>2012-08-09T08:08:43Z</time>
      </trkpt>
      <trkpt lat="44.22228" lon="4.08406">
        <ele>351.7</ele>
        <time>2012-08-09T08:08:48Z</time>
      </trkpt>
      <trkpt lat="44.22217" lon="4.08412">
        <ele>352.5</ele>
        <time>2012-08-09T08:08:53Z</time>
      </trkpt>
      <trkpt lat="44.22208" lon="4.08415">
        <ele>353.7</ele>
        <time>2012-08-09T08:08:58Z</time>
      </trkpt>
      <trkpt lat="44.22199" lon="4.08418">
        <ele>354.7</ele>
        <time>2012-08-09T08:09:03Z</time>
      </trkpt>
      <trkpt lat="44.2219" lon="4.08419">
        <ele>355.8</ele>
        <time>2012-08-09T08:09:08Z</time>
      </trkpt>
      <trkpt lat="44.2218" lon="4.0842">
        <ele>356.6</ele>
        <time>2012-08-09T08:09:13Z</time>
      </trkpt>
      <trkpt lat="44.2217" lon="4.08418">
        <ele>357.2</ele>
        <time>2012-08-09T08:09:18Z</time>
      </trkpt>
      <trkpt lat="44.22168" lon="4.08418">
        <ele>357.3</ele>
        <time>2012-08-09T08:09:19Z</time>
      </trkpt>
      <trkpt lat="44.2215" lon="4.08413">
        <ele>359.1</ele>
        <time>2012-08-09T08:09:28Z</time>
      </trkpt>
      <trkpt lat="44.22141" lon="4.08409">
        <ele>360.1</ele>
        <time>2012-08-09T08:09:33Z</time>
      </trkpt>
      <trkpt lat="44.22131" lon="4.08405">
        <ele>361.3</ele>
        <time>2012-08-09T08:09:38Z</time>
      </trkpt>
      <trkpt lat="44.22124" lon="4.08399">
        <ele>362.1</ele>
        <time>2012-08-09T08:09:43Z</time>
      </trkpt>
      <trkpt lat="44.22116" lon="4.08394">
        <ele>363.1</ele>
        <time>2012-08-09T08:09:48Z</time>
      </trkpt>
      <trkpt lat="44.22108" lon="4.08387">
        <ele>363.7</ele>
        <time>2012-08-09T08:09:53Z</time>
      </trkpt>
      <trkpt lat="44.221" lon="4.08382">
        <ele>364.6</ele>
        <time>2012-08-09T08:09:58Z</time>
      </trkpt>
      <trkpt lat="44.22091" lon="4.08375">
        <ele>365.6</ele>
        <time>2012-08-09T08:10:03Z</time>
      </trkpt>
      <trkpt lat="44.22082" lon="4.08368">
        <ele>366.7</ele>
        <time>2012-08-09T08:10:08Z</time>
      </trkpt>
      <trkpt lat="44.22072" lon="4.0836">
        <ele>368</ele>
        <time>2012-08-09T08:10:13Z</time>
      </trkpt>
      <trkpt lat="44.22063" lon="4.08352">
        <ele>368.6</ele>
        <time>2012-08-09T08:10:18Z</time>
      </trkpt>
      <trkpt lat="44.22055" lon="4.08347">
        <ele>369.2</ele>
        <time>2012-08-09T08:10:23Z</time>
      </trkpt>
      <trkpt lat="44.22053" lon="4.08345">
        <ele>369.3</ele>
        <time>2012-08-09T08:10:24Z</time>
      </trkpt>
      <trkpt lat="44.22036" lon="4.08336">
        <ele>370.6</ele>
        <time>2012-08-09T08:10:33Z</time>
      </trkpt>
      <trkpt lat="44.22027" lon="4.08331">
        <ele>371.1</ele>
        <time>2012-08-09T08:10:38Z</time>
      </trkpt>
      <trkpt lat="44.22018" lon="4.08327">
        <ele>372</ele>
        <time>2012-08-09T08:10:43Z</time>
      </trkpt>
      <trkpt lat="44.22008" lon="4.08325">
        <ele>372.7</ele>
        <time>2012-08-09T08:10:48Z</time>
      </trkpt>
      <trkpt lat="44.21998" lon="4.08323">
        <ele>373.5</ele>
        <time>2012-08-09T08:10:53Z</time>
      </trkpt>
      <trkpt lat="44.21988" lon="4.08323">
        <ele>373.8</ele>
        <time>2012-08-09T08:10:58Z</time>
      </trkpt>
      <trkpt lat="44.21978" lon="4.08323">
        <ele>374.8</ele>
        <time>2012-08-09T08:11:03Z</time>
      </trkpt>
      <trkpt lat="44.21968" lon="4.08325">
        <ele>375.7</ele>
        <time>2012-08-09T08:11:08Z</time>
      </trkpt>
      <trkpt lat="44.21958" lon="4.08327">
        <ele>376.3</ele>
        <time>2012-08-09T08:11:13Z</time>
      </trkpt>
      <trkpt lat="44.21948" lon="4.0833">
        <ele>377.2</ele>
        <time>2012-08-09T08:11:18Z</time>
      </trkpt>
      <trkpt lat="44.21939" lon="4.08334">
        <ele>378.2</ele>
        <time>2012-08-09T08:11:23Z</time>
      </trkpt>
      <trkpt lat="44.2193" lon="4.08338">
        <ele>379.2</ele>
        <time>2012-08-09T08:11:28Z</time>
      </trkpt>
      <trkpt lat="44.21928" lon="4.0834">
        <ele>379.5</ele>
        <time>2012-08-09T08:11:29Z</time>
      </trkpt>
      <trkpt lat="44.21909" lon="4.08349">
        <ele>380.7</ele>
        <time>2012-08-09T08:11:38Z</time>
      </trkpt>
      <trkpt lat="44.219" lon="4.08355">
        <ele>381.3</ele>
        <time>2012-08-09T08:11:43Z</time>
      </trkpt>
      <trkpt lat="44.2189" lon="4.08359">
        <ele>382.5</ele>
        <time>2012-08-09T08:11:48Z</time>
      </trkpt>
      <trkpt lat="44.21879" lon="4.08364">
        <ele>383.5</ele>
        <time>2012-08-09T08:11:53Z</time>
      </trkpt>
      <trkpt lat="44.21869" lon="4.08368">
        <ele>384.7</ele>
        <time>2012-08-09T08:11:58Z</time>
      </trkpt>
      <trkpt lat="44.21859" lon="4.08371">
        <ele>385.7</ele>
        <time>2012-08-09T08:12:03Z</time>
      </trkpt>
      <trkpt lat="44.21849" lon="4.08373">
        <ele>386.7</ele>
        <time>2012-08-09T08:12:08Z</time>
      </trkpt>
      <trkpt lat="44.21839" lon="4.08375">
        <ele>387.2</ele>
        <time>2012-08-09T08:12:13Z</time>
      </trkpt>
      <trkpt lat="44.21829" lon="4.08377">
        <ele>388</ele>
        <time>2012-08-09T08:12:18Z</time>
      </trkpt>
      <trkpt lat="44.2182" lon="4.08377">
        <ele>388.8</ele>
        <time>2012-08-09T08:12:23Z</time>
      </trkpt>
      <trkpt lat="44.2181" lon="4.08378">
        <ele>389.6</ele>
        <time>2012-08-09T08:12:28Z</time>
      </trkpt>
      <trkpt lat="44.218" lon="4.08378">
        <ele>390.2</ele>
        <time>2012-08-09T08:12:33Z</time>
      </trkpt>
      <trkpt lat="44.21799" lon="4.08378">
        <ele>390.7</ele>
        <time>2012-08-09T08:12:34Z</time>
      </trkpt>
      <trkpt lat="44.21783" lon="4.08376">
        <ele>392.5</ele>
        <time>2012-08-09T08:12:43Z</time>
      </trkpt>
      <trkpt lat="44.21773" lon="4.08377">
        <ele>394.1</ele>
        <time>2012-08-09T08:12:48Z</time>
      </trkpt>
      <trkpt lat="44.21764" lon="4.08377">
        <ele>395.6</ele>
        <time>2012-08-09T08:12:53Z</time>
      </trkpt>
      <trkpt lat="44.21753" lon="4.08378">
        <ele>397.2</ele>
        <time>2012-08-09T08:12:58Z</time>
      </trkpt>
      <trkpt lat="44.21744" lon="4.0838">
        <ele>398.3</ele>
        <time>2012-08-09T08:13:03Z</time>
      </trkpt>
      <trkpt lat="44.21734" lon="4.08382">
        <ele>399.6</ele>
        <time>2012-08-09T08:13:08Z</time>
      </trkpt>
      <trkpt lat="44.21724" lon="4.08385">
        <ele>399.7</ele>
        <time>2012-08-09T08:13:13Z</time>
      </trkpt>
      <trkpt lat="44.21712" lon="4.08389">
        <ele>400.6</ele>
        <time>2012-08-09T08:13:18Z</time>
      </trkpt>
      <trkpt lat="44.21703" lon="4.08394">
        <ele>402</ele>
        <time>2012-08-09T08:13:23Z</time>
      </trkpt>
      <trkpt lat="44.21693" lon="4.08401">
        <ele>402.7</ele>
        <time>2012-08-09T08:13:28Z</time>
      </trkpt>
      <trkpt lat="44.21684" lon="4.08409">
        <ele>403.5</ele>
        <time>2012-08-09T08:13:33Z</time>
      </trkpt>
      <trkpt lat="44.21676" lon="4.08419">
        <ele>404.1</ele>
        <time>2012-08-09T08:13:38Z</time>
      </trkpt>
      <trkpt lat="44.21675" lon="4.0842">
        <ele>404.2</ele>
        <time>2012-08-09T08:13:39Z</time>
      </trkpt>
      <trkpt lat="44.21662" lon="4.08439">
        <ele>404.7</ele>
        <time>2012-08-09T08:13:48Z</time>
      </trkpt>
      <trkpt lat="44.21656" lon="4.08452">
        <ele>405.7</ele>
        <time>2012-08-09T08:13:53Z</time>
      </trkpt>
      <trkpt lat="44.21651" lon="4.08465">
        <ele>406.2</ele>
        <time>2012-08-09T08:13:58Z</time>
      </trkpt>
      <trkpt lat="44.21648" lon="4.08477">
        <ele>406.8</ele>
        <time>2012-08-09T08:14:03Z</time>
      </trkpt>
      <trkpt lat="44.21645" lon="4.0849">
        <ele>408</ele>
        <time>2012-08-09T08:14:08Z</time>
      </trkpt>
      <trkpt lat="44.21643" lon="4.08501">
        <ele>409.1</ele>
        <time>2012-08-09T08:14:13Z</time>
      </trkpt>
      <trkpt lat="44.21641" lon="4.08507">
        <ele>410</ele>
        <time>2012-08-09T08:14:18Z</time>
      </trkpt>
      <trkpt lat="44.21641" lon="4.08507">
        <ele>410</ele>
        <time>2012-08-09T08:14:23Z</time>
      </trkpt>
      <trkpt lat="44.21641" lon="4.08514">
        <ele>410.2</ele>
        <time>2012-08-09T08:14:28Z</time>
      </trkpt>
      <trkpt lat="44.21638" lon="4.08528">
        <ele>411.1</ele>
        <time>2012-08-09T08:14:33Z</time>
      </trkpt>
      <trkpt lat="44.21638" lon="4.08544">
        <ele>412.2</ele>
        <time>2012-08-09T08:14:38Z</time>
      </trkpt>
      <trkpt lat="44.21639" lon="4.08559">
        <ele>413.1</ele>
        <time>2012-08-09T08:14:43Z</time>
      </trkpt>
      <trkpt lat="44.21639" lon="4.08562">
        <ele>413.2</ele>
        <time>2012-08-09T08:14:44Z</time>
      </trkpt>
      <trkpt lat="44.21642" lon="4.08589">
        <ele>414.5</ele>
        <time>2012-08-09T08:14:53Z</time>
      </trkpt>
      <trkpt lat="44.21645" lon="4.08603">
        <ele>415.5</ele>
        <time>2012-08-09T08:14:58Z</time>
      </trkpt>
      <trkpt lat="44.21647" lon="4.08616">
        <ele>416.6</ele>
        <time>2012-08-09T08:15:03Z</time>
      </trkpt>
      <trkpt lat="44.21649" lon="4.08629">
        <ele>417.6</ele>
        <time>2012-08-09T08:15:08Z</time>
      </trkpt>
      <trkpt lat="44.21651" lon="4.08642">
        <ele>419.1</ele>
        <time>2012-08-09T08:15:13Z</time>
      </trkpt>
      <trkpt lat="44.21654" lon="4.08654">
        <ele>420.5</ele>
        <time>2012-08-09T08:15:18Z</time>
      </trkpt>
      <trkpt lat="44.21657" lon="4.08667">
        <ele>421.2</ele>
        <time>2012-08-09T08:15:23Z</time>
      </trkpt>
      <trkpt lat="44.2166" lon="4.08678">
        <ele>422.2</ele>
        <time>2012-08-09T08:15:28Z</time>
      </trkpt>
      <trkpt lat="44.21662" lon="4.08691">
        <ele>423.7</ele>
        <time>2012-08-09T08:15:33Z</time>
      </trkpt>
      <trkpt lat="44.21663" lon="4.08704">
        <ele>424.7</ele>
        <time>2012-08-09T08:15:38Z</time>
      </trkpt>
      <trkpt lat="44.21662" lon="4.08718">
        <ele>425.6</ele>
        <time>2012-08-09T08:15:43Z</time>
      </trkpt>
      <trkpt lat="44.21655" lon="4.08727">
        <ele>426.3</ele>
        <time>2012-08-09T08:15:48Z</time>
      </trkpt>
      <trkpt lat="44.21654" lon="4.08729">
        <ele>426.7</ele>
        <time>2012-08-09T08:15:49Z</time>
      </trkpt>
      <trkpt lat="44.21646" lon="4.08748">
        <ele>428.8</ele>
        <time>2012-08-09T08:15:58Z</time>
      </trkpt>
      <trkpt lat="44.21641" lon="4.08761">
        <ele>430.3</ele>
        <time>2012-08-09T08:16:03Z</time>
      </trkpt>
      <trkpt lat="44.21635" lon="4.08771">
        <ele>431.8</ele>
        <time>2012-08-09T08:16:08Z</time>
      </trkpt>
      <trkpt lat="44.21628" lon="4.08778">
        <ele>432.8</ele>
        <time>2012-08-09T08:16:13Z</time>
      </trkpt>
      <trkpt lat="44.21622" lon="4.08784">
        <ele>434.3</ele>
        <time>2012-08-09T08:16:18Z</time>
      </trkpt>
      <trkpt lat="44.21616" lon="4.08791">
        <ele>434.6</ele>
        <time>2012-08-09T08:16:23Z</time>
      </trkpt>
      <trkpt lat="44.2161" lon="4.08796">
        <ele>435.6</ele>
        <time>2012-08-09T08:16:28Z</time>
      </trkpt>
      <trkpt lat="44.21602" lon="4.08794">
        <ele>436.6</ele>
        <time>2012-08-09T08:16:33Z</time>
      </trkpt>
      <trkpt lat="44.21604" lon="4.08781">
        <ele>436.8</ele>
        <time>2012-08-09T08:16:38Z</time>
      </trkpt>
      <trkpt lat="44.21607" lon="4.08772">
        <ele>437.3</ele>
        <time>2012-08-09T08:16:43Z</time>
      </trkpt>
      <trkpt lat="44.21608" lon="4.08769">
        <ele>437.3</ele>
        <time>2012-08-09T08:16:48Z</time>
      </trkpt>
      <trkpt lat="44.21608" lon="4.08769">
        <ele>437.3</ele>
        <time>2012-08-09T08:16:53Z</time>
      </trkpt>
      <trkpt lat="44.21608" lon="4.08769">
        <ele>437.3</ele>
        <time>2012-08-09T08:16:54Z</time>
      </trkpt>
      <trkpt lat="44.21613" lon="4.08754">
        <ele>436.8</ele>
        <time>2012-08-09T08:17:03Z</time>
      </trkpt>
      <trkpt lat="44.21618" lon="4.08737">
        <ele>437.5</ele>
        <time>2012-08-09T08:17:08Z</time>
      </trkpt>
      <trkpt lat="44.21626" lon="4.08715">
        <ele>437.7</ele>
        <time>2012-08-09T08:17:13Z</time>
      </trkpt>
      <trkpt lat="44.21633" lon="4.08692">
        <ele>437.2</ele>
        <time>2012-08-09T08:17:18Z</time>
      </trkpt>
      <trkpt lat="44.21635" lon="4.08669">
        <ele>436.7</ele>
        <time>2012-08-09T08:17:23Z</time>
      </trkpt>
      <trkpt lat="44.21628" lon="4.08647">
        <ele>436.2</ele>
        <time>2012-08-09T08:17:28Z</time>
      </trkpt>
      <trkpt lat="44.21621" lon="4.08622">
        <ele>435.2</ele>
        <time>2012-08-09T08:17:33Z</time>
      </trkpt>
      <trkpt lat="44.21614" lon="4.08593">
        <ele>434.2</ele>
        <time>2012-08-09T08:17:38Z</time>
      </trkpt>
      <trkpt lat="44.21608" lon="4.08555">
        <ele>433.2</ele>
        <time>2012-08-09T08:17:43Z</time>
      </trkpt>
      <trkpt lat="44.2161" lon="4.08518">
        <ele>430.5</ele>
        <time>2012-08-09T08:17:48Z</time>
      </trkpt>
      <trkpt lat="44.21615" lon="4.08494">
        <ele>429</ele>
        <time>2012-08-09T08:17:53Z</time>
      </trkpt>
      <trkpt lat="44.21618" lon="4.08475">
        <ele>426.7</ele>
        <time>2012-08-09T08:17:58Z</time>
      </trkpt>
      <trkpt lat="44.21618" lon="4.0847">
        <ele>426.2</ele>
        <time>2012-08-09T08:17:59Z</time>
      </trkpt>
      <trkpt lat="44.2161" lon="4.08433">
        <ele>422.3</ele>
        <time>2012-08-09T08:18:08Z</time>
      </trkpt>
      <trkpt lat="44.21598" lon="4.08435">
        <ele>420.7</ele>
        <time>2012-08-09T08:18:13Z</time>
      </trkpt>
      <trkpt lat="44.2159" lon="4.08433">
        <ele>419.6</ele>
        <time>2012-08-09T08:18:18Z</time>
      </trkpt>
      <trkpt lat="44.21581" lon="4.08427">
        <ele>418.6</ele>
        <time>2012-08-09T08:18:23Z</time>
      </trkpt>
      <trkpt lat="44.21574" lon="4.08417">
        <ele>417.7</ele>
        <time>2012-08-09T08:18:28Z</time>
      </trkpt>
      <trkpt lat="44.2157" lon="4.08403">
        <ele>417.7</ele>
        <time>2012-08-09T08:18:33Z</time>
      </trkpt>
      <trkpt lat="44.21565" lon="4.08392">
        <ele>417.5</ele>
        <time>2012-08-09T08:18:38Z</time>
      </trkpt>
      <trkpt lat="44.21562" lon="4.08379">
        <ele>418.3</ele>
        <time>2012-08-09T08:18:43Z</time>
      </trkpt>
      <trkpt lat="44.21557" lon="4.08366">
        <ele>418.7</ele>
        <time>2012-08-09T08:18:48Z</time>
      </trkpt>
      <trkpt lat="44.21551" lon="4.08354">
        <ele>418.8</ele>
        <time>2012-08-09T08:18:53Z</time>
      </trkpt>
      <trkpt lat="44.21548" lon="4.08343">
        <ele>419.8</ele>
        <time>2012-08-09T08:18:58Z</time>
      </trkpt>
      <trkpt lat="44.21545" lon="4.0833">
        <ele>421.2</ele>
        <time>2012-08-09T08:19:03Z</time>
      </trkpt>
      <trkpt lat="44.21544" lon="4.08327">
        <ele>421.3</ele>
        <time>2012-08-09T08:19:04Z</time>
      </trkpt>
      <trkpt lat="44.21537" lon="4.0831">
        <ele>422.2</ele>
        <time>2012-08-09T08:19:13Z</time>
      </trkpt>
      <trkpt lat="44.21531" lon="4.08301">
        <ele>423.1</ele>
        <time>2012-08-09T08:19:18Z</time>
      </trkpt>
      <trkpt lat="44.21524" lon="4.08295">
        <ele>424.2</ele>
        <time>2012-08-09T08:19:23Z</time>
      </trkpt>
      <trkpt lat="44.21518" lon="4.08285">
        <ele>425.2</ele>
        <time>2012-08-09T08:19:28Z</time>
      </trkpt>
      <trkpt lat="44.21514" lon="4.08274">
        <ele>426.2</ele>
        <time>2012-08-09T08:19:33Z</time>
      </trkpt>
      <trkpt lat="44.2151" lon="4.08263">
        <ele>426.8</ele>
        <time>2012-08-09T08:19:38Z</time>
      </trkpt>
      <trkpt lat="44.21505" lon="4.08253">
        <ele>427.7</ele>
        <time>2012-08-09T08:19:43Z</time>
      </trkpt>
      <trkpt lat="44.21502" lon="4.08242">
        <ele>428.7</ele>
        <time>2012-08-09T08:19:48Z</time>
      </trkpt>
      <trkpt lat="44.21501" lon="4.0823">
        <ele>430.2</ele>
        <time>2012-08-09T08:19:53Z</time>
      </trkpt>
      <trkpt lat="44.21501" lon="4.08219">
        <ele>431.2</ele>
        <time>2012-08-09T08:19:58Z</time>
      </trkpt>
      <trkpt lat="44.21497" lon="4.08207">
        <ele>432.6</ele>
        <time>2012-08-09T08:20:03Z</time>
      </trkpt>
      <trkpt lat="44.21494" lon="4.08197">
        <ele>433.3</ele>
        <time>2012-08-09T08:20:08Z</time>
      </trkpt>
      <trkpt lat="44.21492" lon="4.08195">
        <ele>433.3</ele>
        <time>2012-08-09T08:20:09Z</time>
      </trkpt>
      <trkpt lat="44.21474" lon="4.08199">
        <ele>434.6</ele>
        <time>2012-08-09T08:20:18Z</time>
      </trkpt>
      <trkpt lat="44.21465" lon="4.08208">
        <ele>434.7</ele>
        <time>2012-08-09T08:20:23Z</time>
      </trkpt>
      <trkpt lat="44.21458" lon="4.08217">
        <ele>435</ele>
        <time>2012-08-09T08:20:28Z</time>
      </trkpt>
      <trkpt lat="44.2145" lon="4.0822">
        <ele>435.3</ele>
        <time>2012-08-09T08:20:33Z</time>
      </trkpt>
      <trkpt lat="44.21439" lon="4.08219">
        <ele>436</ele>
        <time>2012-08-09T08:20:38Z</time>
      </trkpt>
      <trkpt lat="44.2143" lon="4.0822">
        <ele>436.7</ele>
        <time>2012-08-09T08:20:43Z</time>
      </trkpt>
      <trkpt lat="44.2142" lon="4.08225">
        <ele>436.3</ele>
        <time>2012-08-09T08:20:48Z</time>
      </trkpt>
      <trkpt lat="44.21411" lon="4.0823">
        <ele>437.2</ele>
        <time>2012-08-09T08:20:53Z</time>
      </trkpt>
      <trkpt lat="44.21403" lon="4.08237">
        <ele>437.7</ele>
        <time>2012-08-09T08:20:58Z</time>
      </trkpt>
      <trkpt lat="44.21394" lon="4.08245">
        <ele>438.5</ele>
        <time>2012-08-09T08:21:03Z</time>
      </trkpt>
      <trkpt lat="44.21384" lon="4.08252">
        <ele>439.7</ele>
        <time>2012-08-09T08:21:08Z</time>
      </trkpt>
      <trkpt lat="44.21376" lon="4.08259">
        <ele>440.2</ele>
        <time>2012-08-09T08:21:13Z</time>
      </trkpt>
      <trkpt lat="44.21374" lon="4.0826">
        <ele>440.5</ele>
        <time>2012-08-09T08:21:14Z</time>
      </trkpt>
      <trkpt lat="44.21357" lon="4.08265">
        <ele>442.5</ele>
        <time>2012-08-09T08:21:23Z</time>
      </trkpt>
      <trkpt lat="44.21349" lon="4.08267">
        <ele>443.5</ele>
        <time>2012-08-09T08:21:28Z</time>
      </trkpt>
      <trkpt lat="44.21339" lon="4.08268">
        <ele>444.6</ele>
        <time>2012-08-09T08:21:33Z</time>
      </trkpt>
      <trkpt lat="44.21331" lon="4.08268">
        <ele>445.5</ele>
        <time>2012-08-09T08:21:38Z</time>
      </trkpt>
      <trkpt lat="44.21322" lon="4.08266">
        <ele>445.7</ele>
        <time>2012-08-09T08:21:43Z</time>
      </trkpt>
      <trkpt lat="44.21312" lon="4.08263">
        <ele>446.2</ele>
        <time>2012-08-09T08:21:48Z</time>
      </trkpt>
      <trkpt lat="44.21302" lon="4.08256">
        <ele>445.8</ele>
        <time>2012-08-09T08:21:53Z</time>
      </trkpt>
      <trkpt lat="44.21297" lon="4.08244">
        <ele>446.2</ele>
        <time>2012-08-09T08:21:58Z</time>
      </trkpt>
      <trkpt lat="44.21294" lon="4.08231">
        <ele>446.7</ele>
        <time>2012-08-09T08:22:03Z</time>
      </trkpt>
      <trkpt lat="44.21289" lon="4.08217">
        <ele>446.8</ele>
        <time>2012-08-09T08:22:08Z</time>
      </trkpt>
      <trkpt lat="44.21283" lon="4.08203">
        <ele>446.5</ele>
        <time>2012-08-09T08:22:13Z</time>
      </trkpt>
      <trkpt lat="44.21275" lon="4.0819">
        <ele>446.5</ele>
        <time>2012-08-09T08:22:18Z</time>
      </trkpt>
      <trkpt lat="44.21273" lon="4.08187">
        <ele>446.7</ele>
        <time>2012-08-09T08:22:19Z</time>
      </trkpt>
      <trkpt lat="44.21253" lon="4.08173">
        <ele>448.8</ele>
        <time>2012-08-09T08:22:28Z</time>
      </trkpt>
      <trkpt lat="44.21241" lon="4.08169">
        <ele>449.8</ele>
        <time>2012-08-09T08:22:33Z</time>
      </trkpt>
      <trkpt lat="44.21232" lon="4.08167">
        <ele>451.6</ele>
        <time>2012-08-09T08:22:38Z</time>
      </trkpt>
      <trkpt lat="44.21223" lon="4.08164">
        <ele>451.7</ele>
        <time>2012-08-09T08:22:43Z</time>
      </trkpt>
      <trkpt lat="44.21215" lon="4.08158">
        <ele>452.7</ele>
        <time>2012-08-09T08:22:48Z</time>
      </trkpt>
      <trkpt lat="44.21206" lon="4.08151">
        <ele>452.8</ele>
        <time>2012-08-09T08:22:53Z</time>
      </trkpt>
      <trkpt lat="44.21198" lon="4.08142">
        <ele>453.2</ele>
        <time>2012-08-09T08:22:58Z</time>
      </trkpt>
      <trkpt lat="44.2119" lon="4.08133">
        <ele>454.2</ele>
        <time>2012-08-09T08:23:03Z</time>
      </trkpt>
      <trkpt lat="44.21182" lon="4.08124">
        <ele>454.3</ele>
        <time>2012-08-09T08:23:08Z</time>
      </trkpt>
      <trkpt lat="44.21173" lon="4.08117">
        <ele>455.2</ele>
        <time>2012-08-09T08:23:13Z</time>
      </trkpt>
      <trkpt lat="44.21164" lon="4.08111">
        <ele>456.5</ele>
        <time>2012-08-09T08:23:18Z</time>
      </trkpt>
      <trkpt lat="44.21155" lon="4.08103">
        <ele>457</ele>
        <time>2012-08-09T08:23:23Z</time>
      </trkpt>
      <trkpt lat="44.21153" lon="4.08102">
        <ele>457</ele>
        <time>2012-08-09T08:23:24Z</time>
      </trkpt>
      <trkpt lat="44.21137" lon="4.0809">
        <ele>457.5</ele>
        <time>2012-08-09T08:23:33Z</time>
      </trkpt>
      <trkpt lat="44.21128" lon="4.08084">
        <ele>458.6</ele>
        <time>2012-08-09T08:23:38Z</time>
      </trkpt>
      <trkpt lat="44.2112" lon="4.08077">
        <ele>459.3</ele>
        <time>2012-08-09T08:23:43Z</time>
      </trkpt>
      <trkpt lat="44.21113" lon="4.08071">
        <ele>460.6</ele>
        <time>2012-08-09T08:23:48Z</time>
      </trkpt>
      <trkpt lat="44.21105" lon="4.08064">
        <ele>461.1</ele>
        <time>2012-08-09T08:23:53Z</time>
      </trkpt>
      <trkpt lat="44.21096" lon="4.08058">
        <ele>461.6</ele>
        <time>2012-08-09T08:23:58Z</time>
      </trkpt>
      <trkpt lat="44.21087" lon="4.08054">
        <ele>462</ele>
        <time>2012-08-09T08:24:03Z</time>
      </trkpt>
      <trkpt lat="44.21075" lon="4.08052">
        <ele>462.2</ele>
        <time>2012-08-09T08:24:08Z</time>
      </trkpt>
      <trkpt lat="44.21062" lon="4.08053">
        <ele>462.1</ele>
        <time>2012-08-09T08:24:13Z</time>
      </trkpt>
      <trkpt lat="44.21048" lon="4.08057">
        <ele>461.6</ele>
        <time>2012-08-09T08:24:18Z</time>
      </trkpt>
      <trkpt lat="44.21032" lon="4.08066">
        <ele>460.7</ele>
        <time>2012-08-09T08:24:23Z</time>
      </trkpt>
      <trkpt lat="44.2102" lon="4.08075">
        <ele>460.7</ele>
        <time>2012-08-09T08:24:28Z</time>
      </trkpt>
      <trkpt lat="44.21018" lon="4.08076">
        <ele>460.5</ele>
        <time>2012-08-09T08:24:29Z</time>
      </trkpt>
      <trkpt lat="44.20989" lon="4.08092">
        <ele>459.2</ele>
        <time>2012-08-09T08:24:38Z</time>
      </trkpt>
      <trkpt lat="44.2097" lon="4.081">
        <ele>458.8</ele>
        <time>2012-08-09T08:24:43Z</time>
      </trkpt>
      <trkpt lat="44.20953" lon="4.08106">
        <ele>457.5</ele>
        <time>2012-08-09T08:24:48Z</time>
      </trkpt>
      <trkpt lat="44.20946" lon="4.08108">
        <ele>456.5</ele>
        <time>2012-08-09T08:24:53Z</time>
      </trkpt>
      <trkpt lat="44.20937" lon="4.08113">
        <ele>455.7</ele>
        <time>2012-08-09T08:24:58Z</time>
      </trkpt>
      <trkpt lat="44.20933" lon="4.08118">
        <ele>453.7</ele>
        <time>2012-08-09T08:25:03Z</time>
      </trkpt>
      <trkpt lat="44.20933" lon="4.08118">
        <ele>453.7</ele>
        <time>2012-08-09T08:25:08Z</time>
      </trkpt>
      <trkpt lat="44.20933" lon="4.08118">
        <ele>453.7</ele>
        <time>2012-08-09T08:25:13Z</time>
      </trkpt>
      <trkpt lat="44.20933" lon="4.08118">
        <ele>453.7</ele>
        <time>2012-08-09T08:25:18Z</time>
      </trkpt>
      <trkpt lat="44.20933" lon="4.08118">
        <ele>453.7</ele>
        <time>2012-08-09T08:25:23Z</time>
      </trkpt>
      <trkpt lat="44.20933" lon="4.08118">
        <ele>453.7</ele>
        <time>2012-08-09T08:25:28Z</time>
      </trkpt>
      <trkpt lat="44.20933" lon="4.08118">
        <ele>453.7</ele>
        <time>2012-08-09T08:25:33Z</time>
      </trkpt>
      <trkpt lat="44.20933" lon="4.08118">
        <ele>453.7</ele>
        <time>2012-08-09T08:25:34Z</time>
      </trkpt>
      <trkpt lat="44.20933" lon="4.08118">
        <ele>453.7</ele>
        <time>2012-08-09T08:25:43Z</time>
      </trkpt>
      <trkpt lat="44.20933" lon="4.08118">
        <ele>453.7</ele>
        <time>2012-08-09T08:25:48Z</time>
      </trkpt>
      <trkpt lat="44.20933" lon="4.08118">
        <ele>453.7</ele>
        <time>2012-08-09T08:25:53Z</time>
      </trkpt>
      <trkpt lat="44.20933" lon="4.08118">
        <ele>453.7</ele>
        <time>2012-08-09T08:25:58Z</time>
      </trkpt>
      <trkpt lat="44.20933" lon="4.08118">
        <ele>453.7</ele>
        <time>2012-08-09T08:26:03Z</time>
      </trkpt>
      <trkpt lat="44.20933" lon="4.08118">
        <ele>453.7</ele>
        <time>2012-08-09T08:26:08Z</time>
      </trkpt>
      <trkpt lat="44.20933" lon="4.08118">
        <ele>453.7</ele>
        <time>2012-08-09T08:26:13Z</time>
      </trkpt>
      <trkpt lat="44.20933" lon="4.08118">
        <ele>453.7</ele>
        <time>2012-08-09T08:26:18Z</time>
      </trkpt>
      <trkpt lat="44.20934" lon="4.08118">
        <ele>453.5</ele>
        <time>2012-08-09T08:26:23Z</time>
      </trkpt>
      <trkpt lat="44.20935" lon="4.0812">
        <ele>453.7</ele>
        <time>2012-08-09T08:26:28Z</time>
      </trkpt>
      <trkpt lat="44.20936" lon="4.08122">
        <ele>454.3</ele>
        <time>2012-08-09T08:26:33Z</time>
      </trkpt>
      <trkpt lat="44.20936" lon="4.08124">
        <ele>454.6</ele>
        <time>2012-08-09T08:26:38Z</time>
      </trkpt>
      <trkpt lat="44.20936" lon="4.08124">
        <ele>454.6</ele>
        <time>2012-08-09T08:26:39Z</time>
      </trkpt>
      <trkpt lat="44.20936" lon="4.08125">
        <ele>454.7</ele>
        <time>2012-08-09T08:26:48Z</time>
      </trkpt>
      <trkpt lat="44.20935" lon="4.08131">
        <ele>454.6</ele>
        <time>2012-08-09T08:26:53Z</time>
      </trkpt>
      <trkpt lat="44.20935" lon="4.08143">
        <ele>454.7</ele>
        <time>2012-08-09T08:26:58Z</time>
      </trkpt>
      <trkpt lat="44.20935" lon="4.08145">
        <ele>454.7</ele>
        <time>2012-08-09T08:27:03Z</time>
      </trkpt>
      <trkpt lat="44.20937" lon="4.08148">
        <ele>455.1</ele>
        <time>2012-08-09T08:27:08Z</time>
      </trkpt>
      <trkpt lat="44.20937" lon="4.0815">
        <ele>455.3</ele>
        <time>2012-08-09T08:27:13Z</time>
      </trkpt>
      <trkpt lat="44.20938" lon="4.08152">
        <ele>455.3</ele>
        <time>2012-08-09T08:27:18Z</time>
      </trkpt>
      <trkpt lat="44.20939" lon="4.08156">
        <ele>456.6</ele>
        <time>2012-08-09T08:27:23Z</time>
      </trkpt>
      <trkpt lat="44.20942" lon="4.08163">
        <ele>458.2</ele>
        <time>2012-08-09T08:27:28Z</time>
      </trkpt>
      <trkpt lat="44.20944" lon="4.08169">
        <ele>459.2</ele>
        <time>2012-08-09T08:27:33Z</time>
      </trkpt>
      <trkpt lat="44.20946" lon="4.08173">
        <ele>459.5</ele>
        <time>2012-08-09T08:27:38Z</time>
      </trkpt>
      <trkpt lat="44.20948" lon="4.08179">
        <ele>460.1</ele>
        <time>2012-08-09T08:27:43Z</time>
      </trkpt>
      <trkpt lat="44.20948" lon="4.08179">
        <ele>460.1</ele>
        <time>2012-08-09T08:27:44Z</time>
      </trkpt>
      <trkpt lat="44.20948" lon="4.08179">
        <ele>460.1</ele>
        <time>2012-08-09T08:27:53Z</time>
      </trkpt>
      <trkpt lat="44.20949" lon="4.08179">
        <ele>459.8</ele>
        <time>2012-08-09T08:27:58Z</time>
      </trkpt>
      <trkpt lat="44.20953" lon="4.08184">
        <ele>460.3</ele>
        <time>2012-08-09T08:28:03Z</time>
      </trkpt>
      <trkpt lat="44.20955" lon="4.08187">
        <ele>461.2</ele>
        <time>2012-08-09T08:28:08Z</time>
      </trkpt>
      <trkpt lat="44.20956" lon="4.08189">
        <ele>461.7</ele>
        <time>2012-08-09T08:28:13Z</time>
      </trkpt>
      <trkpt lat="44.20956" lon="4.08188">
        <ele>461.7</ele>
        <time>2012-08-09T08:28:18Z</time>
      </trkpt>
      <trkpt lat="44.20953" lon="4.08185">
        <ele>462</ele>
        <time>2012-08-09T08:28:23Z</time>
      </trkpt>
      <trkpt lat="44.20949" lon="4.08181">
        <ele>460.8</ele>
        <time>2012-08-09T08:28:28Z</time>
      </trkpt>
      <trkpt lat="44.20948" lon="4.08179">
        <ele>460.6</ele>
        <time>2012-08-09T08:28:33Z</time>
      </trkpt>
      <trkpt lat="44.20943" lon="4.08168">
        <ele>459.6</ele>
        <time>2012-08-09T08:28:38Z</time>
      </trkpt>
      <trkpt lat="44.20939" lon="4.08152">
        <ele>457.8</ele>
        <time>2012-08-09T08:28:43Z</time>
      </trkpt>
      <trkpt lat="44.20937" lon="4.08137">
        <ele>456.6</ele>
        <time>2012-08-09T08:28:48Z</time>
      </trkpt>
      <trkpt lat="44.20937" lon="4.08134">
        <ele>456.2</ele>
        <time>2012-08-09T08:28:49Z</time>
      </trkpt>
      <trkpt lat="44.20944" lon="4.08114">
        <ele>456.2</ele>
        <time>2012-08-09T08:28:58Z</time>
      </trkpt>
      <trkpt lat="44.20949" lon="4.08107">
        <ele>457.2</ele>
        <time>2012-08-09T08:29:03Z</time>
      </trkpt>
      <trkpt lat="44.20946" lon="4.08106">
        <ele>457.1</ele>
        <time>2012-08-09T08:29:08Z</time>
      </trkpt>
      <trkpt lat="44.2094" lon="4.08108">
        <ele>456.8</ele>
        <time>2012-08-09T08:29:13Z</time>
      </trkpt>
      <trkpt lat="44.20934" lon="4.08114">
        <ele>455.7</ele>
        <time>2012-08-09T08:29:18Z</time>
      </trkpt>
      <trkpt lat="44.20931" lon="4.08116">
        <ele>455.2</ele>
        <time>2012-08-09T08:29:23Z</time>
      </trkpt>
      <trkpt lat="44.20929" lon="4.08112">
        <ele>455.1</ele>
        <time>2012-08-09T08:29:28Z</time>
      </trkpt>
      <trkpt lat="44.20928" lon="4.08112">
        <ele>454.8</ele>
        <time>2012-08-09T08:29:33Z</time>
      </trkpt>
      <trkpt lat="44.20926" lon="4.0811">
        <ele>454.6</ele>
        <time>2012-08-09T08:29:38Z</time>
      </trkpt>
      <trkpt lat="44.20924" lon="4.08106">
        <ele>453.7</ele>
        <time>2012-08-09T08:29:43Z</time>
      </trkpt>
      <trkpt lat="44.20922" lon="4.08102">
        <ele>452.5</ele>
        <time>2012-08-09T08:29:48Z</time>
      </trkpt>
      <trkpt lat="44.2092" lon="4.08099">
        <ele>451.7</ele>
        <time>2012-08-09T08:29:53Z</time>
      </trkpt>
      <trkpt lat="44.2092" lon="4.08099">
        <ele>451.5</ele>
        <time>2012-08-09T08:29:54Z</time>
      </trkpt>
      <trkpt lat="44.20916" lon="4.08093">
        <ele>450.6</ele>
        <time>2012-08-09T08:30:03Z</time>
      </trkpt>
      <trkpt lat="44.20913" lon="4.08087">
        <ele>449.7</ele>
        <time>2012-08-09T08:30:08Z</time>
      </trkpt>
      <trkpt lat="44.20911" lon="4.08083">
        <ele>448.5</ele>
        <time>2012-08-09T08:30:13Z</time>
      </trkpt>
      <trkpt lat="44.20909" lon="4.0808">
        <ele>446.7</ele>
        <time>2012-08-09T08:30:18Z</time>
      </trkpt>
      <trkpt lat="44.20905" lon="4.08075">
        <ele>445.1</ele>
        <time>2012-08-09T08:30:23Z</time>
      </trkpt>
      <trkpt lat="44.20904" lon="4.08075">
        <ele>444.7</ele>
        <time>2012-08-09T08:30:28Z</time>
      </trkpt>
      <trkpt lat="44.209" lon="4.08071">
        <ele>443.7</ele>
        <time>2012-08-09T08:30:33Z</time>
      </trkpt>
      <trkpt lat="44.20898" lon="4.08069">
        <ele>443.2</ele>
        <time>2012-08-09T08:30:38Z</time>
      </trkpt>
      <trkpt lat="44.20895" lon="4.08067">
        <ele>442</ele>
        <time>2012-08-09T08:30:43Z</time>
      </trkpt>
      <trkpt lat="44.20891" lon="4.08063">
        <ele>440.7</ele>
        <time>2012-08-09T08:30:48Z</time>
      </trkpt>
      <trkpt lat="44.20889" lon="4.08061">
        <ele>440</ele>
        <time>2012-08-09T08:30:53Z</time>
      </trkpt>
      <trkpt lat="44.20889" lon="4.08061">
        <ele>440</ele>
        <time>2012-08-09T08:30:58Z</time>
      </trkpt>
      <trkpt lat="44.20889" lon="4.08061">
        <ele>440</ele>
        <time>2012-08-09T08:30:59Z</time>
      </trkpt>
      <trkpt lat="44.20889" lon="4.08061">
        <ele>440</ele>
        <time>2012-08-09T08:31:08Z</time>
      </trkpt>
      <trkpt lat="44.20889" lon="4.08061">
        <ele>440</ele>
        <time>2012-08-09T08:31:13Z</time>
      </trkpt>
      <trkpt lat="44.20888" lon="4.0806">
        <ele>439.1</ele>
        <time>2012-08-09T08:31:18Z</time>
      </trkpt>
      <trkpt lat="44.20886" lon="4.08058">
        <ele>438.2</ele>
        <time>2012-08-09T08:31:23Z</time>
      </trkpt>
      <trkpt lat="44.20886" lon="4.08058">
        <ele>438.2</ele>
        <time>2012-08-09T08:31:28Z</time>
      </trkpt>
      <trkpt lat="44.20886" lon="4.08058">
        <ele>438.2</ele>
        <time>2012-08-09T08:31:33Z</time>
      </trkpt>
      <trkpt lat="44.20886" lon="4.08058">
        <ele>438.2</ele>
        <time>2012-08-09T08:31:38Z</time>
      </trkpt>
      <trkpt lat="44.20886" lon="4.08058">
        <ele>438.2</ele>
        <time>2012-08-09T08:31:43Z</time>
      </trkpt>
      <trkpt lat="44.20886" lon="4.08058">
        <ele>438.2</ele>
        <time>2012-08-09T08:31:48Z</time>
      </trkpt>
      <trkpt lat="44.20886" lon="4.08058">
        <ele>438.2</ele>
        <time>2012-08-09T08:31:53Z</time>
      </trkpt>
      <trkpt lat="44.20885" lon="4.08056">
        <ele>437.5</ele>
        <time>2012-08-09T08:31:58Z</time>
      </trkpt>
      <trkpt lat="44.20882" lon="4.08052">
        <ele>436.7</ele>
        <time>2012-08-09T08:32:03Z</time>
      </trkpt>
      <trkpt lat="44.20881" lon="4.08051">
        <ele>436.5</ele>
        <time>2012-08-09T08:32:04Z</time>
      </trkpt>
      <trkpt lat="44.20876" lon="4.08046">
        <ele>435.2</ele>
        <time>2012-08-09T08:32:13Z</time>
      </trkpt>
      <trkpt lat="44.20874" lon="4.08042">
        <ele>434.3</ele>
        <time>2012-08-09T08:32:18Z</time>
      </trkpt>
      <trkpt lat="44.20872" lon="4.08041">
        <ele>433.7</ele>
        <time>2012-08-09T08:32:23Z</time>
      </trkpt>
      <trkpt lat="44.20868" lon="4.08036">
        <ele>432.5</ele>
        <time>2012-08-09T08:32:28Z</time>
      </trkpt>
      <trkpt lat="44.20864" lon="4.08031">
        <ele>431.5</ele>
        <time>2012-08-09T08:32:33Z</time>
      </trkpt>
      <trkpt lat="44.20861" lon="4.08029">
        <ele>430.1</ele>
        <time>2012-08-09T08:32:38Z</time>
      </trkpt>
      <trkpt lat="44.20858" lon="4.08025">
        <ele>428.2</ele>
        <time>2012-08-09T08:32:43Z</time>
      </trkpt>
      <trkpt lat="44.20856" lon="4.08022">
        <ele>427.6</ele>
        <time>2012-08-09T08:32:48Z</time>
      </trkpt>
      <trkpt lat="44.20852" lon="4.08018">
        <ele>425.7</ele>
        <time>2012-08-09T08:32:53Z</time>
      </trkpt>
      <trkpt lat="44.20849" lon="4.08016">
        <ele>424.2</ele>
        <time>2012-08-09T08:32:58Z</time>
      </trkpt>
      <trkpt lat="44.20846" lon="4.08012">
        <ele>422.8</ele>
        <time>2012-08-09T08:33:03Z</time>
      </trkpt>
      <trkpt lat="44.20842" lon="4.0801">
        <ele>421.3</ele>
        <time>2012-08-09T08:33:08Z</time>
      </trkpt>
      <trkpt lat="44.20841" lon="4.08009">
        <ele>421</ele>
        <time>2012-08-09T08:33:09Z</time>
      </trkpt>
      <trkpt lat="44.20834" lon="4.08013">
        <ele>419</ele>
        <time>2012-08-09T08:33:18Z</time>
      </trkpt>
      <trkpt lat="44.20828" lon="4.08012">
        <ele>417</ele>
        <time>2012-08-09T08:33:23Z</time>
      </trkpt>
      <trkpt lat="44.20817" lon="4.08005">
        <ele>414.8</ele>
        <time>2012-08-09T08:33:28Z</time>
      </trkpt>
      <trkpt lat="44.20803" lon="4.08004">
        <ele>412.8</ele>
        <time>2012-08-09T08:33:33Z</time>
      </trkpt>
      <trkpt lat="44.20794" lon="4.07996">
        <ele>410.5</ele>
        <time>2012-08-09T08:33:38Z</time>
      </trkpt>
      <trkpt lat="44.20784" lon="4.07989">
        <ele>408.2</ele>
        <time>2012-08-09T08:33:43Z</time>
      </trkpt>
      <trkpt lat="44.20774" lon="4.07983">
        <ele>406</ele>
        <time>2012-08-09T08:33:48Z</time>
      </trkpt>
      <trkpt lat="44.20764" lon="4.07975">
        <ele>402.7</ele>
        <time>2012-08-09T08:33:53Z</time>
      </trkpt>
      <trkpt lat="44.20749" lon="4.07975">
        <ele>399.7</ele>
        <time>2012-08-09T08:33:58Z</time>
      </trkpt>
      <trkpt lat="44.20737" lon="4.07971">
        <ele>396.8</ele>
        <time>2012-08-09T08:34:03Z</time>
      </trkpt>
      <trkpt lat="44.20723" lon="4.07964">
        <ele>393.7</ele>
        <time>2012-08-09T08:34:08Z</time>
      </trkpt>
      <trkpt lat="44.2071" lon="4.0796">
        <ele>390.3</ele>
        <time>2012-08-09T08:34:13Z</time>
      </trkpt>
      <trkpt lat="44.20708" lon="4.0796">
        <ele>389.3</ele>
        <time>2012-08-09T08:34:14Z</time>
      </trkpt>
      <trkpt lat="44.20686" lon="4.07964">
        <ele>384.1</ele>
        <time>2012-08-09T08:34:23Z</time>
      </trkpt>
      <trkpt lat="44.20678" lon="4.07963">
        <ele>382.1</ele>
        <time>2012-08-09T08:34:28Z</time>
      </trkpt>
      <trkpt lat="44.20682" lon="4.07954">
        <ele>381.3</ele>
        <time>2012-08-09T08:34:33Z</time>
      </trkpt>
      <trkpt lat="44.20689" lon="4.07947">
        <ele>381.1</ele>
        <time>2012-08-09T08:34:38Z</time>
      </trkpt>
      <trkpt lat="44.20697" lon="4.0794">
        <ele>379.8</ele>
        <time>2012-08-09T08:34:43Z</time>
      </trkpt>
      <trkpt lat="44.20708" lon="4.07934">
        <ele>379.5</ele>
        <time>2012-08-09T08:34:48Z</time>
      </trkpt>
      <trkpt lat="44.20722" lon="4.07929">
        <ele>379.5</ele>
        <time>2012-08-09T08:34:53Z</time>
      </trkpt>
      <trkpt lat="44.20735" lon="4.07924">
        <ele>379.7</ele>
        <time>2012-08-09T08:34:58Z</time>
      </trkpt>
      <trkpt lat="44.20748" lon="4.07921">
        <ele>378.8</ele>
        <time>2012-08-09T08:35:03Z</time>
      </trkpt>
      <trkpt lat="44.2076" lon="4.07915">
        <ele>377.7</ele>
        <time>2012-08-09T08:35:08Z</time>
      </trkpt>
      <trkpt lat="44.20773" lon="4.0791">
        <ele>376.3</ele>
        <time>2012-08-09T08:35:13Z</time>
      </trkpt>
      <trkpt lat="44.20789" lon="4.07911">
        <ele>374.7</ele>
        <time>2012-08-09T08:35:18Z</time>
      </trkpt>
      <trkpt lat="44.20793" lon="4.07911">
        <ele>374.6</ele>
        <time>2012-08-09T08:35:19Z</time>
      </trkpt>
      <trkpt lat="44.20828" lon="4.07907">
        <ele>371.7</ele>
        <time>2012-08-09T08:35:28Z</time>
      </trkpt>
      <trkpt lat="44.20845" lon="4.07901">
        <ele>369.6</ele>
        <time>2012-08-09T08:35:33Z</time>
      </trkpt>
      <trkpt lat="44.20858" lon="4.07899">
        <ele>367.8</ele>
        <time>2012-08-09T08:35:38Z</time>
      </trkpt>
      <trkpt lat="44.20874" lon="4.07889">
        <ele>366.1</ele>
        <time>2012-08-09T08:35:43Z</time>
      </trkpt>
      <trkpt lat="44.20869" lon="4.07876">
        <ele>366.7</ele>
        <time>2012-08-09T08:35:48Z</time>
      </trkpt>
      <trkpt lat="44.20852" lon="4.07875">
        <ele>366.5</ele>
        <time>2012-08-09T08:35:53Z</time>
      </trkpt>
      <trkpt lat="44.20831" lon="4.07872">
        <ele>365.8</ele>
        <time>2012-08-09T08:35:58Z</time>
      </trkpt>
      <trkpt lat="44.2081" lon="4.07867">
        <ele>366</ele>
        <time>2012-08-09T08:36:03Z</time>
      </trkpt>
      <trkpt lat="44.20787" lon="4.07865">
        <ele>365.7</ele>
        <time>2012-08-09T08:36:08Z</time>
      </trkpt>
      <trkpt lat="44.20764" lon="4.07863">
        <ele>364.2</ele>
        <time>2012-08-09T08:36:13Z</time>
      </trkpt>
      <trkpt lat="44.2074" lon="4.0786">
        <ele>363.5</ele>
        <time>2012-08-09T08:36:18Z</time>
      </trkpt>
      <trkpt lat="44.20715" lon="4.0786">
        <ele>361.8</ele>
        <time>2012-08-09T08:36:23Z</time>
      </trkpt>
      <trkpt lat="44.20709" lon="4.07859">
        <ele>361.7</ele>
        <time>2012-08-09T08:36:24Z</time>
      </trkpt>
      <trkpt lat="44.20664" lon="4.07858">
        <ele>361</ele>
        <time>2012-08-09T08:36:33Z</time>
      </trkpt>
      <trkpt lat="44.20648" lon="4.07858">
        <ele>360.6</ele>
        <time>2012-08-09T08:36:38Z</time>
      </trkpt>
      <trkpt lat="44.20649" lon="4.07858">
        <ele>360.7</ele>
        <time>2012-08-09T08:36:43Z</time>
      </trkpt>
      <trkpt lat="44.20649" lon="4.07858">
        <ele>360.6</ele>
        <time>2012-08-09T08:36:48Z</time>
      </trkpt>
      <trkpt lat="44.20639" lon="4.0786">
        <ele>360.1</ele>
        <time>2012-08-09T08:36:53Z</time>
      </trkpt>
      <trkpt lat="44.20619" lon="4.07865">
        <ele>359.2</ele>
        <time>2012-08-09T08:36:58Z</time>
      </trkpt>
      <trkpt lat="44.20598" lon="4.07876">
        <ele>358.8</ele>
        <time>2012-08-09T08:37:03Z</time>
      </trkpt>
      <trkpt lat="44.20576" lon="4.07891">
        <ele>358.2</ele>
        <time>2012-08-09T08:37:08Z</time>
      </trkpt>
      <trkpt lat="44.20555" lon="4.07878">
        <ele>358.2</ele>
        <time>2012-08-09T08:37:13Z</time>
      </trkpt>
      <trkpt lat="44.20536" lon="4.07884">
        <ele>359.2</ele>
        <time>2012-08-09T08:37:18Z</time>
      </trkpt>
      <trkpt lat="44.20522" lon="4.0789">
        <ele>360</ele>
        <time>2012-08-09T08:37:23Z</time>
      </trkpt>
      <trkpt lat="44.20508" lon="4.07893">
        <ele>360.2</ele>
        <time>2012-08-09T08:37:28Z</time>
      </trkpt>
      <trkpt lat="44.20506" lon="4.07894">
        <ele>360.6</ele>
        <time>2012-08-09T08:37:29Z</time>
      </trkpt>
      <trkpt lat="44.2048" lon="4.07905">
        <ele>361.3</ele>
        <time>2012-08-09T08:37:38Z</time>
      </trkpt>
      <trkpt lat="44.20465" lon="4.07909">
        <ele>361.2</ele>
        <time>2012-08-09T08:37:43Z</time>
      </trkpt>
      <trkpt lat="44.20447" lon="4.07915">
        <ele>361.3</ele>
        <time>2012-08-09T08:37:48Z</time>
      </trkpt>
      <trkpt lat="44.20428" lon="4.07922">
        <ele>361</ele>
        <time>2012-08-09T08:37:53Z</time>
      </trkpt>
      <trkpt lat="44.20406" lon="4.07929">
        <ele>360.7</ele>
        <time>2012-08-09T08:37:58Z</time>
      </trkpt>
      <trkpt lat="44.20383" lon="4.07935">
        <ele>360.6</ele>
        <time>2012-08-09T08:38:03Z</time>
      </trkpt>
      <trkpt lat="44.20359" lon="4.07939">
        <ele>360.3</ele>
        <time>2012-08-09T08:38:08Z</time>
      </trkpt>
      <trkpt lat="44.20335" lon="4.07941">
        <ele>360</ele>
        <time>2012-08-09T08:38:13Z</time>
      </trkpt>
      <trkpt lat="44.20313" lon="4.07943">
        <ele>360.6</ele>
        <time>2012-08-09T08:38:18Z</time>
      </trkpt>
      <trkpt lat="44.20292" lon="4.07938">
        <ele>361.1</ele>
        <time>2012-08-09T08:38:23Z</time>
      </trkpt>
      <trkpt lat="44.20274" lon="4.07925">
        <ele>362.3</ele>
        <time>2012-08-09T08:38:28Z</time>
      </trkpt>
      <trkpt lat="44.20259" lon="4.07912">
        <ele>363.2</ele>
        <time>2012-08-09T08:38:33Z</time>
      </trkpt>
      <trkpt lat="44.20256" lon="4.0791">
        <ele>363.3</ele>
        <time>2012-08-09T08:38:34Z</time>
      </trkpt>
      <trkpt lat="44.20229" lon="4.07889">
        <ele>364.3</ele>
        <time>2012-08-09T08:38:43Z</time>
      </trkpt>
      <trkpt lat="44.20213" lon="4.07878">
        <ele>364.6</ele>
        <time>2012-08-09T08:38:48Z</time>
      </trkpt>
      <trkpt lat="44.20198" lon="4.07866">
        <ele>364.7</ele>
        <time>2012-08-09T08:38:53Z</time>
      </trkpt>
      <trkpt lat="44.20182" lon="4.07853">
        <ele>365.2</ele>
        <time>2012-08-09T08:38:58Z</time>
      </trkpt>
      <trkpt lat="44.20169" lon="4.07836">
        <ele>365.6</ele>
        <time>2012-08-09T08:39:03Z</time>
      </trkpt>
      <trkpt lat="44.20156" lon="4.07819">
        <ele>366.1</ele>
        <time>2012-08-09T08:39:08Z</time>
      </trkpt>
      <trkpt lat="44.20145" lon="4.078">
        <ele>365.7</ele>
        <time>2012-08-09T08:39:13Z</time>
      </trkpt>
      <trkpt lat="44.20132" lon="4.07782">
        <ele>366.6</ele>
        <time>2012-08-09T08:39:18Z</time>
      </trkpt>
      <trkpt lat="44.20121" lon="4.07764">
        <ele>366.7</ele>
        <time>2012-08-09T08:39:23Z</time>
      </trkpt>
      <trkpt lat="44.20119" lon="4.07744">
        <ele>366.5</ele>
        <time>2012-08-09T08:39:28Z</time>
      </trkpt>
      <trkpt lat="44.20132" lon="4.07717">
        <ele>366</ele>
        <time>2012-08-09T08:39:33Z</time>
      </trkpt>
      <trkpt lat="44.20133" lon="4.07686">
        <ele>367.2</ele>
        <time>2012-08-09T08:39:38Z</time>
      </trkpt>
      <trkpt lat="44.20133" lon="4.07682">
        <ele>368.2</ele>
        <time>2012-08-09T08:39:39Z</time>
      </trkpt>
      <trkpt lat="44.20125" lon="4.07647">
        <ele>369.8</ele>
        <time>2012-08-09T08:39:48Z</time>
      </trkpt>
      <trkpt lat="44.20116" lon="4.0763">
        <ele>370.3</ele>
        <time>2012-08-09T08:39:53Z</time>
      </trkpt>
      <trkpt lat="44.20109" lon="4.07606">
        <ele>370.2</ele>
        <time>2012-08-09T08:39:58Z</time>
      </trkpt>
      <trkpt lat="44.20101" lon="4.07574">
        <ele>369.7</ele>
        <time>2012-08-09T08:40:03Z</time>
      </trkpt>
      <trkpt lat="44.20087" lon="4.07538">
        <ele>369.3</ele>
        <time>2012-08-09T08:40:08Z</time>
      </trkpt>
      <trkpt lat="44.20069" lon="4.07504">
        <ele>369.5</ele>
        <time>2012-08-09T08:40:13Z</time>
      </trkpt>
      <trkpt lat="44.2005" lon="4.07472">
        <ele>369.8</ele>
        <time>2012-08-09T08:40:18Z</time>
      </trkpt>
      <trkpt lat="44.20037" lon="4.0745">
        <ele>370.5</ele>
        <time>2012-08-09T08:40:23Z</time>
      </trkpt>
      <trkpt lat="44.20027" lon="4.07436">
        <ele>371.2</ele>
        <time>2012-08-09T08:40:28Z</time>
      </trkpt>
      <trkpt lat="44.20021" lon="4.07424">
        <ele>371.7</ele>
        <time>2012-08-09T08:40:33Z</time>
      </trkpt>
      <trkpt lat="44.20014" lon="4.0741">
        <ele>371.2</ele>
        <time>2012-08-09T08:40:38Z</time>
      </trkpt>
      <trkpt lat="44.20008" lon="4.07395">
        <ele>371.6</ele>
        <time>2012-08-09T08:40:43Z</time>
      </trkpt>
      <trkpt lat="44.20006" lon="4.07392">
        <ele>371.7</ele>
        <time>2012-08-09T08:40:44Z</time>
      </trkpt>
      <trkpt lat="44.19992" lon="4.07367">
        <ele>372.8</ele>
        <time>2012-08-09T08:40:53Z</time>
      </trkpt>
      <trkpt lat="44.19983" lon="4.07356">
        <ele>373.7</ele>
        <time>2012-08-09T08:40:58Z</time>
      </trkpt>
      <trkpt lat="44.19974" lon="4.07344">
        <ele>374.2</ele>
        <time>2012-08-09T08:41:03Z</time>
      </trkpt>
      <trkpt lat="44.19962" lon="4.07331">
        <ele>374.2</ele>
        <time>2012-08-09T08:41:08Z</time>
      </trkpt>
      <trkpt lat="44.19946" lon="4.07316">
        <ele>374.2</ele>
        <time>2012-08-09T08:41:13Z</time>
      </trkpt>
      <trkpt lat="44.19922" lon="4.073">
        <ele>374</ele>
        <time>2012-08-09T08:41:18Z</time>
      </trkpt>
      <trkpt lat="44.19897" lon="4.07281">
        <ele>374.2</ele>
        <time>2012-08-09T08:41:23Z</time>
      </trkpt>
      <trkpt lat="44.19881" lon="4.07253">
        <ele>375.2</ele>
        <time>2012-08-09T08:41:28Z</time>
      </trkpt>
      <trkpt lat="44.19873" lon="4.07224">
        <ele>374.5</ele>
        <time>2012-08-09T08:41:33Z</time>
      </trkpt>
      <trkpt lat="44.19858" lon="4.07192">
        <ele>374.7</ele>
        <time>2012-08-09T08:41:38Z</time>
      </trkpt>
      <trkpt lat="44.19839" lon="4.07164">
        <ele>374.5</ele>
        <time>2012-08-09T08:41:43Z</time>
      </trkpt>
      <trkpt lat="44.19819" lon="4.0715">
        <ele>375.2</ele>
        <time>2012-08-09T08:41:48Z</time>
      </trkpt>
      <trkpt lat="44.19816" lon="4.07149">
        <ele>374.7</ele>
        <time>2012-08-09T08:41:49Z</time>
      </trkpt>
      <trkpt lat="44.1978" lon="4.07146">
        <ele>373.5</ele>
        <time>2012-08-09T08:41:58Z</time>
      </trkpt>
      <trkpt lat="44.19759" lon="4.07143">
        <ele>372.1</ele>
        <time>2012-08-09T08:42:03Z</time>
      </trkpt>
      <trkpt lat="44.19737" lon="4.07141">
        <ele>371</ele>
        <time>2012-08-09T08:42:08Z</time>
      </trkpt>
      <trkpt lat="44.19706" lon="4.07137">
        <ele>370.2</ele>
        <time>2012-08-09T08:42:13Z</time>
      </trkpt>
      <trkpt lat="44.19683" lon="4.07122">
        <ele>369.3</ele>
        <time>2012-08-09T08:42:18Z</time>
      </trkpt>
      <trkpt lat="44.19659" lon="4.07102">
        <ele>368</ele>
        <time>2012-08-09T08:42:23Z</time>
      </trkpt>
      <trkpt lat="44.19628" lon="4.07088">
        <ele>367.7</ele>
        <time>2012-08-09T08:42:28Z</time>
      </trkpt>
      <trkpt lat="44.19603" lon="4.07075">
        <ele>367.2</ele>
        <time>2012-08-09T08:42:33Z</time>
      </trkpt>
      <trkpt lat="44.19585" lon="4.07057">
        <ele>367.2</ele>
        <time>2012-08-09T08:42:38Z</time>
      </trkpt>
      <trkpt lat="44.19568" lon="4.0703">
        <ele>366.7</ele>
        <time>2012-08-09T08:42:43Z</time>
      </trkpt>
      <trkpt lat="44.19558" lon="4.07">
        <ele>365.2</ele>
        <time>2012-08-09T08:42:48Z</time>
      </trkpt>
      <trkpt lat="44.19554" lon="4.06966">
        <ele>362.6</ele>
        <time>2012-08-09T08:42:53Z</time>
      </trkpt>
      <trkpt lat="44.1955" lon="4.06962">
        <ele>362.2</ele>
        <time>2012-08-09T08:42:54Z</time>
      </trkpt>
      <trkpt lat="44.19497" lon="4.06981">
        <ele>357.5</ele>
        <time>2012-08-09T08:43:03Z</time>
      </trkpt>
      <trkpt lat="44.19466" lon="4.0699">
        <ele>356.6</ele>
        <time>2012-08-09T08:43:08Z</time>
      </trkpt>
      <trkpt lat="44.19435" lon="4.06994">
        <ele>356.2</ele>
        <time>2012-08-09T08:43:13Z</time>
      </trkpt>
      <trkpt lat="44.19407" lon="4.06994">
        <ele>355.8</ele>
        <time>2012-08-09T08:43:18Z</time>
      </trkpt>
      <trkpt lat="44.19382" lon="4.0699">
        <ele>355.7</ele>
        <time>2012-08-09T08:43:23Z</time>
      </trkpt>
      <trkpt lat="44.19363" lon="4.06988">
        <ele>356.2</ele>
        <time>2012-08-09T08:43:28Z</time>
      </trkpt>
      <trkpt lat="44.19345" lon="4.06982">
        <ele>357</ele>
        <time>2012-08-09T08:43:33Z</time>
      </trkpt>
      <trkpt lat="44.19326" lon="4.06977">
        <ele>358.2</ele>
        <time>2012-08-09T08:43:38Z</time>
      </trkpt>
      <trkpt lat="44.19314" lon="4.06972">
        <ele>359.1</ele>
        <time>2012-08-09T08:43:43Z</time>
      </trkpt>
      <trkpt lat="44.19306" lon="4.06963">
        <ele>359.1</ele>
        <time>2012-08-09T08:43:48Z</time>
      </trkpt>
      <trkpt lat="44.19297" lon="4.06954">
        <ele>360.2</ele>
        <time>2012-08-09T08:43:53Z</time>
      </trkpt>
      <trkpt lat="44.19288" lon="4.06946">
        <ele>361.1</ele>
        <time>2012-08-09T08:43:58Z</time>
      </trkpt>
      <trkpt lat="44.19285" lon="4.06946">
        <ele>361</ele>
        <time>2012-08-09T08:43:59Z</time>
      </trkpt>
      <trkpt lat="44.19278" lon="4.0694">
        <ele>361</ele>
        <time>2012-08-09T08:44:08Z</time>
      </trkpt>
      <trkpt lat="44.19279" lon="4.06942">
        <ele>360</ele>
        <time>2012-08-09T08:44:13Z</time>
      </trkpt>
      <trkpt lat="44.19279" lon="4.06942">
        <ele>360</ele>
        <time>2012-08-09T08:44:18Z</time>
      </trkpt>
      <trkpt lat="44.19281" lon="4.06952">
        <ele>359.8</ele>
        <time>2012-08-09T08:44:23Z</time>
      </trkpt>
      <trkpt lat="44.19283" lon="4.06969">
        <ele>359.7</ele>
        <time>2012-08-09T08:44:28Z</time>
      </trkpt>
      <trkpt lat="44.19286" lon="4.06985">
        <ele>360</ele>
        <time>2012-08-09T08:44:33Z</time>
      </trkpt>
      <trkpt lat="44.19283" lon="4.07">
        <ele>360</ele>
        <time>2012-08-09T08:44:38Z</time>
      </trkpt>
      <trkpt lat="44.19278" lon="4.07014">
        <ele>360.2</ele>
        <time>2012-08-09T08:44:43Z</time>
      </trkpt>
      <trkpt lat="44.19271" lon="4.07026">
        <ele>360.3</ele>
        <time>2012-08-09T08:44:48Z</time>
      </trkpt>
      <trkpt lat="44.19263" lon="4.07036">
        <ele>360.2</ele>
        <time>2012-08-09T08:44:53Z</time>
      </trkpt>
      <trkpt lat="44.19255" lon="4.07048">
        <ele>361.1</ele>
        <time>2012-08-09T08:44:58Z</time>
      </trkpt>
      <trkpt lat="44.19246" lon="4.0706">
        <ele>361.7</ele>
        <time>2012-08-09T08:45:03Z</time>
      </trkpt>
      <trkpt lat="44.19244" lon="4.07063">
        <ele>362</ele>
        <time>2012-08-09T08:45:04Z</time>
      </trkpt>
      <trkpt lat="44.19223" lon="4.07087">
        <ele>364.7</ele>
        <time>2012-08-09T08:45:13Z</time>
      </trkpt>
      <trkpt lat="44.19212" lon="4.07094">
        <ele>365.1</ele>
        <time>2012-08-09T08:45:18Z</time>
      </trkpt>
      <trkpt lat="44.19201" lon="4.07099">
        <ele>365.3</ele>
        <time>2012-08-09T08:45:23Z</time>
      </trkpt>
      <trkpt lat="44.19191" lon="4.07104">
        <ele>365.2</ele>
        <time>2012-08-09T08:45:28Z</time>
      </trkpt>
      <trkpt lat="44.1918" lon="4.07109">
        <ele>366</ele>
        <time>2012-08-09T08:45:33Z</time>
      </trkpt>
      <trkpt lat="44.1917" lon="4.07114">
        <ele>366.2</ele>
        <time>2012-08-09T08:45:38Z</time>
      </trkpt>
      <trkpt lat="44.1916" lon="4.0712">
        <ele>365.8</ele>
        <time>2012-08-09T08:45:43Z</time>
      </trkpt>
      <trkpt lat="44.19149" lon="4.07124">
        <ele>366.5</ele>
        <time>2012-08-09T08:45:48Z</time>
      </trkpt>
      <trkpt lat="44.19138" lon="4.07128">
        <ele>368</ele>
        <time>2012-08-09T08:45:53Z</time>
      </trkpt>
      <trkpt lat="44.19125" lon="4.07132">
        <ele>369.8</ele>
        <time>2012-08-09T08:45:58Z</time>
      </trkpt>
      <trkpt lat="44.19113" lon="4.07136">
        <ele>372</ele>
        <time>2012-08-09T08:46:03Z</time>
      </trkpt>
      <trkpt lat="44.19102" lon="4.07136">
        <ele>372.7</ele>
        <time>2012-08-09T08:46:08Z</time>
      </trkpt>
      <trkpt lat="44.191" lon="4.07136">
        <ele>372.8</ele>
        <time>2012-08-09T08:46:09Z</time>
      </trkpt>
      <trkpt lat="44.19072" lon="4.07139">
        <ele>372.6</ele>
        <time>2012-08-09T08:46:18Z</time>
      </trkpt>
      <trkpt lat="44.19055" lon="4.07139">
        <ele>371.7</ele>
        <time>2012-08-09T08:46:23Z</time>
      </trkpt>
      <trkpt lat="44.19038" lon="4.07137">
        <ele>371.5</ele>
        <time>2012-08-09T08:46:28Z</time>
      </trkpt>
      <trkpt lat="44.1902" lon="4.07133">
        <ele>370.2</ele>
        <time>2012-08-09T08:46:33Z</time>
      </trkpt>
      <trkpt lat="44.18997" lon="4.07128">
        <ele>369.8</ele>
        <time>2012-08-09T08:46:38Z</time>
      </trkpt>
      <trkpt lat="44.18975" lon="4.0712">
        <ele>368.8</ele>
        <time>2012-08-09T08:46:43Z</time>
      </trkpt>
      <trkpt lat="44.18952" lon="4.07118">
        <ele>369</ele>
        <time>2012-08-09T08:46:48Z</time>
      </trkpt>
      <trkpt lat="44.18928" lon="4.07123">
        <ele>368</ele>
        <time>2012-08-09T08:46:53Z</time>
      </trkpt>
      <trkpt lat="44.18905" lon="4.07126">
        <ele>367.6</ele>
        <time>2012-08-09T08:46:58Z</time>
      </trkpt>
      <trkpt lat="44.18885" lon="4.07117">
        <ele>365.7</ele>
        <time>2012-08-09T08:47:03Z</time>
      </trkpt>
      <trkpt lat="44.18863" lon="4.07108">
        <ele>364.3</ele>
        <time>2012-08-09T08:47:08Z</time>
      </trkpt>
      <trkpt lat="44.18839" lon="4.07101">
        <ele>364.1</ele>
        <time>2012-08-09T08:47:13Z</time>
      </trkpt>
      <trkpt lat="44.18834" lon="4.07099">
        <ele>364</ele>
        <time>2012-08-09T08:47:14Z</time>
      </trkpt>
      <trkpt lat="44.18789" lon="4.07086">
        <ele>362.7</ele>
        <time>2012-08-09T08:47:23Z</time>
      </trkpt>
      <trkpt lat="44.18763" lon="4.07082">
        <ele>361.2</ele>
        <time>2012-08-09T08:47:28Z</time>
      </trkpt>
      <trkpt lat="44.18737" lon="4.0708">
        <ele>359.2</ele>
        <time>2012-08-09T08:47:33Z</time>
      </trkpt>
      <trkpt lat="44.18707" lon="4.07074">
        <ele>357.5</ele>
        <time>2012-08-09T08:47:38Z</time>
      </trkpt>
      <trkpt lat="44.18676" lon="4.07067">
        <ele>356</ele>
        <time>2012-08-09T08:47:43Z</time>
      </trkpt>
      <trkpt lat="44.18645" lon="4.07054">
        <ele>353.8</ele>
        <time>2012-08-09T08:47:48Z</time>
      </trkpt>
      <trkpt lat="44.18614" lon="4.07038">
        <ele>351.7</ele>
        <time>2012-08-09T08:47:53Z</time>
      </trkpt>
      <trkpt lat="44.18582" lon="4.07024">
        <ele>349.7</ele>
        <time>2012-08-09T08:47:58Z</time>
      </trkpt>
      <trkpt lat="44.18553" lon="4.0701">
        <ele>348</ele>
        <time>2012-08-09T08:48:03Z</time>
      </trkpt>
      <trkpt lat="44.18528" lon="4.06988">
        <ele>346.5</ele>
        <time>2012-08-09T08:48:08Z</time>
      </trkpt>
      <trkpt lat="44.18507" lon="4.06966">
        <ele>345.2</ele>
        <time>2012-08-09T08:48:13Z</time>
      </trkpt>
      <trkpt lat="44.18486" lon="4.06946">
        <ele>345</ele>
        <time>2012-08-09T08:48:18Z</time>
      </trkpt>
      <trkpt lat="44.18481" lon="4.06942">
        <ele>345</ele>
        <time>2012-08-09T08:48:19Z</time>
      </trkpt>
      <trkpt lat="44.18446" lon="4.06904">
        <ele>344.2</ele>
        <time>2012-08-09T08:48:28Z</time>
      </trkpt>
      <trkpt lat="44.18429" lon="4.0687">
        <ele>343.1</ele>
        <time>2012-08-09T08:48:33Z</time>
      </trkpt>
      <trkpt lat="44.18408" lon="4.06835">
        <ele>342.7</ele>
        <time>2012-08-09T08:48:38Z</time>
      </trkpt>
      <trkpt lat="44.18389" lon="4.06798">
        <ele>342.7</ele>
        <time>2012-08-09T08:48:43Z</time>
      </trkpt>
      <trkpt lat="44.18367" lon="4.06761">
        <ele>343.8</ele>
        <time>2012-08-09T08:48:48Z</time>
      </trkpt>
      <trkpt lat="44.1835" lon="4.06725">
        <ele>342.7</ele>
        <time>2012-08-09T08:48:53Z</time>
      </trkpt>
      <trkpt lat="44.18328" lon="4.06697">
        <ele>342.6</ele>
        <time>2012-08-09T08:48:58Z</time>
      </trkpt>
      <trkpt lat="44.18304" lon="4.06677">
        <ele>342.6</ele>
        <time>2012-08-09T08:49:03Z</time>
      </trkpt>
      <trkpt lat="44.18283" lon="4.0667">
        <ele>341.5</ele>
        <time>2012-08-09T08:49:08Z</time>
      </trkpt>
      <trkpt lat="44.18261" lon="4.06667">
        <ele>339.1</ele>
        <time>2012-08-09T08:49:13Z</time>
      </trkpt>
      <trkpt lat="44.18236" lon="4.0666">
        <ele>337</ele>
        <time>2012-08-09T08:49:18Z</time>
      </trkpt>
      <trkpt lat="44.18211" lon="4.06668">
        <ele>336.1</ele>
        <time>2012-08-09T08:49:23Z</time>
      </trkpt>
      <trkpt lat="44.18206" lon="4.06671">
        <ele>335.8</ele>
        <time>2012-08-09T08:49:24Z</time>
      </trkpt>
      <trkpt lat="44.18171" lon="4.06722">
        <ele>333.2</ele>
        <time>2012-08-09T08:49:33Z</time>
      </trkpt>
      <trkpt lat="44.18148" lon="4.06739">
        <ele>332.2</ele>
        <time>2012-08-09T08:49:38Z</time>
      </trkpt>
      <trkpt lat="44.18128" lon="4.06761">
        <ele>331.6</ele>
        <time>2012-08-09T08:49:43Z</time>
      </trkpt>
      <trkpt lat="44.18116" lon="4.06792">
        <ele>330.8</ele>
        <time>2012-08-09T08:49:48Z</time>
      </trkpt>
      <trkpt lat="44.1811" lon="4.06833">
        <ele>327.7</ele>
        <time>2012-08-09T08:49:53Z</time>
      </trkpt>
      <trkpt lat="44.18103" lon="4.06873">
        <ele>325.3</ele>
        <time>2012-08-09T08:49:58Z</time>
      </trkpt>
      <trkpt lat="44.18107" lon="4.06916">
        <ele>323.5</ele>
        <time>2012-08-09T08:50:03Z</time>
      </trkpt>
      <trkpt lat="44.18121" lon="4.06948">
        <ele>321.2</ele>
        <time>2012-08-09T08:50:08Z</time>
      </trkpt>
      <trkpt lat="44.18129" lon="4.0698">
        <ele>318.7</ele>
        <time>2012-08-09T08:50:13Z</time>
      </trkpt>
      <trkpt lat="44.18112" lon="4.07009">
        <ele>314.2</ele>
        <time>2012-08-09T08:50:18Z</time>
      </trkpt>
      <trkpt lat="44.1809" lon="4.0703">
        <ele>312</ele>
        <time>2012-08-09T08:50:23Z</time>
      </trkpt>
      <trkpt lat="44.18063" lon="4.07044">
        <ele>310.7</ele>
        <time>2012-08-09T08:50:28Z</time>
      </trkpt>
      <trkpt lat="44.18059" lon="4.07047">
        <ele>310.5</ele>
        <time>2012-08-09T08:50:29Z</time>
      </trkpt>
      <trkpt lat="44.18049" lon="4.07079">
        <ele>311</ele>
        <time>2012-08-09T08:50:38Z</time>
      </trkpt>
      <trkpt lat="44.18048" lon="4.07094">
        <ele>310</ele>
        <time>2012-08-09T08:50:43Z</time>
      </trkpt>
      <trkpt lat="44.18044" lon="4.07108">
        <ele>310.7</ele>
        <time>2012-08-09T08:50:48Z</time>
      </trkpt>
      <trkpt lat="44.18037" lon="4.0712">
        <ele>310.3</ele>
        <time>2012-08-09T08:50:53Z</time>
      </trkpt>
      <trkpt lat="44.18027" lon="4.07131">
        <ele>309.1</ele>
        <time>2012-08-09T08:50:58Z</time>
      </trkpt>
      <trkpt lat="44.18018" lon="4.07143">
        <ele>307.7</ele>
        <time>2012-08-09T08:51:03Z</time>
      </trkpt>
      <trkpt lat="44.18011" lon="4.07156">
        <ele>307.5</ele>
        <time>2012-08-09T08:51:08Z</time>
      </trkpt>
      <trkpt lat="44.18005" lon="4.0717">
        <ele>306.8</ele>
        <time>2012-08-09T08:51:13Z</time>
      </trkpt>
      <trkpt lat="44.18" lon="4.07188">
        <ele>306.2</ele>
        <time>2012-08-09T08:51:18Z</time>
      </trkpt>
      <trkpt lat="44.17999" lon="4.07202">
        <ele>305.6</ele>
        <time>2012-08-09T08:51:23Z</time>
      </trkpt>
      <trkpt lat="44.17998" lon="4.0722">
        <ele>305.7</ele>
        <time>2012-08-09T08:51:28Z</time>
      </trkpt>
      <trkpt lat="44.17997" lon="4.07235">
        <ele>306.7</ele>
        <time>2012-08-09T08:51:33Z</time>
      </trkpt>
      <trkpt lat="44.17997" lon="4.07238">
        <ele>306.6</ele>
        <time>2012-08-09T08:51:34Z</time>
      </trkpt>
      <trkpt lat="44.17994" lon="4.07266">
        <ele>305.2</ele>
        <time>2012-08-09T08:51:43Z</time>
      </trkpt>
      <trkpt lat="44.17991" lon="4.07293">
        <ele>304.5</ele>
        <time>2012-08-09T08:51:48Z</time>
      </trkpt>
      <trkpt lat="44.17988" lon="4.07304">
        <ele>305</ele>
        <time>2012-08-09T08:51:53Z</time>
      </trkpt>
      <trkpt lat="44.17983" lon="4.07322">
        <ele>304.7</ele>
        <time>2012-08-09T08:51:58Z</time>
      </trkpt>
      <trkpt lat="44.17979" lon="4.0735">
        <ele>304.1</ele>
        <time>2012-08-09T08:52:03Z</time>
      </trkpt>
      <trkpt lat="44.17971" lon="4.07381">
        <ele>303</ele>
        <time>2012-08-09T08:52:08Z</time>
      </trkpt>
      <trkpt lat="44.17956" lon="4.07411">
        <ele>301</ele>
        <time>2012-08-09T08:52:13Z</time>
      </trkpt>
      <trkpt lat="44.1793" lon="4.07432">
        <ele>299.2</ele>
        <time>2012-08-09T08:52:18Z</time>
      </trkpt>
      <trkpt lat="44.17902" lon="4.07433">
        <ele>296.3</ele>
        <time>2012-08-09T08:52:23Z</time>
      </trkpt>
      <trkpt lat="44.17885" lon="4.07434">
        <ele>295.5</ele>
        <time>2012-08-09T08:52:28Z</time>
      </trkpt>
      <trkpt lat="44.17883" lon="4.07454">
        <ele>293.2</ele>
        <time>2012-08-09T08:52:33Z</time>
      </trkpt>
      <trkpt lat="44.17896" lon="4.07472">
        <ele>292.2</ele>
        <time>2012-08-09T08:52:38Z</time>
      </trkpt>
      <trkpt lat="44.17898" lon="4.07476">
        <ele>292.2</ele>
        <time>2012-08-09T08:52:39Z</time>
      </trkpt>
      <trkpt lat="44.17897" lon="4.07511">
        <ele>289</ele>
        <time>2012-08-09T08:52:48Z</time>
      </trkpt>
      <trkpt lat="44.17895" lon="4.07534">
        <ele>285.5</ele>
        <time>2012-08-09T08:52:53Z</time>
      </trkpt>
      <trkpt lat="44.17892" lon="4.07555">
        <ele>284.8</ele>
        <time>2012-08-09T08:52:58Z</time>
      </trkpt>
      <trkpt lat="44.17885" lon="4.07578">
        <ele>282.2</ele>
        <time>2012-08-09T08:53:03Z</time>
      </trkpt>
      <trkpt lat="44.17878" lon="4.07591">
        <ele>280.7</ele>
        <time>2012-08-09T08:53:08Z</time>
      </trkpt>
      <trkpt lat="44.17875" lon="4.07594">
        <ele>280.2</ele>
        <time>2012-08-09T08:53:13Z</time>
      </trkpt>
      <trkpt lat="44.17875" lon="4.07594">
        <ele>280.2</ele>
        <time>2012-08-09T08:53:18Z</time>
      </trkpt>
      <trkpt lat="44.17875" lon="4.07594">
        <ele>280.3</ele>
        <time>2012-08-09T08:53:23Z</time>
      </trkpt>
      <trkpt lat="44.17872" lon="4.07606">
        <ele>280.8</ele>
        <time>2012-08-09T08:53:28Z</time>
      </trkpt>
      <trkpt lat="44.17867" lon="4.07617">
        <ele>280.2</ele>
        <time>2012-08-09T08:53:33Z</time>
      </trkpt>
      <trkpt lat="44.17863" lon="4.07619">
        <ele>279.5</ele>
        <time>2012-08-09T08:53:38Z</time>
      </trkpt>
      <trkpt lat="44.17855" lon="4.07635">
        <ele>279.2</ele>
        <time>2012-08-09T08:53:43Z</time>
      </trkpt>
      <trkpt lat="44.17854" lon="4.0764">
        <ele>279</ele>
        <time>2012-08-09T08:53:44Z</time>
      </trkpt>
      <trkpt lat="44.17847" lon="4.07681">
        <ele>279.2</ele>
        <time>2012-08-09T08:53:53Z</time>
      </trkpt>
      <trkpt lat="44.17841" lon="4.07692">
        <ele>278.3</ele>
        <time>2012-08-09T08:53:58Z</time>
      </trkpt>
      <trkpt lat="44.17834" lon="4.0771">
        <ele>278.5</ele>
        <time>2012-08-09T08:54:03Z</time>
      </trkpt>
      <trkpt lat="44.17824" lon="4.07729">
        <ele>276.8</ele>
        <time>2012-08-09T08:54:08Z</time>
      </trkpt>
      <trkpt lat="44.17813" lon="4.07749">
        <ele>276.6</ele>
        <time>2012-08-09T08:54:13Z</time>
      </trkpt>
      <trkpt lat="44.17801" lon="4.07775">
        <ele>273.6</ele>
        <time>2012-08-09T08:54:18Z</time>
      </trkpt>
      <trkpt lat="44.17786" lon="4.07812">
        <ele>270</ele>
        <time>2012-08-09T08:54:23Z</time>
      </trkpt>
      <trkpt lat="44.17759" lon="4.07835">
        <ele>266.7</ele>
        <time>2012-08-09T08:54:28Z</time>
      </trkpt>
      <trkpt lat="44.17726" lon="4.07837">
        <ele>262.7</ele>
        <time>2012-08-09T08:54:33Z</time>
      </trkpt>
      <trkpt lat="44.17685" lon="4.07836">
        <ele>259.8</ele>
        <time>2012-08-09T08:54:38Z</time>
      </trkpt>
      <trkpt lat="44.17651" lon="4.07836">
        <ele>256.6</ele>
        <time>2012-08-09T08:54:43Z</time>
      </trkpt>
      <trkpt lat="44.17624" lon="4.07853">
        <ele>252.8</ele>
        <time>2012-08-09T08:54:48Z</time>
      </trkpt>
      <trkpt lat="44.17618" lon="4.07852">
        <ele>252.3</ele>
        <time>2012-08-09T08:54:49Z</time>
      </trkpt>
      <trkpt lat="44.17547" lon="4.07851">
        <ele>246.1</ele>
        <time>2012-08-09T08:54:58Z</time>
      </trkpt>
      <trkpt lat="44.17507" lon="4.07859">
        <ele>245.1</ele>
        <time>2012-08-09T08:55:03Z</time>
      </trkpt>
      <trkpt lat="44.17476" lon="4.07867">
        <ele>244.3</ele>
        <time>2012-08-09T08:55:08Z</time>
      </trkpt>
      <trkpt lat="44.1745" lon="4.07881">
        <ele>244.3</ele>
        <time>2012-08-09T08:55:13Z</time>
      </trkpt>
      <trkpt lat="44.17426" lon="4.079">
        <ele>242.6</ele>
        <time>2012-08-09T08:55:18Z</time>
      </trkpt>
      <trkpt lat="44.17399" lon="4.07905">
        <ele>241.6</ele>
        <time>2012-08-09T08:55:23Z</time>
      </trkpt>
      <trkpt lat="44.17367" lon="4.07899">
        <ele>239.8</ele>
        <time>2012-08-09T08:55:28Z</time>
      </trkpt>
      <trkpt lat="44.17326" lon="4.07897">
        <ele>237.8</ele>
        <time>2012-08-09T08:55:33Z</time>
      </trkpt>
      <trkpt lat="44.17273" lon="4.07891">
        <ele>233.3</ele>
        <time>2012-08-09T08:55:38Z</time>
      </trkpt>
      <trkpt lat="44.17216" lon="4.07889">
        <ele>229.6</ele>
        <time>2012-08-09T08:55:43Z</time>
      </trkpt>
      <trkpt lat="44.17158" lon="4.07901">
        <ele>225.3</ele>
        <time>2012-08-09T08:55:48Z</time>
      </trkpt>
      <trkpt lat="44.171" lon="4.0791">
        <ele>221</ele>
        <time>2012-08-09T08:55:53Z</time>
      </trkpt>
      <trkpt lat="44.17088" lon="4.07912">
        <ele>220.1</ele>
        <time>2012-08-09T08:55:54Z</time>
      </trkpt>
      <trkpt lat="44.16985" lon="4.07932">
        <ele>212.3</ele>
        <time>2012-08-09T08:56:03Z</time>
      </trkpt>
      <trkpt lat="44.16929" lon="4.07941">
        <ele>209.5</ele>
        <time>2012-08-09T08:56:08Z</time>
      </trkpt>
      <trkpt lat="44.16875" lon="4.07952">
        <ele>207.3</ele>
        <time>2012-08-09T08:56:13Z</time>
      </trkpt>
      <trkpt lat="44.16827" lon="4.07961">
        <ele>206.1</ele>
        <time>2012-08-09T08:56:18Z</time>
      </trkpt>
      <trkpt lat="44.16786" lon="4.07956">
        <ele>205</ele>
        <time>2012-08-09T08:56:23Z</time>
      </trkpt>
      <trkpt lat="44.16754" lon="4.07937">
        <ele>204.5</ele>
        <time>2012-08-09T08:56:28Z</time>
      </trkpt>
      <trkpt lat="44.16722" lon="4.07919">
        <ele>204.8</ele>
        <time>2012-08-09T08:56:33Z</time>
      </trkpt>
      <trkpt lat="44.16696" lon="4.07904">
        <ele>204.3</ele>
        <time>2012-08-09T08:56:38Z</time>
      </trkpt>
      <trkpt lat="44.16664" lon="4.07886">
        <ele>202.5</ele>
        <time>2012-08-09T08:56:43Z</time>
      </trkpt>
      <trkpt lat="44.16627" lon="4.07866">
        <ele>200.5</ele>
        <time>2012-08-09T08:56:48Z</time>
      </trkpt>
      <trkpt lat="44.16587" lon="4.07845">
        <ele>199.5</ele>
        <time>2012-08-09T08:56:53Z</time>
      </trkpt>
      <trkpt lat="44.16548" lon="4.07832">
        <ele>197.8</ele>
        <time>2012-08-09T08:56:58Z</time>
      </trkpt>
      <trkpt lat="44.1654" lon="4.0783">
        <ele>197.6</ele>
        <time>2012-08-09T08:56:59Z</time>
      </trkpt>
      <trkpt lat="44.16474" lon="4.07827">
        <ele>193.1</ele>
        <time>2012-08-09T08:57:08Z</time>
      </trkpt>
      <trkpt lat="44.16445" lon="4.07839">
        <ele>192.1</ele>
        <time>2012-08-09T08:57:13Z</time>
      </trkpt>
      <trkpt lat="44.16441" lon="4.07835">
        <ele>191.6</ele>
        <time>2012-08-09T08:57:18Z</time>
      </trkpt>
      <trkpt lat="44.16442" lon="4.07834">
        <ele>191.6</ele>
        <time>2012-08-09T08:57:23Z</time>
      </trkpt>
      <trkpt lat="44.16441" lon="4.07834">
        <ele>191.6</ele>
        <time>2012-08-09T08:57:28Z</time>
      </trkpt>
      <trkpt lat="44.16441" lon="4.07834">
        <ele>191.6</ele>
        <time>2012-08-09T08:57:33Z</time>
      </trkpt>
      <trkpt lat="44.16442" lon="4.07834">
        <ele>190.8</ele>
        <time>2012-08-09T08:57:38Z</time>
      </trkpt>
      <trkpt lat="44.16441" lon="4.07831">
        <ele>190.6</ele>
        <time>2012-08-09T08:57:43Z</time>
      </trkpt>
      <trkpt lat="44.16438" lon="4.07827">
        <ele>191.6</ele>
        <time>2012-08-09T08:57:48Z</time>
      </trkpt>
      <trkpt lat="44.16438" lon="4.07824">
        <ele>192.1</ele>
        <time>2012-08-09T08:57:53Z</time>
      </trkpt>
      <trkpt lat="44.16438" lon="4.07824">
        <ele>192.1</ele>
        <time>2012-08-09T08:57:58Z</time>
      </trkpt>
      <trkpt lat="44.16438" lon="4.07824">
        <ele>192.1</ele>
        <time>2012-08-09T08:58:03Z</time>
      </trkpt>
      <trkpt lat="44.16438" lon="4.07824">
        <ele>192.1</ele>
        <time>2012-08-09T08:58:04Z</time>
      </trkpt>
      <trkpt lat="44.16438" lon="4.07824">
        <ele>192.1</ele>
        <time>2012-08-09T08:58:04Z</time>
      </trkpt>
    </trkseg>
  </trk>
</gpx>